[[{"header":{"parameterUnit":"m.s-1","parameterCategory":1,"la1":31.0,"la2":29.5877,"lo1":-88.7671,"lo2":-86.6584,"dy":0.0162,"dx":0.0185,"nx":115,"ny":88,"refTime":"2025-11-07T00:00:00:Z","depth":0,"parameterNumber":2,"parameterNumberName":"U-component_of_WINDS"},"data":[0.0,0.0,0.0,0.0,0.0,0.0,0.0,0.0,0.0,0.0,0.0,0.0,0.0,0.0,0.0,0.0,0.0,0.0,0.0,0.0,0.0,0.0,0.0,0.0,0.0,0.0,0.0,0.0,0.0,0.0,0.0,0.0,0.0,0.0,0.0,0.0,0.0,0.0,0.0,0.0,0.0,0.0,0.0,0.0,0.0,0.0,0.0,0.0,0.0,0.0,0.0,0.0,0.0,0.0,0.0,0.0,0.0,0.0,0.0,0.0,0.0,0.0,0.0,0.0,0.0,0.0,0.0,0.0,0.0,0.0,0.0,0.0,0.0,0.0,0.0,0.0,0.0,0.0,0.0,0.0,0.0,0.0,0.0,0.0,0.0,0.0,0.0,0.0,0.0,0.0,0.0,0.0,0.0,0.0,0.0,0.0,0.0,0.0,0.0,0.0,0.0,0.0,0.0,0.0,0.0,0.0,0.0,0.0,0.0,0.0,0.0,0.0,0.0,0.0,0.0,0.0,0.0,0.0,0.0,0.0,0.0,0.0,0.0,0.0,0.0,0.0,0.0,0.0,0.0,0.0,0.0,0.0,0.0,0.0,0.0,0.0,0.0,0.0,0.0,0.0,0.0,0.0,0.0,0.0,0.0,0.0,0.0,0.0,0.0,0.0,0.0,0.0,0.0,0.0,0.0,0.0,0.0,0.0,0.0,0.0,0.0,0.0,0.0,0.0,0.0,0.0,0.0,0.0,0.0,0.0,0.0,0.0,0.0,0.0,0.0,0.0,0.0,0.0,0.0,0.0,0.0,0.0,0.0,0.0,0.0,0.0,0.0,0.0,0.0,0.0,0.0,0.0,0.0,0.0,0.0,0.0,0.0,0.0,0.0,0.0,0.0,0.0,0.0,0.0,0.0,0.0,0.0,0.0,0.0,0.0,0.0,0.0,0.0,0.0,0.0,0.0,0.0,0.0,0.0,0.0,0.0,0.0,0.0,0.0,0.0,0.0,0.0,0.0,0.0,0.0,0.0,0.0,0.0,0.0,0.0,0.0,0.0,0.0,0.0,0.0,0.0,0.0,0.0,0.0,0.0,0.0,0.0,0.0,0.0,0.0,0.0,0.0,0.0,0.0,0.0,0.0,0.0,0.0,0.0,0.0,0.0,0.0,0.0,0.0,0.0,0.0,0.0,0.0,0.0,0.0,0.0,0.0,0.0,0.0,0.0,0.0,0.0,0.0,0.0,0.0,0.0,0.0,0.0,0.0,0.0,0.0,0.0,0.0,0.0,0.0,0.0,0.0,0.0,0.0,0.0,0.0,0.0,0.0,0.0,0.0,0.0,0.0,0.0,0.0,0.0,0.0,0.0,0.0,0.0,0.0,0.0,0.0,0.0,0.0,0.0,0.0,0.0,0.0,0.0,0.0,0.0,0.0,0.0,0.0,0.0,0.0,0.0,0.0,0.0,0.0,0.0,0.0,0.0,0.0,0.0,0.0,0.0,0.0,0.0,0.0,0.0,0.0,0.0,0.0,0.0,0.0,0.0,0.0,0.0,0.0,0.0,0.0,0.0,0.0,0.0,0.0,0.0,0.0,0.0,0.0,0.0,0.0,0.0,0.0,0.0,0.0,0.0,0.0,0.0,0.0,0.0,0.0,0.0,0.0,0.0,0.0,0.0,0.0,0.0,0.0,0.0,0.0,0.0,0.0,0.0,0.0,0.0,0.0,0.0,0.0,0.0,0.0,0.0,0.0,0.0,0.0,0.0,0.0,0.0,0.0,0.0,0.0,0.0,0.0,0.0,0.0,0.0,0.0,0.0,0.0,0.0,0.0,0.0,0.0,0.0,0.0,0.0,0.0,0.0,0.0,0.0,0.0,0.0,0.0,0.0,0.0,0.0,0.0,0.0,0.0,0.0,0.0,0.0,0.0,0.0,0.0,0.0,0.0,0.0,0.0,0.0,0.0,0.0,0.0,0.0,0.0,0.0,0.0,0.0,0.0,0.0,0.0,0.0,0.0,0.0,0.0,0.0,0.0,0.0,0.0,0.0,0.0,0.0,0.0,0.0,0.0,0.0,0.0,0.0,0.0,0.0,0.0,0.0,0.0,0.0,0.0,0.0,0.0,0.0,0.0,0.0,0.0,0.0,0.0,0.0,0.0,0.0,0.0,0.0,0.0,0.0,0.0,0.0,0.0,0.0,0.0,0.0,0.0,0.0,0.0,0.0,0.0,0.0,0.0,0.0,0.0,0.0,0.0,0.0,0.0,0.0,0.0,0.0,0.0,0.0,0.0,0.0,0.0,0.0,0.0,0.0,0.0,0.0,0.0,0.0,0.0,0.0,0.0,0.0,0.0,0.0,0.0,0.0,0.0,0.0,0.0,0.0,0.0,0.0,0.0,0.0,0.0,0.0,0.0,0.0,0.0,0.0,0.0,0.0,0.0,0.0,0.0,0.0,0.0,0.0,0.0,0.0,0.0,0.0,0.0,0.0,0.0,0.0,0.0,0.0,0.0,0.0,0.0,0.0,0.0,0.0,0.0,0.0,0.0,0.0,0.0,0.0,0.0,0.0,0.0,0.0,0.0,0.0,0.0,0.0,0.0,0.0,0.0,0.0,0.0,0.0,0.0,0.0,0.0,0.0,0.0,0.0,0.0,0.0,0.0,0.0,0.0,0.0,0.0,0.0,0.0,0.0,0.0,0.0,0.0,0.0,0.0,0.0,0.0,0.0,0.0,0.0,0.0,0.0,0.0,0.0,0.0,0.0,0.0,0.0,0.0,0.0,0.0,0.0,0.0,0.0,0.0,0.0,0.0,0.0,0.0,0.0,0.0,0.0,0.0,0.0,0.0,0.0,0.0,0.0,0.0,0.0,0.0,0.0,0.0,0.0,0.0,0.0,0.0,0.0,0.0,0.0,0.0,0.0,0.0,0.0,0.0,0.0,0.0,0.0,0.0,0.0,0.0,0.0,0.0,0.0,0.0,0.0,0.0,0.0,0.0,0.0,0.0,0.0,0.0,0.0,0.0,0.0,0.0,0.0,0.0,0.0,0.0,0.0,0.0,0.0,0.0,0.0,0.0,0.0,0.0,0.0,0.0,0.0,0.0,0.0,0.0,0.0,0.0,0.0,0.0,0.0,0.0,0.0,0.0,0.0,0.0,0.0,0.0,0.0,0.0,0.0,0.0,0.0,0.0,0.0,0.0,0.0,0.0,0.0,0.0,0.0,0.0,0.0,0.0,0.0,0.0,0.0,0.0,0.0,0.0,0.0,0.0,0.0,0.0,0.0,0.0,0.0,0.0,0.0,0.0,0.0,0.0,0.0,0.0,0.0,0.0,0.0,0.0,0.0,0.0,0.0,0.0,0.0,0.0,0.0,0.0,0.0,0.0,0.0,0.0,0.0,0.0,0.0,0.0,0.0,0.0,0.0,0.0,0.0,0.0,0.0,0.0,0.0,0.0,0.0,0.0,0.0,0.0,0.0,0.0,0.0,0.0,0.0,0.0,0.0,0.0,0.0,0.0,0.0,0.0,0.0,0.0,0.0,0.0,0.0,0.0,0.0,0.0,0.0,0.0,0.0,0.0,0.0,0.0,0.0,0.0,0.0,0.0,0.0,0.0,0.0,0.0,0.0,0.0,0.0,0.0,0.0,0.0,0.0,0.0,0.0,0.0,0.0,0.0,0.0,0.0,0.0,0.0,0.0,0.0,0.0,0.0,0.0,0.0,0.0,0.0,0.0,0.0,0.0,0.0,0.0,0.0,0.0,0.0,0.0,0.0,0.0,0.0,0.0,0.0,0.0,0.0,0.0,0.0,0.0,0.0,0.0,0.0,0.0,0.0,0.0,0.0,0.0,0.0,0.0,0.0,0.0,0.0,0.0,0.0,0.0,0.0,0.0,0.0,0.0,0.0,0.0,0.0,0.0,0.0,0.0,0.0,0.0,0.0,0.0,0.0,0.0,0.0,0.0,0.0,0.0,0.0,0.0,0.0,0.0,0.0,0.0,0.0,0.0,0.0,0.0,0.0,0.0,0.0,0.0,0.0,0.0,0.0,0.0,0.0,0.0,0.0,0.0,0.0,0.0,0.0,0.0,0.0,0.0,0.0,0.0,0.0,0.0,0.0,0.0,0.0,0.0,0.0,0.0,0.0,0.0,0.0,0.0,0.0,0.0,0.0,0.0,0.0,0.0,0.0,0.0,0.0,0.0,0.0,0.0,0.0,0.0,0.0,0.0,0.0,0.0,0.0,0.0,0.0,0.0,0.0,0.0,0.0,0.0,0.0,-1.9733,0.0,0.0,0.0,0.0,0.0,0.0,0.0,0.0,0.0,0.0,0.0,0.0,0.0,0.0,0.0,0.0,0.0,0.0,0.0,0.0,0.0,0.0,0.0,0.0,0.0,0.0,0.0,0.0,0.0,0.0,0.0,0.0,0.0,0.0,0.0,0.0,0.0,0.0,0.0,0.0,0.0,0.0,0.0,0.0,0.0,0.0,0.0,0.0,0.0,0.0,0.0,0.0,0.0,0.0,0.0,0.0,0.0,0.0,0.0,0.0,0.0,0.0,0.0,0.0,0.0,0.0,0.0,0.0,0.0,0.0,0.0,0.0,0.0,0.0,0.0,0.0,0.0,0.0,0.0,0.0,0.0,0.0,0.0,0.0,0.0,0.0,0.0,0.0,0.0,0.0,0.0,0.0,0.0,0.0,0.0,0.0,0.0,0.0,0.0,0.0,0.0,0.0,0.0,0.0,0.0,0.0,0.0,0.0,0.0,0.0,-2.052,-2.1675,-2.0925,-2.0289,-1.9828,0.0,0.0,0.0,0.0,0.0,0.0,0.0,0.0,0.0,0.0,0.0,0.0,0.0,0.0,0.0,0.0,0.0,0.0,0.0,0.0,0.0,0.0,0.0,0.0,0.0,0.0,0.0,0.0,0.0,0.0,0.0,0.0,0.0,0.0,0.0,0.0,0.0,0.0,0.0,0.0,0.0,0.0,0.0,0.0,0.0,0.0,0.0,0.0,0.0,0.0,0.0,0.0,0.0,0.0,0.0,0.0,0.0,0.0,0.0,0.0,0.0,0.0,0.0,0.0,0.0,0.0,0.0,0.0,0.0,0.0,0.0,0.0,0.0,0.0,0.0,0.0,0.0,0.0,0.0,0.0,0.0,0.0,0.0,0.0,0.0,0.0,0.0,0.0,0.0,0.0,0.0,0.0,0.0,0.0,0.0,0.0,0.0,0.0,0.0,0.0,0.0,0.0,0.0,0.0,0.0,0.0,0.0,0.0,0.0,0.0,0.0,0.0,-2.0476,-1.9912,-1.9401,0.0,0.0,0.0,0.0,0.0,0.0,0.0,0.0,0.0,0.0,0.0,0.0,0.0,0.0,0.0,0.0,0.0,0.0,0.0,0.0,0.0,0.0,0.0,0.0,0.0,0.0,0.0,0.0,0.0,0.0,0.0,0.0,0.0,0.0,0.0,0.0,0.0,0.0,0.0,0.0,0.0,0.0,0.0,0.0,0.0,0.0,0.0,0.0,0.0,0.0,0.0,0.0,0.0,0.0,0.0,0.0,0.0,0.0,0.0,0.0,0.0,0.0,0.0,0.0,0.0,0.0,0.0,0.0,0.0,0.0,0.0,0.0,0.0,0.0,0.0,0.0,0.0,0.0,0.0,0.0,0.0,0.0,0.0,0.0,0.0,0.0,0.0,0.0,0.0,0.0,0.0,0.0,0.0,0.0,0.0,0.0,0.0,0.0,0.0,0.0,0.0,0.0,0.0,0.0,0.0,0.0,0.0,0.0,0.0,0.0,-2.0138,-2.0958,-2.0862,0.0,-1.8477,0.0,0.0,0.0,0.0,0.0,0.0,0.0,0.0,0.0,0.0,0.0,0.0,0.0,0.0,0.0,0.0,0.0,0.0,0.0,0.0,0.0,0.0,0.0,0.0,0.0,0.0,0.0,0.0,0.0,0.0,0.0,0.0,0.0,0.0,0.0,0.0,0.0,0.0,0.0,0.0,0.0,0.0,0.0,0.0,0.0,0.0,0.0,0.0,0.0,0.0,0.0,0.0,0.0,0.0,0.0,0.0,0.0,0.0,0.0,0.0,0.0,0.0,0.0,0.0,0.0,0.0,0.0,0.0,0.0,0.0,0.0,0.0,0.0,0.0,0.0,0.0,0.0,0.0,0.0,0.0,0.0,0.0,0.0,0.0,0.0,0.0,0.0,0.0,0.0,0.0,0.0,0.0,0.0,0.0,0.0,0.0,0.0,0.0,0.0,0.0,0.0,0.0,0.0,0.0,0.0,0.0,0.0,0.0,0.0,0.0,0.0,-2.0099,-2.0024,-1.9207,0.0,0.0,0.0,0.0,0.0,0.0,0.0,0.0,0.0,0.0,0.0,0.0,0.0,0.0,0.0,0.0,0.0,0.0,0.0,0.0,0.0,0.0,0.0,0.0,0.0,0.0,0.0,0.0,0.0,0.0,0.0,0.0,0.0,0.0,0.0,0.0,0.0,0.0,0.0,0.0,0.0,0.0,0.0,0.0,0.0,0.0,0.0,0.0,0.0,0.0,0.0,0.0,0.0,0.0,0.0,0.0,0.0,0.0,0.0,0.0,0.0,0.0,0.0,0.0,0.0,0.0,0.0,0.0,0.0,0.0,0.0,0.0,0.0,0.0,0.0,0.0,0.0,0.0,0.0,0.0,0.0,0.0,0.0,0.0,0.0,0.0,0.0,0.0,0.0,0.0,0.0,0.0,0.0,0.0,0.0,0.0,0.0,0.0,0.0,0.0,0.0,0.0,0.0,0.0,0.0,0.0,0.0,0.0,0.0,0.0,-2.0233,0.0,-1.9775,-1.973,-1.8838,-1.695,0.0,0.0,0.0,0.0,0.0,0.0,0.0,0.0,0.0,0.0,0.0,0.0,0.0,0.0,0.0,0.0,0.0,0.0,0.0,0.0,0.0,0.0,0.0,0.0,0.0,0.0,0.0,0.0,0.0,0.0,0.0,0.0,0.0,0.0,0.0,0.0,0.0,0.0,0.0,0.0,0.0,0.0,0.0,0.0,0.0,0.0,0.0,0.0,0.0,0.0,0.0,0.0,0.0,0.0,0.0,0.0,0.0,0.0,0.0,0.0,0.0,0.0,0.0,0.0,0.0,0.0,0.0,0.0,0.0,0.0,0.0,0.0,0.0,0.0,0.0,0.0,0.0,0.0,0.0,0.0,0.0,0.0,0.0,0.0,0.0,0.0,0.0,0.0,0.0,0.0,0.0,0.0,0.0,0.0,0.0,0.0,0.0,0.0,0.0,0.0,0.0,0.0,0.0,0.0,0.0,0.0,0.0,0.0,0.0,-2.105,-2.0578,-2.0427,-2.0448,-1.9303,0.0,0.0,0.0,0.0,0.0,0.0,0.0,0.0,0.0,0.0,0.0,0.0,0.0,0.0,0.0,0.0,0.0,0.0,0.0,0.0,0.0,0.0,0.0,0.0,0.0,0.0,0.0,0.0,0.0,0.0,0.0,0.0,0.0,0.0,0.0,0.0,0.0,0.0,0.0,0.0,0.0,0.0,0.0,0.0,0.0,0.0,0.0,0.0,0.0,0.0,0.0,0.0,0.0,0.0,0.0,0.0,0.0,0.0,0.0,0.0,0.0,0.0,0.0,0.0,0.0,0.0,0.0,0.0,0.0,0.0,0.0,0.0,0.0,0.0,0.0,0.0,0.0,0.0,0.0,0.0,0.0,0.0,0.0,0.0,0.0,0.0,0.0,0.0,0.0,0.0,0.0,0.0,0.0,0.0,0.0,0.0,0.0,0.0,0.0,0.0,0.0,0.0,0.0,0.0,0.0,0.0,0.0,0.0,0.0,-2.0991,-2.0715,-2.0519,-2.0436,-2.042,-1.9273,0.0,0.0,0.0,0.0,0.0,0.0,0.0,0.0,0.0,0.0,0.0,0.0,0.0,0.0,0.0,0.0,0.0,0.0,0.0,0.0,0.0,0.0,0.0,0.0,0.0,0.0,0.0,0.0,0.0,0.0,0.0,0.0,0.0,0.0,0.0,0.0,0.0,0.0,0.0,0.0,0.0,0.0,0.0,0.0,0.0,0.0,0.0,0.0,0.0,0.0,0.0,0.0,0.0,0.0,0.0,0.0,0.0,0.0,0.0,0.0,0.0,0.0,0.0,0.0,0.0,0.0,0.0,0.0,0.0,0.0,0.0,0.0,0.0,0.0,0.0,0.0,0.0,0.0,0.0,0.0,0.0,0.0,0.0,0.0,0.0,0.0,0.0,0.0,0.0,0.0,0.0,0.0,0.0,0.0,0.0,0.0,0.0,0.0,0.0,0.0,0.0,0.0,0.0,0.0,0.0,0.0,0.0,0.0,0.0,-2.0904,0.0,-2.0873,0.0,-2.0787,-1.9512,0.0,0.0,0.0,0.0,0.0,0.0,0.0,0.0,0.0,0.0,0.0,0.0,0.0,0.0,0.0,0.0,0.0,0.0,0.0,0.0,0.0,0.0,0.0,0.0,0.0,0.0,0.0,0.0,0.0,0.0,0.0,0.0,0.0,0.0,0.0,0.0,0.0,0.0,0.0,0.0,0.0,0.0,0.0,0.0,0.0,0.0,0.0,0.0,0.0,0.0,0.0,0.0,0.0,0.0,0.0,0.0,0.0,0.0,0.0,0.0,0.0,0.0,0.0,0.0,0.0,0.0,0.0,0.0,0.0,0.0,0.0,0.0,0.0,0.0,0.0,0.0,0.0,0.0,0.0,0.0,0.0,0.0,0.0,0.0,0.0,0.0,0.0,0.0,0.0,0.0,0.0,0.0,0.0,0.0,0.0,0.0,0.0,0.0,0.0,0.0,0.0,0.0,0.0,0.0,0.0,0.0,0.0,0.0,0.0,-2.173,-2.1767,-2.1696,-2.1589,-2.1571,-2.0042,0.0,0.0,0.0,0.0,0.0,0.0,0.0,0.0,0.0,0.0,0.0,0.0,0.0,0.0,0.0,0.0,0.0,0.0,0.0,0.0,0.0,0.0,0.0,0.0,0.0,0.0,0.0,0.0,0.0,0.0,0.0,0.0,0.0,0.0,0.0,0.0,0.0,0.0,0.0,0.0,0.0,0.0,0.0,0.0,0.0,0.0,0.0,0.0,0.0,0.0,0.0,0.0,0.0,0.0,0.0,0.0,0.0,0.0,0.0,0.0,0.0,0.0,0.0,0.0,0.0,0.0,0.0,0.0,0.0,0.0,0.0,0.0,0.0,0.0,0.0,0.0,0.0,0.0,0.0,0.0,0.0,0.0,0.0,0.0,0.0,0.0,0.0,0.0,0.0,0.0,0.0,0.0,0.0,0.0,0.0,0.0,0.0,0.0,0.0,0.0,0.0,0.0,0.0,0.0,0.0,0.0,0.0,0.0,0.0,-2.1749,-2.1785,-2.1732,-2.1607,-2.1607,-2.006,0.0,0.0,0.0,0.0,0.0,0.0,0.0,0.0,0.0,0.0,0.0,0.0,0.0,0.0,0.0,0.0,0.0,0.0,0.0,0.0,0.0,0.0,0.0,0.0,0.0,0.0,0.0,0.0,0.0,0.0,0.0,0.0,0.0,0.0,0.0,0.0,0.0,0.0,0.0,0.0,0.0,0.0,0.0,0.0,0.0,0.0,0.0,0.0,0.0,0.0,0.0,0.0,0.0,0.0,0.0,0.0,0.0,0.0,0.0,0.0,0.0,0.0,0.0,0.0,0.0,0.0,0.0,0.0,0.0,0.0,0.0,0.0,0.0,0.0,0.0,0.0,0.0,0.0,0.0,0.0,0.0,0.0,0.0,0.0,0.0,0.0,0.0,0.0,0.0,0.0,0.0,0.0,0.0,0.0,0.0,0.0,0.0,0.0,0.0,0.0,0.0,0.0,0.0,0.0,0.0,0.0,0.0,0.0,0.0,-2.2189,-2.2244,-2.2062,-2.1643,-2.1607,-2.006,-1.6904,0.0,0.0,0.0,0.0,0.0,0.0,0.0,0.0,0.0,0.0,0.0,0.0,0.0,0.0,0.0,0.0,0.0,0.0,0.0,0.0,0.0,0.0,0.0,0.0,0.0,0.0,0.0,0.0,0.0,0.0,0.0,0.0,0.0,0.0,0.0,0.0,0.0,0.0,0.0,0.0,0.0,0.0,0.0,0.0,0.0,0.0,0.0,0.0,0.0,0.0,0.0,0.0,0.0,0.0,0.0,0.0,0.0,0.0,0.0,0.0,0.0,0.0,0.0,0.0,0.0,0.0,0.0,0.0,0.0,0.0,0.0,0.0,0.0,0.0,0.0,0.0,0.0,0.0,0.0,0.0,0.0,0.0,0.0,0.0,0.0,0.0,0.0,0.0,0.0,0.0,0.0,0.0,0.0,0.0,0.0,0.0,0.0,0.0,0.0,0.0,0.0,0.0,0.0,0.0,0.0,0.0,0.0,0.0,-2.2997,-2.3052,-2.2685,-2.188,-2.1698,-2.0113,0.0,0.0,0.0,0.0,0.0,0.0,0.0,0.0,0.0,0.0,0.0,0.0,0.0,0.0,0.0,0.0,0.0,0.0,0.0,0.0,0.0,0.0,0.0,0.0,0.0,0.0,0.0,0.0,0.0,0.0,0.0,0.0,0.0,0.0,0.0,0.0,0.0,0.0,0.0,0.0,0.0,0.0,0.0,0.0,0.0,0.0,0.0,0.0,0.0,0.0,0.0,0.0,0.0,0.0,0.0,0.0,0.0,0.0,0.0,0.0,0.0,0.0,0.0,0.0,0.0,0.0,0.0,0.0,0.0,0.0,0.0,0.0,0.0,0.0,0.0,0.0,0.0,0.0,0.0,0.0,0.0,0.0,0.0,0.0,0.0,0.0,0.0,0.0,0.0,0.0,0.0,0.0,0.0,0.0,0.0,0.0,0.0,0.0,0.0,0.0,0.0,0.0,0.0,0.0,0.0,0.0,0.0,0.0,0.0,-2.2978,-2.3566,-2.3731,-2.3453,-2.2246,-2.0368,0.0,0.0,0.0,0.0,0.0,0.0,0.0,0.0,0.0,0.0,0.0,0.0,0.0,0.0,0.0,0.0,0.0,0.0,0.0,0.0,0.0,0.0,0.0,0.0,0.0,0.0,0.0,0.0,0.0,0.0,0.0,0.0,0.0,0.0,0.0,0.0,0.0,0.0,0.0,0.0,0.0,0.0,0.0,0.0,0.0,0.0,0.0,0.0,0.0,0.0,0.0,0.0,0.0,0.0,0.0,0.0,0.0,0.0,0.0,0.0,0.0,0.0,0.0,0.0,0.0,0.0,0.0,0.0,0.0,0.0,0.0,0.0,0.0,0.0,0.0,0.0,0.0,0.0,0.0,0.0,0.0,0.0,0.0,0.0,0.0,0.0,0.0,0.0,0.0,0.0,0.0,0.0,0.0,0.0,0.0,0.0,0.0,0.0,0.0,0.0,0.0,0.0,0.0,0.0,0.0,0.0,0.0,0.0,-2.2387,-2.3474,-2.3952,-2.4504,-2.5141,-2.283,-2.0477,0.0,0.0,0.0,0.0,0.0,0.0,0.0,0.0,0.0,0.0,0.0,0.0,0.0,0.0,0.0,0.0,0.0,0.0,0.0,0.0,0.0,0.0,0.0,0.0,0.0,0.0,0.0,0.0,0.0,0.0,0.0,0.0,0.0,0.0,0.0,0.0,0.0,0.0,0.0,0.0,0.0,0.0,0.0,0.0,0.0,0.0,0.0,0.0,0.0,0.0,0.0,0.0,0.0,0.0,0.0,0.0,0.0,0.0,0.0,0.0,0.0,0.0,0.0,0.0,0.0,0.0,0.0,0.0,0.0,0.0,0.0,0.0,0.0,0.0,0.0,0.0,0.0,0.0,0.0,0.0,0.0,0.0,0.0,0.0,0.0,0.0,0.0,0.0,0.0,0.0,0.0,0.0,0.0,0.0,0.0,0.0,0.0,0.0,0.0,0.0,0.0,0.0,0.0,0.0,0.0,0.0,0.0,0.0,-2.2642,-2.4174,-2.421,-2.4908,-2.6319,-2.3306,-2.0495,0.0,0.0,0.0,0.0,0.0,0.0,0.0,0.0,0.0,0.0,0.0,0.0,0.0,0.0,0.0,0.0,0.0,0.0,0.0,0.0,0.0,0.0,0.0,0.0,0.0,0.0,0.0,0.0,0.0,0.0,0.0,0.0,0.0,0.0,0.0,0.0,0.0,0.0,0.0,0.0,0.0,0.0,0.0,0.0,0.0,0.0,0.0,0.0,0.0,0.0,0.0,0.0,0.0,0.0,0.0,0.0,0.0,0.0,0.0,0.0,0.0,0.0,0.0,0.0,0.0,0.0,0.0,0.0,0.0,0.0,0.0,0.0,0.0,0.0,0.0,0.0,0.0,0.0,0.0,0.0,0.0,0.0,0.0,0.0,0.0,0.0,0.0,0.0,0.0,0.0,0.0,0.0,0.0,0.0,0.0,0.0,0.0,0.0,0.0,0.0,0.0,0.0,0.0,0.0,0.0,0.0,0.0,0.0,-2.2711,-2.4229,-2.4266,-2.4726,-2.5623,-2.3014,-2.075,0.0,0.0,0.0,0.0,0.0,0.0,0.0,0.0,0.0,0.0,0.0,0.0,0.0,0.0,0.0,0.0,0.0,0.0,0.0,0.0,0.0,0.0,0.0,0.0,0.0,0.0,0.0,0.0,0.0,0.0,0.0,0.0,0.0,0.0,0.0,0.0,0.0,0.0,0.0,0.0,0.0,0.0,0.0,0.0,0.0,0.0,0.0,0.0,-1.3798,0.0,0.0,0.0,0.0,0.0,0.0,0.0,0.0,0.0,0.0,0.0,0.0,0.0,0.0,0.0,0.0,0.0,0.0,0.0,0.0,0.0,0.0,0.0,0.0,0.0,0.0,0.0,0.0,0.0,0.0,0.0,0.0,0.0,0.0,0.0,0.0,0.0,0.0,0.0,0.0,0.0,0.0,0.0,0.0,0.0,0.0,0.0,0.0,0.0,0.0,0.0,0.0,0.0,0.0,0.0,0.0,0.0,0.0,0.0,-2.2763,-2.4247,-2.4303,-2.4653,-2.5274,-2.2922,-2.0841,0.0,0.0,0.0,0.0,0.0,0.0,0.0,0.0,0.0,0.0,0.0,0.0,0.0,0.0,0.0,0.0,0.0,0.0,0.0,0.0,0.0,0.0,0.0,0.0,0.0,0.0,0.0,0.0,0.0,0.0,0.0,0.0,0.0,0.0,0.0,0.0,0.0,0.0,0.0,0.0,0.0,0.0,0.0,0.0,0.0,0.0,0.0,0.0,0.0,0.0,0.0,0.0,0.0,0.0,0.0,0.0,0.0,0.0,0.0,0.0,0.0,0.0,0.0,0.0,0.0,0.0,0.0,0.0,0.0,0.0,0.0,0.0,0.0,0.0,0.0,0.0,0.0,0.0,0.0,0.0,0.0,0.0,0.0,0.0,0.0,0.0,0.0,0.0,0.0,0.0,0.0,0.0,0.0,0.0,0.0,0.0,0.0,0.0,0.0,0.0,0.0,0.0,0.0,0.0,0.0,0.0,0.0,-2.0808,-2.2726,-2.4229,-2.4303,-2.4598,-2.5164,-2.2867,-2.0841,0.0,0.0,0.0,0.0,0.0,0.0,0.0,0.0,0.0,0.0,0.0,0.0,0.0,0.0,0.0,0.0,0.0,0.0,0.0,0.0,0.0,0.0,0.0,0.0,0.0,0.0,0.0,0.0,0.0,0.0,0.0,0.0,0.0,0.0,0.0,0.0,0.0,0.0,0.0,-1.2659,-1.2735,0.0,0.0,0.0,0.0,0.0,0.0,0.0,0.0,-1.5343,0.0,0.0,0.0,0.0,0.0,0.0,0.0,0.0,0.0,0.0,0.0,0.0,0.0,0.0,0.0,0.0,0.0,0.0,0.0,0.0,0.0,0.0,0.0,0.0,0.0,0.0,0.0,0.0,0.0,0.0,0.0,0.0,0.0,0.0,0.0,0.0,0.0,0.0,0.0,0.0,0.0,0.0,0.0,0.0,0.0,0.0,0.0,0.0,0.0,0.0,0.0,0.0,0.0,0.0,0.0,0.0,-1.9393,-2.1105,-2.2745,-2.4247,-2.4303,-2.434,-2.4337,-2.2575,-2.0824,-1.9152,0.0,0.0,0.0,0.0,0.0,0.0,0.0,0.0,0.0,0.0,0.0,0.0,0.0,0.0,0.0,0.0,0.0,0.0,0.0,0.0,0.0,0.0,0.0,0.0,0.0,0.0,0.0,0.0,0.0,0.0,0.0,0.0,0.0,0.0,0.0,0.0,0.0,0.0,0.0,-1.3329,-1.388,0.0,0.0,0.0,0.0,0.0,0.0,0.0,0.0,-1.5227,0.0,0.0,0.0,0.0,0.0,0.0,0.0,0.0,0.0,0.0,0.0,0.0,0.0,0.0,0.0,0.0,0.0,0.0,0.0,0.0,0.0,0.0,0.0,0.0,0.0,0.0,0.0,0.0,0.0,0.0,0.0,0.0,0.0,0.0,0.0,0.0,0.0,0.0,0.0,0.0,0.0,0.0,0.0,0.0,0.0,0.0,0.0,0.0,0.0,0.0,0.0,0.0,0.0,0.0,0.0,-1.9583,-2.1179,-2.2726,-2.4229,-2.4303,-2.4266,-2.4153,-2.2502,-2.0824,0.0,0.0,0.0,0.0,0.0,0.0,0.0,0.0,0.0,0.0,0.0,0.0,0.0,0.0,0.0,0.0,0.0,0.0,0.0,0.0,0.0,0.0,0.0,0.0,0.0,0.0,0.0,0.0,0.0,0.0,0.0,0.0,0.0,0.0,0.0,0.0,0.0,0.0,0.0,0.0,-1.4132,-1.4756,-1.5428,0.0,0.0,0.0,0.0,0.0,0.0,-1.643,-1.6189,0.0,0.0,0.0,0.0,0.0,0.0,0.0,0.0,0.0,0.0,0.0,0.0,0.0,0.0,0.0,0.0,0.0,0.0,0.0,0.0,0.0,0.0,0.0,0.0,0.0,0.0,0.0,0.0,0.0,0.0,0.0,0.0,0.0,0.0,0.0,0.0,0.0,0.0,0.0,0.0,0.0,0.0,0.0,0.0,0.0,0.0,0.0,0.0,0.0,0.0,0.0,0.0,0.0,0.0,0.0,-1.9323,-2.1087,-2.2687,-2.3989,-2.4229,-2.4192,-2.3933,-2.2429,-2.0733,0.0,0.0,0.0,0.0,0.0,0.0,0.0,0.0,0.0,0.0,0.0,0.0,0.0,0.0,0.0,0.0,0.0,0.0,0.0,0.0,0.0,0.0,0.0,0.0,0.0,0.0,0.0,0.0,0.0,0.0,0.0,0.0,0.0,0.0,0.0,0.0,0.0,0.0,0.0,0.0,0.0,-1.5594,-1.6209,-1.6111,0.0,0.0,0.0,0.0,-1.7,-1.7272,0.0,0.0,0.0,0.0,0.0,0.0,0.0,0.0,0.0,0.0,0.0,0.0,0.0,0.0,0.0,0.0,0.0,0.0,0.0,0.0,0.0,0.0,0.0,0.0,0.0,0.0,0.0,0.0,0.0,0.0,0.0,0.0,0.0,0.0,0.0,0.0,0.0,0.0,0.0,0.0,0.0,0.0,0.0,0.0,0.0,0.0,0.0,0.0,0.0,0.0,0.0,0.0,0.0,0.0,0.0,0.0,-1.8506,-2.0808,-2.2428,-2.3232,-2.3915,-2.3934,-2.3162,-2.2155,-2.0496,0.0,0.0,0.0,0.0,0.0,0.0,0.0,0.0,0.0,0.0,0.0,0.0,0.0,0.0,0.0,0.0,0.0,0.0,0.0,0.0,0.0,0.0,0.0,0.0,0.0,0.0,0.0,0.0,0.0,0.0,0.0,0.0,0.0,0.0,0.0,0.0,0.0,0.0,0.0,0.0,0.0,-1.6254,-1.6298,-1.6604,-1.677,0.0,0.0,0.0,-1.6665,-1.7694,0.0,0.0,0.0,0.0,0.0,0.0,0.0,0.0,0.0,0.0,0.0,0.0,0.0,0.0,0.0,0.0,0.0,0.0,0.0,0.0,0.0,0.0,0.0,0.0,0.0,0.0,0.0,0.0,0.0,0.0,0.0,0.0,0.0,0.0,0.0,0.0,0.0,0.0,0.0,0.0,0.0,0.0,0.0,0.0,0.0,0.0,0.0,0.0,0.0,0.0,0.0,0.0,0.0,0.0,0.0,0.0,-1.8339,-2.0288,-2.1686,-2.2382,-2.277,-2.2737,-2.2318,-2.0948,-1.9512,0.0,0.0,0.0,0.0,0.0,0.0,0.0,0.0,0.0,0.0,0.0,0.0,0.0,0.0,0.0,0.0,0.0,0.0,0.0,0.0,0.0,0.0,0.0,0.0,0.0,0.0,0.0,0.0,0.0,0.0,0.0,0.0,0.0,0.0,0.0,0.0,0.0,0.0,0.0,0.0,0.0,0.0,-1.7087,-1.7162,0.0,0.0,0.0,-1.7927,-1.7531,0.0,0.0,0.0,0.0,0.0,0.0,0.0,0.0,0.0,0.0,0.0,0.0,0.0,0.0,0.0,0.0,0.0,0.0,0.0,0.0,0.0,0.0,0.0,0.0,0.0,0.0,0.0,0.0,0.0,0.0,0.0,0.0,0.0,0.0,0.0,0.0,0.0,0.0,0.0,0.0,0.0,0.0,0.0,0.0,0.0,0.0,0.0,0.0,0.0,0.0,0.0,0.0,0.0,0.0,0.0,0.0,0.0,-1.8024,-1.9843,-2.1038,-2.1604,-2.1791,-2.1742,-2.1455,-2.003,0.0,0.0,0.0,0.0,0.0,0.0,0.0,0.0,0.0,0.0,0.0,0.0,0.0,0.0,0.0,0.0,0.0,0.0,0.0,0.0,0.0,0.0,0.0,0.0,0.0,0.0,0.0,0.0,0.0,0.0,0.0,0.0,0.0,0.0,0.0,0.0,0.0,0.0,0.0,0.0,0.0,0.0,-1.7772,-1.7755,-1.7595,-1.7408,0.0,0.0,-1.8244,-1.7776,-1.819,-1.817,0.0,0.0,0.0,0.0,0.0,0.0,0.0,0.0,0.0,0.0,0.0,0.0,0.0,0.0,0.0,0.0,0.0,0.0,0.0,0.0,0.0,0.0,0.0,0.0,0.0,0.0,0.0,0.0,0.0,0.0,0.0,0.0,0.0,0.0,0.0,0.0,0.0,0.0,0.0,0.0,0.0,0.0,0.0,0.0,0.0,0.0,0.0,0.0,0.0,0.0,0.0,0.0,0.0,0.0,0.0,-1.7263,-1.9499,-2.0711,-2.081,-2.1445,-2.1414,-2.0629,-1.9737,-1.852,0.0,0.0,0.0,0.0,0.0,0.0,0.0,0.0,0.0,0.0,0.0,0.0,0.0,0.0,0.0,0.0,0.0,0.0,0.0,0.0,0.0,0.0,0.0,0.0,0.0,0.0,0.0,0.0,0.0,0.0,0.0,0.0,0.0,0.0,0.0,0.0,0.0,0.0,0.0,0.0,0.0,-1.7944,-1.79,-1.7772,-1.7618,0.0,0.0,-1.8003,-1.6545,-1.8037,-1.8435,-1.5781,0.0,0.0,0.0,0.0,0.0,0.0,0.0,0.0,0.0,0.0,0.0,0.0,0.0,0.0,0.0,0.0,0.0,0.0,0.0,0.0,0.0,0.0,0.0,0.0,0.0,0.0,0.0,0.0,0.0,0.0,0.0,0.0,0.0,0.0,0.0,0.0,0.0,0.0,0.0,0.0,0.0,0.0,0.0,0.0,0.0,0.0,0.0,0.0,0.0,0.0,0.0,0.0,0.0,-1.6613,-1.7096,-1.8498,-1.9452,-1.9944,-2.0209,-2.0144,-1.9767,-1.8456,-1.7461,0.0,0.0,0.0,0.0,0.0,0.0,0.0,0.0,0.0,0.0,0.0,0.0,0.0,0.0,0.0,0.0,0.0,0.0,0.0,0.0,0.0,0.0,0.0,0.0,0.0,0.0,0.0,0.0,-1.2662,-1.2665,-1.2754,0.0,0.0,0.0,0.0,0.0,0.0,0.0,0.0,0.0,0.0,-1.8087,-1.7983,-1.7861,0.0,0.0,-1.8156,-1.8243,-1.7211,-1.7716,-1.77,-1.6193,-1.5886,0.0,0.0,0.0,0.0,0.0,0.0,0.0,0.0,0.0,0.0,0.0,0.0,0.0,0.0,0.0,0.0,0.0,0.0,0.0,0.0,0.0,0.0,0.0,0.0,0.0,0.0,0.0,0.0,0.0,0.0,0.0,0.0,0.0,0.0,0.0,0.0,0.0,0.0,0.0,0.0,0.0,0.0,0.0,0.0,0.0,0.0,0.0,0.0,0.0,0.0,0.0,0.0,-1.6297,-1.7096,-1.7905,-1.8693,-1.9464,-1.9438,-1.9246,-1.8937,-1.7577,-1.6712,0.0,0.0,0.0,0.0,0.0,0.0,0.0,0.0,0.0,0.0,0.0,0.0,0.0,0.0,0.0,0.0,0.0,0.0,0.0,0.0,0.0,0.0,0.0,0.0,0.0,0.0,0.0,0.0,-1.2834,-1.2855,-1.2946,0.0,0.0,0.0,0.0,0.0,0.0,0.0,0.0,0.0,0.0,-1.819,-1.8087,-1.8005,-1.7878,-1.771,-1.8222,-1.839,-1.7657,-1.7654,-1.7424,-1.6518,0.0,0.0,0.0,0.0,0.0,0.0,0.0,0.0,0.0,0.0,0.0,0.0,0.0,0.0,0.0,0.0,0.0,0.0,0.0,0.0,0.0,0.0,0.0,0.0,0.0,0.0,0.0,0.0,0.0,0.0,0.0,0.0,0.0,0.0,0.0,0.0,0.0,0.0,0.0,0.0,0.0,0.0,0.0,0.0,0.0,0.0,0.0,0.0,0.0,0.0,0.0,0.0,0.0,0.0,-1.7096,-1.7868,-1.8656,-1.9446,-1.942,-1.8985,-1.8151,-1.7316,-1.6488,-1.5663,0.0,0.0,0.0,0.0,0.0,0.0,0.0,0.0,0.0,0.0,0.0,0.0,0.0,0.0,0.0,0.0,0.0,0.0,0.0,0.0,0.0,0.0,0.0,0.0,0.0,0.0,-1.3102,-1.2961,-1.2962,0.0,0.0,0.0,0.0,0.0,0.0,0.0,0.0,0.0,0.0,-1.8301,-1.8274,-1.8211,-1.8087,-1.7939,-1.7766,-1.8169,-1.8277,-1.7638,-1.7897,-1.779,0.0,0.0,0.0,0.0,0.0,0.0,0.0,0.0,0.0,0.0,0.0,0.0,0.0,0.0,0.0,0.0,0.0,0.0,0.0,0.0,0.0,0.0,0.0,0.0,0.0,0.0,0.0,-2.1702,-2.107,0.0,0.0,0.0,0.0,0.0,0.0,0.0,0.0,0.0,0.0,0.0,-2.2763,-2.2756,0.0,0.0,0.0,0.0,0.0,0.0,0.0,0.0,0.0,0.0,0.0,0.0,-1.5759,-1.704,-1.7349,-1.7879,-1.8615,-1.8624,-1.8176,-1.7312,-1.6483,-1.5632,-1.4754,0.0,0.0,0.0,0.0,0.0,0.0,0.0,0.0,0.0,0.0,0.0,0.0,0.0,0.0,0.0,0.0,0.0,0.0,0.0,0.0,0.0,0.0,0.0,0.0,0.0,-1.3362,0.0,0.0,0.0,0.0,0.0,0.0,0.0,0.0,0.0,0.0,0.0,-1.8741,-1.9228,-1.8798,-1.8383,-1.8295,-1.8151,-1.818,0.0,0.0,0.0,0.0,0.0,0.0,0.0,0.0,0.0,0.0,0.0,0.0,0.0,0.0,-1.7263,-1.5879,-1.5093,-1.4661,-1.4721,0.0,0.0,0.0,0.0,0.0,0.0,0.0,0.0,0.0,0.0,0.0,0.0,0.0,0.0,0.0,0.0,-2.171,0.0,0.0,0.0,0.0,0.0,0.0,0.0,0.0,-2.3655,-2.3782,-2.3755,-2.3719,-2.354,0.0,-2.2297,-2.0805,0.0,0.0,0.0,0.0,0.0,0.0,0.0,0.0,-1.5354,-1.6637,-1.6694,-1.7028,-1.7752,-1.7794,-1.738,-1.6518,-1.5647,-1.4799,-1.3932,-1.4111,-1.3993,0.0,0.0,0.0,0.0,0.0,0.0,0.0,0.0,0.0,0.0,0.0,0.0,0.0,0.0,0.0,0.0,0.0,0.0,0.0,0.0,0.0,0.0,0.0,-1.3102,0.0,0.0,0.0,0.0,0.0,0.0,0.0,0.0,0.0,-1.8943,-1.8838,-1.8962,-1.9719,-1.9054,-1.8463,-1.8322,0.0,0.0,0.0,0.0,0.0,0.0,0.0,-1.8888,-1.8167,-1.8066,-1.8022,-1.7867,-1.813,-1.839,-1.8448,0.0,0.0,-1.7132,-1.6463,-1.6098,-1.6151,-1.5606,-1.5432,-1.6217,-1.6146,-1.6041,0.0,0.0,0.0,0.0,0.0,0.0,0.0,0.0,-2.4869,-2.4618,0.0,-2.2977,0.0,0.0,0.0,0.0,0.0,0.0,0.0,0.0,-2.5066,-2.5511,-2.5464,-2.5352,-2.491,-2.4075,-2.3093,-2.221,-2.1378,-1.9701,0.0,0.0,0.0,0.0,0.0,0.0,-1.5136,-1.5945,-1.5993,-1.6306,-1.6977,-1.6977,-1.6546,-1.5674,-1.4916,-1.4137,-1.3338,-1.3865,-1.382,-1.3002,-1.3521,0.0,0.0,0.0,0.0,0.0,0.0,0.0,0.0,0.0,0.0,0.0,0.0,0.0,0.0,0.0,0.0,0.0,0.0,0.0,0.0,-1.2397,0.0,0.0,0.0,0.0,0.0,0.0,0.0,0.0,0.0,0.0,-1.9715,-1.9196,-1.8963,-1.9704,0.0,0.0,0.0,0.0,-1.8104,-1.7839,-1.8258,-1.872,-1.8866,-1.9139,-1.9269,-1.8985,0.0,0.0,-1.9132,-1.9132,-1.9111,-1.9214,-1.9082,-1.8743,-1.7757,-1.7661,-1.7663,-1.7205,-1.6984,-1.7033,-1.7027,-1.6881,-1.6676,-2.8271,0.0,0.0,0.0,0.0,-2.732,-2.7145,-2.67,-2.6552,-2.5881,-2.4797,-2.4127,0.0,0.0,0.0,0.0,0.0,0.0,-2.4536,-2.5124,-2.5395,-2.5511,-2.5492,-2.4846,-2.4393,-2.4123,-2.2682,-2.1852,-2.1577,-2.0513,-1.9439,-1.8504,0.0,0.0,0.0,0.0,-1.603,-1.6776,-1.6832,-1.6911,-1.7046,-1.6467,-1.5735,-1.4861,-1.4587,-1.4314,-1.4071,-1.4197,-1.4116,-1.3774,-1.3912,0.0,0.0,0.0,0.0,0.0,0.0,0.0,0.0,0.0,0.0,0.0,0.0,0.0,0.0,0.0,0.0,0.0,0.0,0.0,-1.2566,-1.2497,-1.2912,0.0,0.0,0.0,0.0,0.0,0.0,0.0,0.0,0.0,-1.9974,-1.9363,-1.9129,0.0,0.0,-1.8545,-1.8448,-1.8287,-1.8327,-1.8722,0.0,0.0,0.0,-2.0209,-2.0282,-2.0066,-2.0016,-1.9886,-1.9513,-1.9336,-1.9116,-1.8659,-1.8238,-1.7802,-1.7354,-1.7705,-1.8086,-1.8206,-1.7912,-1.7733,-1.8155,-1.8007,-1.7602,-3.0093,-2.9203,-2.8525,-2.8229,-2.8274,-2.8608,-2.8359,-2.7715,-2.7493,-2.6763,-2.5606,-2.5011,-2.4491,-2.4028,-2.3959,0.0,0.0,0.0,-2.5008,-2.5511,-2.5511,-2.5511,-2.5434,-2.4621,-2.4196,-2.4118,-2.2453,-2.1642,-2.1688,-2.0778,-2.0034,-1.9454,0.0,0.0,-1.7141,-1.6715,-1.6559,-1.6724,-1.672,-1.653,-1.6107,-1.5568,-1.5023,-1.4531,-1.4471,-1.4429,-1.4429,-1.4374,-1.4306,-1.4224,-1.4159,-1.4064,0.0,0.0,0.0,0.0,0.0,0.0,0.0,0.0,0.0,0.0,0.0,-1.362,0.0,0.0,0.0,0.0,-1.2517,-1.2681,-1.3052,-1.3313,0.0,0.0,0.0,0.0,0.0,0.0,0.0,-1.8556,-1.8823,-1.9181,-1.9686,-1.9308,-1.9237,-1.9953,-1.925,-1.8603,-1.8465,0.0,-1.8318,-1.8665,-1.9161,-1.9663,-2.0058,-2.0342,-2.04,-2.0124,-2.0009,-1.9727,-1.9139,-1.9089,-1.8898,-1.8361,-1.7782,-1.7372,-1.7301,-1.7395,-1.7662,-1.827,-1.8215,-1.8084,-1.8282,-1.804,-1.7544,-3.1719,-3.0859,-2.9194,-2.8506,-2.8587,-2.9372,-2.8749,-2.7285,-2.7923,-2.7313,-2.5829,-2.5665,-2.5604,-2.5574,-2.5536,0.0,0.0,-2.5511,-2.5511,-2.5519,-2.5519,-2.5511,-2.5472,-2.4544,-2.4099,-2.4041,-2.2262,-2.1471,-2.1546,-2.0658,-2.025,-2.0275,-1.9369,-1.8856,-1.8688,-1.7841,-1.7023,-1.6244,-1.6231,-1.574,-1.4765,-1.4578,-1.4497,-1.4499,-1.4488,-1.4458,-1.4398,-1.4422,-1.4387,-1.4302,-1.4245,-1.4211,-1.4123,0.0,0.0,0.0,0.0,0.0,0.0,0.0,0.0,0.0,0.0,0.0,0.0,0.0,0.0,0.0,-1.2718,0.0,-1.3826,-1.4681,0.0,0.0,0.0,-1.7966,-1.8639,-1.8896,-1.9273,-1.9957,0.0,0.0,0.0,0.0,-1.9271,-1.9756,-1.9199,-1.8623,-1.8465,-1.8307,-1.8184,-1.8104,-1.8552,-1.9108,-1.9658,-2.0033,-2.0113,-1.9608,-1.9434,-1.9201,-1.8439,-1.8514,-1.8585,-1.7884,-1.7428,-1.7093,-1.7332,-1.6536,-1.6374,-1.7383,-1.7741,-1.7817,-1.7486,-1.7089,-1.6421,-3.2008,-3.1716,-3.0721,-3.0293,-3.0292,-3.0507,-2.998,-2.8945,-2.8476,-2.7675,-2.6659,-2.5963,-2.5609,-2.5523,-2.551,-2.5519,-2.5507,-2.5515,-2.5522,-2.5517,-2.5517,-2.5524,-2.5439,-2.398,-2.3288,-2.3172,-2.1494,-2.0676,-2.0695,-2.0476,-2.036,-2.0366,-2.008,-1.9588,-1.8863,-1.8574,-1.8316,-1.806,-1.8051,-1.7273,-1.5712,-1.4997,-1.4587,-1.4504,-1.4494,-1.4178,-1.3563,-1.418,-1.4235,-1.3555,-1.4146,-1.4441,-1.425,-1.4185,0.0,0.0,0.0,0.0,0.0,0.0,0.0,0.0,0.0,-1.388,-1.3927,0.0,-1.4488,0.0,-1.359,-1.3909,-1.4646,-1.594,0.0,0.0,-1.9225,-2.0028,-1.9771,-1.9939,-1.9895,-1.9525,-1.9402,-1.9099,-1.8489,-1.8794,-1.8904,-1.8426,-1.8627,-1.8788,-1.8659,-1.8561,-1.8426,-1.8315,-1.8775,-1.9371,-1.9909,-2.0603,-2.0667,-1.964,-1.972,-1.9491,-1.8194,-1.8143,-1.7817,-1.6432,-1.5591,-1.511,-1.4844,-1.4284,-1.4324,-1.5227,-1.5856,-1.6207,-1.608,-1.5479,-1.4651,-3.2455,-3.2045,-3.1226,-3.0915,-3.0917,-3.0917,-3.0409,-2.955,-2.8671,-2.7811,-2.6933,-2.6091,-2.5661,-2.557,-2.5561,-2.5543,-2.5544,-2.5544,-2.5531,-2.5518,-2.5511,-2.5511,-2.5453,-2.4167,-2.3366,-2.2959,-2.1636,-2.0778,-2.0404,-2.0379,-2.0379,-2.0385,-2.0354,-2.0089,-1.9591,-1.9447,-1.9173,-1.8745,-1.8364,-1.7491,-1.613,-1.5621,-1.5131,-1.4654,-1.464,-1.4415,-1.3882,-1.433,-1.4346,-1.3875,-1.4298,-1.4492,-1.4362,-1.4288,-1.4193,0.0,0.0,0.0,0.0,0.0,0.0,0.0,0.0,0.0,0.0,0.0,-1.5205,0.0,0.0,0.0,-1.6449,-1.7381,-1.8088,-1.8623,-1.9538,-2.0171,-2.0246,-2.0089,-1.9988,-2.0022,-1.9731,-1.922,-1.8427,-1.892,-1.9007,-1.807,-1.8312,-1.8618,-1.8699,-1.8601,-1.8463,-1.8383,-1.8841,-1.9444,-2.0159,-2.0191,-1.998,-1.9519,-1.9276,-1.8784,-1.7775,-1.7502,-1.695,-1.5464,-1.416,-1.3277,-1.3058,-1.2013,-1.1578,-1.228,-1.2495,-1.2883,-1.3915,-1.334,-1.2294,-3.2962,-3.2201,-3.1283,-3.0894,-3.0892,-3.0796,-3.0366,-2.9702,-2.8706,-2.775,-2.6773,-2.6035,-2.57,-2.5699,-2.5642,-2.5597,-2.56,-2.5615,-2.5565,-2.5512,-2.5506,-2.5518,-2.5479,-2.4568,-2.3728,-2.2978,-2.2009,-2.1136,-2.0394,-2.0377,-2.0377,-2.0394,-2.0383,-2.0396,-2.0385,-2.0227,-1.9752,-1.8978,-1.8141,-1.7297,-1.6391,-1.6269,-1.5761,-1.4869,-1.4804,-1.4728,-1.4565,-1.46,-1.4579,-1.4474,-1.4518,-1.453,-1.4451,-1.4362,-1.4342,0.0,-1.4934,0.0,0.0,0.0,0.0,0.0,0.0,0.0,0.0,-1.4937,-1.6018,-1.7344,-1.6887,-1.7064,-1.8401,-1.8672,-1.882,-1.8821,-1.9181,-1.9693,-2.0358,-2.0008,-1.9977,-2.0693,-2.0063,-1.9251,-1.842,-1.8945,-1.8964,-1.7932,-1.7863,-1.8115,-1.8428,-1.8375,-1.8311,-1.841,-1.8819,-1.9348,-1.9864,-1.927,-1.8663,-1.8817,-1.8145,-1.747,-1.6799,-1.6253,-1.5575,-1.4362,-1.2664,-1.1526,-1.1721,-1.0332,-0.944,-0.9839,-0.9447,-0.959,-1.1186,-1.0923,-0.9673,-3.3302,-3.301,-3.1467,-3.0823,-3.0765,-3.0123,-3.0167,-3.0543,-2.898,-2.7418,-2.5954,-2.5781,-2.57,-2.5699,-2.5642,-2.5612,-2.5609,-2.5601,-2.5604,-2.558,-2.5574,-2.557,-2.5492,-2.3972,-2.317,-2.2918,-2.1388,-2.0574,-2.0394,-2.0394,-2.0394,-2.0394,-2.0385,-2.0385,0.0,0.0,0.0,0.0,-1.9218,-1.8328,-1.7363,-1.6651,-1.5844,-1.4924,-1.4831,0.0,-1.3867,-1.4456,-1.4494,-1.3794,-1.442,0.0,0.0,0.0,0.0,0.0,0.0,0.0,0.0,0.0,0.0,0.0,-1.6333,-1.5996,-1.5174,-1.6229,-1.7329,-1.8188,-1.821,-1.8248,-1.8548,-1.9342,-1.9903,-2.0062,-2.0746,-2.1097,-2.079,-2.0731,-2.0634,-2.0127,-1.9385,-1.8582,-1.7833,-1.7704,-1.7341,-1.6551,-1.6812,-1.7206,-1.7325,-1.7715,-1.8108,-1.8626,-1.892,-1.9058,-1.9043,-1.8522,-1.7769,-1.7274,-1.6339,-1.5469,-1.4723,-1.3612,-1.2648,-1.1871,-1.047,-0.9487,-0.9544,-0.9956,-0.9809,-0.9076,-0.8786,-0.8861,-0.8955,-0.8315,-0.7613,-3.1875,0.0,-3.0118,-2.9572,0.0,-2.9142,-2.9205,-2.9523,-2.8232,-2.6905,-2.5715,-2.5701,-2.5702,-2.5702,-2.5664,-2.5642,-2.5638,-2.5598,-2.5597,-2.5598,-2.5609,-2.5601,-2.5582,-2.4682,-2.3842,-2.2974,-2.2119,-2.126,-2.0473,-2.0439,-2.0439,-2.0454,-2.0415,-2.0415,-2.0448,-2.041,-2.0377,-2.036,-1.9935,-1.9278,-1.8364,-1.7497,-1.6584,-1.5666,0.0,0.0,0.0,0.0,0.0,0.0,0.0,0.0,0.0,0.0,0.0,-1.6422,-1.675,-1.6946,-1.7021,-1.7288,-1.7335,-1.6988,-1.7325,-1.7266,-1.6646,-1.7146,-1.8003,-1.9158,-1.8871,-1.8801,-1.9289,-1.9542,-1.9731,-1.9895,-2.043,-2.0644,-2.0383,-2.0108,-1.9846,-1.9459,-1.8705,-1.789,-1.7076,-1.7284,-1.7017,-1.6196,-1.6394,-1.6932,-1.7552,-1.784,-1.8157,-1.8734,-1.8891,-1.8607,-1.7698,-1.6898,-1.6118,-1.5033,-1.3941,-1.3187,-1.2803,-1.1844,-1.0866,-1.0226,-0.8961,-0.7901,-0.7682,-0.7588,-0.7206,-0.6507,-0.6139,-0.5904,-0.5602,-0.5463,-0.5415,-3.0411,-2.9728,-2.8732,-2.8283,-2.8283,-2.8127,-2.7971,-2.7793,0.0,0.0,0.0,-2.5549,-2.5549,-2.5683,-2.5705,-2.5694,-2.5703,-2.564,-2.5601,-2.5605,-2.5595,-2.5607,-2.5607,-2.5432,-2.4563,-2.3052,-2.2853,-2.1997,-2.0541,-2.0515,-2.0515,-2.0502,-2.0439,-2.0454,-2.0497,-2.0454,-2.0415,-2.041,-2.0417,-1.9979,-1.9116,-1.8409,-1.751,-1.6445,-1.5722,-1.5248,-1.5035,-1.5033,-1.503,-1.5015,-1.5008,-1.5315,-1.5946,-1.592,-1.6262,-1.7046,-1.7757,-1.7931,-1.7468,-1.8099,-1.8228,-1.7621,-1.8135,-1.8384,-1.8128,-1.7972,-1.8447,-1.9795,-1.9201,-1.9076,-1.9902,-1.9595,-1.9361,-1.9462,-1.9726,-1.9862,-1.9711,-1.9231,-1.8884,-1.8709,-1.8009,-1.7234,-1.658,-1.6862,-1.6991,-1.6242,-1.6061,-1.6727,-1.7973,-1.8369,-1.8631,-1.9025,-1.9026,-1.8306,-1.6694,-1.5438,-1.4247,-1.3375,-1.2115,-1.1348,-1.1535,-1.0681,-0.9688,-0.9336,-0.7673,-0.6344,-0.595,-0.54,-0.4263,-0.3891,-0.3637,-0.3272,-0.2904,-0.3125,-0.3492,-3.0704,-3.0489,-2.8947,-2.8283,-2.8244,-2.7503,-2.6759,-2.6071,-2.592,-2.5822,-2.5661,-2.4898,-2.5013,-2.5693,-2.5693,-2.5703,-2.5697,-2.5703,-2.5655,0.0,-2.5604,-2.5605,-2.5566,-2.4822,-2.3995,-2.3081,-2.2325,-2.1468,-2.0588,-2.051,-2.0513,-2.051,-2.049,-2.048,-2.0504,-2.0503,-2.048,-2.0472,-2.0415,-1.9976,-1.9126,-1.8971,-1.8142,-1.6576,-1.6383,-1.5937,-1.5204,-1.5197,-1.5153,-1.5095,-1.5094,-1.5105,-1.5171,-1.5205,-1.5508,-1.6318,-1.7113,-1.7754,-1.8286,-1.9117,-1.9531,-1.9426,-1.9526,-1.9401,-1.8974,-1.8911,-1.9004,-1.9223,-1.9264,-1.9323,-1.9479,-1.962,-1.9676,-1.9778,-1.9928,-1.9802,-1.9122,-1.8945,-1.8613,-1.7953,-1.7167,-1.6658,-1.6431,-1.6029,-1.5707,-1.5429,-1.5579,-1.5997,-1.7459,-1.8814,-1.9509,-1.9605,-1.932,-1.8249,-1.6338,-1.4848,-1.3773,-1.311,-1.177,-1.1174,-1.2224,-0.9981,-0.8241,-0.8444,-0.6111,-0.4406,-0.4303,-0.5241,-0.4862,-0.3884,-0.3978,-0.4247,-0.2885,-0.2585,-0.2522,-2.8889,-2.7988,-2.7208,-2.6874,-2.6854,-2.6462,-2.6069,-2.5654,-2.5188,-2.5266,-2.5657,-2.5264,-2.532,-2.569,-2.569,-2.5701,-2.5694,-2.5702,-2.5702,-2.5661,-2.5603,-2.5605,-2.5511,-2.4732,-2.3918,-2.3069,-2.2221,-2.1363,-2.0578,-2.0511,-2.0511,-2.05,-2.05,-2.0516,-2.0506,-2.0516,-2.05,-2.051,-2.0484,-2.0264,-1.9876,-1.9401,-1.8751,-1.7926,-1.7495,-1.7092,-1.6684,-1.6629,-1.6411,-1.5923,-1.5881,-1.6067,-1.649,-1.6522,-1.7105,-1.8371,-1.8754,-1.9047,-1.9402,-1.9754,-1.996,-1.9915,-1.9498,-1.9156,-1.8889,-1.9198,-1.9378,-1.9425,-1.9444,-1.9504,-1.9585,-1.9355,-1.9233,-1.9286,-1.9038,-1.8647,-1.8282,-1.7836,-1.7491,-1.7034,-1.6339,-1.5854,-1.5846,-1.5526,-1.5309,-1.5287,-1.5582,-1.621,-1.6887,-1.7909,-1.8765,-1.9014,-1.8586,-1.7322,-1.5465,-1.4417,-1.3331,-1.2107,-1.0382,-0.9719,-1.0096,-0.7946,-0.6657,-0.6465,-0.5404,-0.4567,-0.3835,-0.4496,-0.4383,-0.3169,-0.2901,-0.2889,-0.2314,-0.2009,-0.193,-2.7401,-2.5996,-2.5796,-2.5698,-2.5679,-2.5495,-2.5512,-2.5606,-2.4787,-2.4784,-2.5353,-2.5411,-2.5509,-2.5704,-2.5704,-2.5696,-2.5691,-2.5673,-2.5703,-2.5694,-2.5634,-2.5605,-2.5531,-2.4787,-2.3932,-2.3076,-2.2209,-2.1331,-2.0586,-2.0515,-2.0515,-2.0506,-2.0508,-2.0508,-2.0499,-2.051,-2.0508,-2.0516,-2.0514,-2.05,-2.0465,-1.9659,-1.9079,-1.8809,-1.8213,-1.7801,-1.7631,-1.7738,-1.7534,-1.6953,-1.6856,-1.7112,-1.7761,-1.7824,-1.8424,-1.9645,-1.9928,-2.0055,-2.0203,-1.9969,-1.9816,-1.9772,-1.9026,-1.8512,-1.8517,-1.8901,-1.9178,-1.9186,-1.9051,-1.9101,-1.9141,-1.8801,-1.8497,-1.8502,-1.8064,-1.7703,-1.7413,-1.6872,-1.641,-1.6236,-1.5679,-1.5343,-1.5323,-1.5306,-1.5293,-1.5371,-1.5837,-1.6171,-1.6251,-1.6607,-1.7002,-1.7299,-1.7242,-1.6347,-1.4451,-1.3718,-1.2922,-1.1439,-1.0189,-0.9719,-0.9297,-0.7752,-0.6078,-0.6017,-0.5522,-0.4725,-0.3428,-0.3475,-0.3394,-0.2337,-0.215,-0.1935,-0.2008,-0.1883,-0.1677,-2.7719,-2.6822,-2.6002,-2.569,-2.5573,-2.4882,-2.4953,-2.5499,-2.479,-2.4417,-2.4514,-2.4521,-2.5008,-2.5625,-2.5683,-2.5697,-2.5698,-2.5629,-2.5646,-2.5683,-2.5624,-2.5644,-2.5546,-2.4784,-2.3945,-2.3027,-2.2145,-2.1265,-2.0445,-2.0447,-2.0486,-2.0506,-2.0516,-2.0482,-2.0508,-2.0501,-2.0505,-2.0515,-2.0508,-2.0505,-2.0447,-1.9656,-1.8809,-1.8046,-1.7952,-1.7524,-1.6878,-1.7482,-1.7858,-1.7789,-1.7726,-1.7777,-1.7864,-1.7874,-1.7927,-1.8105,-1.8823,-1.9565,-2.0129,-1.9488,-1.9046,-1.9026,-1.8293,-1.7811,-1.7774,-1.7838,-1.7799,-1.7745,-1.7747,-1.7907,-1.7805,-1.7804,-1.7783,-1.7811,-1.7715,-1.7484,-1.6764,-1.6611,-1.6333,-1.5567,-1.5452,-1.5387,-1.5371,-1.5326,-1.5273,-1.521,-1.5334,-1.5362,-1.5139,-1.4788,-1.4411,-1.4571,-1.5229,-1.5284,-1.3759,-1.2898,-1.2817,-1.2688,-1.2335,-1.1873,-1.1583,-1.055,-0.9272,-0.6778,-0.5646,-0.4235,-0.312,-0.2275,-0.24,-0.2522,-0.2296,-0.2154,-0.2245,-0.2158,-0.1957,-2.7014,-2.6197,-2.586,-2.5405,-2.4911,-2.4537,-2.4303,-2.4167,-2.4335,-2.4136,-2.3813,-2.4654,-2.5068,-2.4959,-2.5414,-2.564,-2.5642,-2.5604,-2.5605,-2.565,-2.5598,-2.5347,-2.4813,-2.3975,-2.2899,-2.163,-2.1152,-2.054,-1.986,-1.9688,-1.9688,-1.9725,-1.9697,-1.9936,-2.0394,-2.0433,-2.0436,-2.0456,-2.0447,-2.0197,-1.9744,-1.9427,-1.8824,-1.8018,-1.7913,-1.7757,-1.7428,-1.7722,-1.768,-1.7224,-1.717,-1.7142,-1.7184,-1.7206,-1.7398,-1.7819,-1.8222,-1.8562,-1.8854,-1.8507,-1.8317,-1.8341,-1.7547,-1.704,-1.6957,-1.6532,-1.6207,-1.6309,-1.7067,-1.7668,-1.7658,-1.7271,-1.7015,-1.6987,-1.6678,-1.624,-1.5844,-1.5821,-1.5682,-1.5383,-1.5332,-1.533,-1.5338,-1.5279,-1.5196,-1.5114,-1.5076,-1.4863,-1.4278,-1.3876,-1.3267,-1.2474,-1.2745,-1.3264,-1.325,-1.3353,-1.3457,-1.367,-1.2754,-1.1991,-1.1835,-1.0031,-0.7994,-0.7344,-0.6646,-0.5714,-0.4903,-0.442,-0.4241,-0.3674,-0.2496,-0.215,-0.2198,-0.1957,-0.1607,-2.613,-2.5369,-2.5083,-2.476,-2.4339,-2.3852,-2.3424,-2.3132,-2.3501,-2.3299,-2.2935,-2.4491,-2.4657,-2.3926,-2.4983,-2.5377,-2.4966,-2.5346,-2.5318,-2.4997,-2.5338,-2.5128,-2.428,-2.34,-2.2371,-2.1302,-2.0931,-2.0457,-1.9783,-1.8993,-1.8877,-1.9078,-1.8877,-1.9052,-1.9604,-1.9683,-1.9659,-1.9678,-1.9687,-1.9391,-1.8851,-1.8623,-1.8203,-1.7615,-1.7535,-1.7554,-1.7555,-1.7744,-1.7606,-1.7064,-1.6978,-1.6992,-1.7035,-1.7031,-1.7285,-1.7815,-1.7916,-1.792,-1.7887,-1.7692,-1.7533,-1.7483,-1.6738,-1.6217,-1.6077,-1.5591,-1.5268,-1.537,-1.6343,-1.6984,-1.7044,-1.6561,-1.6217,-1.6188,-1.5667,-1.5345,-1.5329,-1.5292,-1.5312,-1.5268,-1.5293,-1.5258,-1.5219,-1.5187,-1.5133,-1.4996,-1.4756,-1.4308,-1.3435,-1.3003,-1.236,-1.102,-1.0862,-1.1504,-1.2734,-1.2738,-1.3303,-1.3595,-1.244,-1.1524,-1.123,-0.9178,-0.7302,-0.7616,-0.7954,-0.7294,-0.5354,-0.5185,-0.5378,-0.4398,-0.3361,-0.2619,-0.2885,-0.2155,-0.151,-2.5231,-2.4394,-2.3556,-2.365,-2.4155,-2.2586,-2.2294,-2.2785,-2.2217,-2.1828,-2.1998,-2.3592,-2.3417,-2.2095,-2.4358,-2.4655,-2.3514,-2.4723,-2.46,-2.3498,-2.4717,-2.5046,-2.4269,-2.3359,-2.2815,-2.2386,-2.1739,-2.1378,-2.1183,-1.9109,-1.8297,-1.8984,-1.8297,-1.7924,-1.8038,-1.8028,-1.7896,-1.8088,-1.8159,-1.797,-1.7791,-1.7077,-1.6781,-1.6649,-1.6644,-1.6643,-1.6731,-1.7375,-1.775,-1.7779,-1.7676,-1.7732,-1.7751,-1.7725,-1.7709,-1.7793,-1.783,-1.7842,-1.7693,-1.7084,-1.6655,-1.6555,-1.5933,-1.5385,-1.5463,-1.5422,-1.5382,-1.5249,-1.5502,-1.5644,-1.5733,-1.5651,-1.5461,-1.5449,-1.5366,-1.5296,-1.5301,-1.5263,-1.5267,-1.5214,-1.5245,-1.5207,-1.5063,-1.5082,-1.5015,-1.4779,-1.4271,-1.347,-1.2622,-1.1796,-1.0982,-1.0398,-1.0381,-1.0928,-1.1038,-1.1642,-1.181,-1.2128,-1.2365,-1.1708,-1.1308,-1.0551,-0.8961,-0.7851,-0.8087,-0.733,-0.5398,-0.4561,-0.4605,-0.4194,-0.3934,-0.3562,-0.2988,-0.2406,-0.174,-2.3844,-2.348,-2.3179,-2.2897,-2.2562,-2.194,-2.1609,-2.1435,-2.1648,-2.1381,-2.123,-2.2699,-2.2474,-2.0919,-2.2946,-2.3541,-2.3036,-2.3579,-2.3507,-2.3016,-2.3562,-2.3388,-2.259,-2.2197,-2.1745,-2.1359,-2.1451,-2.1228,-2.0608,-1.9673,-1.8847,-1.8177,-1.7821,-1.7668,-1.7676,-1.7661,-1.7649,-1.7716,-1.816,-1.7945,-1.6996,-1.6979,-1.6603,-1.5605,-1.5636,-1.5695,-1.5711,-1.6004,-1.6149,-1.6179,-1.6183,-1.6174,-1.6174,-1.6181,-1.6161,-1.6174,-1.6166,-1.6194,-1.6185,-1.5968,-1.577,-1.5751,-1.5462,-1.5254,-1.5326,-1.5688,-1.5961,-1.5928,-1.5947,-1.5975,-1.587,-1.5546,-1.5231,-1.5226,-1.5197,-1.5171,-1.5155,-1.5173,-1.5168,-1.5133,-1.5132,-1.5049,-1.497,-1.4925,-1.484,-1.4595,-1.399,-1.3169,-1.2253,-1.1415,-1.0615,-0.9932,-0.9869,-1.0052,-0.9984,-1.113,-1.1828,-1.1871,-1.1852,-1.1423,-1.0997,-1.0497,-0.9101,-0.8739,-0.8729,-0.8557,-0.7069,-0.6038,-0.5645,-0.3953,-0.3706,-0.345,-0.2696,-0.2147,-0.1546,-2.2625,-2.2546,-2.2274,-2.1997,-2.1696,-2.1385,-2.0958,-2.0526,-2.1011,-2.0917,-2.072,-2.1894,-2.1681,-2.0707,-2.184,-2.2311,-2.2158,-2.262,-2.2605,-2.2138,-2.2612,-2.24,-2.1679,-2.1583,-2.1421,-2.1097,-2.1007,-2.0926,-2.0785,-1.9819,-1.8854,-1.8051,-1.75,-1.7167,-1.7118,-1.6892,-1.6856,-1.7136,-1.7405,-1.7121,-1.6638,-1.6564,-1.6196,-1.539,-1.5124,-1.5056,-1.5105,-1.5105,-1.5105,-1.5116,-1.5094,-1.5115,-1.5149,-1.5115,-1.5096,-1.5111,-1.5115,-1.5091,-1.5148,-1.5124,-1.5163,-1.5217,-1.5168,-1.5202,-1.5521,-1.6038,-1.6366,-1.6541,-1.6615,-1.6564,-1.6166,-1.5721,-1.5342,-1.516,-1.5041,-1.5018,-1.5031,-1.4986,-1.4947,-1.4908,-1.486,-1.4812,-1.4776,-1.4729,-1.4639,-1.4478,-1.3819,-1.3053,-1.2448,-1.1432,-1.0767,-1.0358,-1.0166,-1.0131,-1.0141,-1.0922,-1.1031,-1.1037,-1.1027,-1.074,-1.058,-1.0077,-0.9744,-0.9572,-0.9549,-0.962,-0.9053,-0.7894,-0.6211,-0.4197,-0.353,-0.3414,-0.2674,-0.1918,-0.1394,-2.1681,-2.1596,-2.0781,-2.0977,-2.1424,-2.0798,-2.0399,-2.0334,-2.0354,-2.0386,-2.045,-2.1246,-2.1118,-2.0603,-2.1201,-2.1174,-2.0877,-2.1984,-2.186,-2.0766,-2.1936,-2.2158,-2.1408,-2.1372,-2.1786,-2.2334,-2.1023,-2.113,-2.2124,-1.9745,-1.8505,-1.8439,-1.7269,-1.6673,-1.6276,-1.5879,-1.5609,-1.6036,-1.5847,-1.6017,-1.6891,-1.5976,-1.5562,-1.5788,-1.5188,-1.4832,-1.4902,-1.4902,-1.4919,-1.4919,-1.4889,-1.4926,-1.4967,-1.494,-1.4911,-1.4904,-1.4851,-1.4812,-1.4822,-1.4814,-1.4885,-1.497,-1.4943,-1.5228,-1.591,-1.62,-1.6536,-1.7089,-1.7168,-1.6888,-1.6239,-1.5977,-1.5601,-1.502,-1.4839,-1.485,-1.4852,-1.4774,-1.4681,-1.4643,-1.461,-1.4501,-1.4515,-1.4519,-1.4478,-1.4294,-1.3717,-1.315,-1.2855,-1.1758,-1.1244,-1.1437,-1.1109,-1.0627,-1.0637,-1.0656,-1.0223,-0.9905,-0.9878,-0.9758,-0.9897,-0.9609,-0.9445,-0.9317,-0.9622,-0.9652,-0.8872,-0.7787,-0.6962,-0.5344,-0.4593,-0.3425,-0.2568,-0.1852,-0.1413,-2.0746,-2.0714,-2.047,-2.047,-2.0701,-2.0456,-2.0327,-2.0301,-2.0301,-2.0301,-2.0352,-2.0583,-2.0557,-2.0407,-2.0604,-2.0531,-2.0285,-2.0804,-2.0719,-2.0411,-2.0817,-2.0924,-2.0674,-2.0628,-2.1032,-2.1857,-2.2505,-2.228,-2.1643,-2.107,-2.0248,-1.8745,-1.8082,-1.7524,-1.6958,-1.6694,-1.6505,-1.6145,-1.6896,-1.7079,-1.6552,-1.6867,-1.6738,-1.5929,-1.5501,-1.512,-1.4592,-1.4698,-1.4766,-1.4757,-1.4757,-1.4765,-1.4774,-1.4738,-1.4701,-1.4747,-1.4738,-1.4729,-1.4738,-1.4719,-1.4729,-1.4794,-1.4747,-1.5071,-1.5755,-1.6335,-1.6879,-1.7463,-1.7552,-1.7391,-1.7219,-1.6666,-1.5912,-1.4802,-1.468,-1.4707,-1.4688,-1.4668,-1.465,-1.4641,-1.4574,-1.4522,-1.4476,-1.4446,-1.4338,-1.4227,-1.3624,-1.3154,-1.2824,-1.2086,-1.1335,-1.1518,-1.124,-1.1126,-1.1019,-1.066,-1.01,-0.9731,-0.9518,-0.9385,-0.9421,-0.9418,-0.9227,-0.9245,-0.9568,-0.9414,-0.8614,-0.7838,-0.7078,-0.5984,-0.471,-0.3574,-0.2525,-0.189,-0.1459,-2.0295,-2.0295,-2.0301,-2.0288,-2.0295,-2.0301,-2.0287,-2.0299,-2.0292,-2.0284,-2.0277,-2.025,-2.0262,-2.0273,-2.0277,-2.0197,-2.0087,-2.0079,-2.0041,-2.005,-2.0171,-2.0182,-2.0184,-2.0432,-2.0925,-2.1601,-2.2424,-2.2382,-2.151,-2.1253,-2.0425,-1.9044,-1.8528,-1.8075,-1.7516,-1.7207,-1.6725,-1.6405,-1.7082,-1.711,-1.6428,-1.6706,-1.6555,-1.5601,-1.5162,-1.4746,-1.4325,-1.4384,-1.4482,-1.4566,-1.4595,-1.4595,-1.4585,-1.4534,-1.4541,-1.4589,-1.456,-1.4541,-1.4552,-1.4497,-1.4515,-1.4556,-1.4749,-1.5203,-1.5913,-1.667,-1.7348,-1.7925,-1.8138,-1.7954,-1.7377,-1.7282,-1.6395,-1.5044,-1.4982,-1.4823,-1.4621,-1.4515,-1.4497,-1.4485,-1.4429,-1.4368,-1.4331,-1.4293,-1.4221,-1.4065,-1.3769,-1.3446,-1.3108,-1.249,-1.2196,-1.1855,-1.1521,-1.1399,-1.1244,-1.072,-1.006,-0.97,-0.9401,-0.9343,-0.9331,-0.9331,-0.9221,-0.9278,-0.9486,-0.9574,-0.8915,-0.8199,-0.7396,-0.6102,-0.5097,-0.4076,-0.3171,-0.2129,-0.1601,-2.0294,-2.0294,-2.0294,-2.0306,-2.028,-2.0306,-2.025,-2.0249,-2.0269,-2.0225,-2.018,-2.0143,-2.0143,-2.0152,-2.0144,-2.005,-1.9922,-1.9869,-1.9813,-1.9813,-1.996,-2.003,-2.0004,-2.0471,-2.0979,-2.1428,-2.1315,-2.1269,-2.126,-2.0378,-1.9431,-1.9217,-1.8581,-1.8119,-1.7917,-1.7224,-1.6907,-1.6676,-1.6586,-1.6554,-1.634,-1.5727,-1.5236,-1.5064,-1.4483,-1.4136,-1.4074,-1.4038,-1.4149,-1.4362,-1.4411,-1.4411,-1.4417,-1.4405,-1.4393,-1.4387,-1.4306,-1.4293,-1.426,-1.4203,-1.4248,-1.4485,-1.4936,-1.5666,-1.6484,-1.7102,-1.7699,-1.8377,-1.8539,-1.8108,-1.7162,-1.7211,-1.6931,-1.5793,-1.5424,-1.5137,-1.4446,-1.4362,-1.435,-1.4234,-1.419,-1.4145,-1.4082,-1.4054,-1.4023,-1.4009,-1.3924,-1.3796,-1.3616,-1.3119,-1.3084,-1.267,-1.2111,-1.1809,-1.1684,-1.0937,-1.0255,-0.9634,-0.9304,-0.9112,-0.9189,-0.9218,-0.9313,-0.935,-0.9359,-0.9426,-0.936,-0.8704,-0.8105,-0.732,-0.6225,-0.4985,-0.374,-0.258,-0.1322,-2.0292,-2.0292,-2.0296,-2.023,-2.0169,-2.0211,-2.0115,-1.9971,-2.0041,-2.0021,-1.995,-1.9909,-1.988,-1.9828,-1.9836,-1.9771,-1.9712,-1.9663,-1.9688,-1.9645,-1.9682,-1.9707,-1.9645,-1.9825,-2.0019,-2.0196,-2.0496,-2.04,-1.9898,-1.9975,-1.9691,-1.9049,-1.8779,-1.8637,-1.8568,-1.8318,-1.7908,-1.7341,-1.7235,-1.6901,-1.6355,-1.604,-1.56,-1.5004,-1.473,-1.4313,-1.3888,-1.3786,-1.3963,-1.4306,-1.4324,-1.4324,-1.4299,-1.4268,-1.4224,-1.4211,-1.4195,-1.4154,-1.4159,-1.4094,-1.4264,-1.4811,-1.507,-1.5638,-1.6923,-1.7168,-1.7602,-1.8012,-1.7837,-1.7598,-1.7563,-1.7392,-1.6746,-1.6043,-1.5615,-1.5152,-1.4445,-1.4237,-1.4198,-1.4068,-1.3995,-1.3923,-1.3818,-1.3741,-1.3711,-1.3696,-1.3665,-1.3603,-1.3486,-1.3388,-1.3186,-1.3174,-1.279,-1.2438,-1.1988,-1.1204,-1.0449,-0.9678,-0.9208,-0.8771,-0.8912,-0.9088,-0.9257,-0.9412,-0.9295,-0.9323,-0.9583,-0.943,-0.8889,-0.8193,-0.736,-0.6098,-0.4171,-0.2698,-0.1092,-2.0152,-2.0225,-2.018,-2.0135,-2.0069,-2.0097,-1.9992,-1.9832,-1.9873,-1.9843,-1.9762,-1.975,-1.9719,-1.9651,-1.9645,-1.9561,-1.9499,-1.9444,-1.9387,-1.9346,-1.9346,-1.9357,-1.9387,-1.9405,-1.9448,-1.9601,-1.9794,-1.9697,-1.9435,-1.9579,-1.9237,-1.8842,-1.8752,-1.8698,-1.8533,-1.8587,-1.8177,-1.7466,-1.7518,-1.7304,-1.653,-1.6078,-1.5695,-1.5072,-1.4607,-1.3921,-1.3559,-1.3603,-1.3771,-1.3963,-1.4023,-1.4009,-1.3995,-1.3963,-1.3949,-1.3977,-1.4217,-1.4418,-1.4521,-1.4636,-1.4945,-1.5297,-1.547,-1.5978,-1.6666,-1.6978,-1.7366,-1.7664,-1.7381,-1.7403,-1.7463,-1.7208,-1.6661,-1.5956,-1.5609,-1.5023,-1.4073,-1.3945,-1.3902,-1.3833,-1.3806,-1.3726,-1.3601,-1.3539,-1.3523,-1.3507,-1.3507,-1.3427,-1.3345,-1.3278,-1.3176,-1.3088,-1.2946,-1.2508,-1.2079,-1.1397,-1.0431,-0.9655,-0.8869,-0.8469,-0.8522,-0.8756,-0.8889,-0.9026,-0.9097,-0.9194,-0.9349,-0.9447,-0.9132,-0.8489,-0.7977,-0.7003,-0.5137,-0.175,-0.0276,-1.9958,-2.005,-2.002,-1.9981,-1.9941,-1.9952,-1.9873,-1.9732,-1.9732,-1.9713,-1.963,-1.9649,-1.9559,-1.9559,-1.9444,-1.9354,-1.9259,-1.9209,-1.9117,-1.9052,-1.9018,-1.9067,-1.9164,-1.9146,-1.9271,-1.9467,-1.9112,-1.9163,-1.9151,-1.8808,-1.8575,-1.8485,-1.8465,-1.8385,-1.8287,-1.8229,-1.7759,-1.7329,-1.742,-1.7258,-1.6516,-1.5801,-1.5221,-1.4961,-1.393,-1.3428,-1.3329,-1.3445,-1.3592,-1.3641,-1.362,-1.365,-1.3636,-1.362,-1.3619,-1.3804,-1.4273,-1.4724,-1.4966,-1.5332,-1.5794,-1.5797,-1.618,-1.6475,-1.6603,-1.6924,-1.7214,-1.7392,-1.7426,-1.7104,-1.6842,-1.6826,-1.6479,-1.5798,-1.5522,-1.4785,-1.3939,-1.3575,-1.3539,-1.3508,-1.3508,-1.3492,-1.3476,-1.346,-1.3394,-1.302,-1.3039,-1.2967,-1.2895,-1.2857,-1.282,-1.282,-1.263,-1.2427,-1.2019,-1.1563,-1.0534,-0.9568,-0.8617,-0.8093,-0.8061,-0.8214,-0.8335,-0.8445,-0.8507,-0.8622,-0.8744,-0.8781,-0.8769,-0.8163,-0.7258,-0.6911,-0.6018,-0.1327,0.144,-1.9843,-1.9855,-1.9836,-1.9743,-1.9645,-1.9719,-1.9593,-1.9353,-1.9452,-1.9423,-1.9323,-1.924,-1.9243,-1.9214,-1.9148,-1.9049,-1.8998,-1.8964,-1.8913,-1.8843,-1.8788,-1.8752,-1.877,-1.8789,-1.8804,-1.8812,-1.8706,-1.8612,-1.8563,-1.8505,-1.8325,-1.8277,-1.8239,-1.8176,-1.8134,-1.8023,-1.7936,-1.7562,-1.7238,-1.687,-1.6352,-1.5241,-1.4538,-1.4352,-1.3567,-1.3186,-1.3137,-1.3173,-1.3427,-1.3735,-1.3717,-1.3661,-1.3678,-1.3629,-1.3629,-1.3802,-1.4212,-1.4585,-1.4669,-1.5238,-1.5707,-1.6153,-1.6304,-1.6535,-1.7001,-1.702,-1.7126,-1.7077,-1.6668,-1.6366,-1.6203,-1.598,-1.5873,-1.5577,-1.5043,-1.4373,-1.3606,-1.326,-1.3137,-1.2967,-1.2913,-1.2838,-1.2703,-1.2706,-1.2649,-1.2517,-1.2478,-1.242,-1.24,-1.24,-1.2404,-1.2423,-1.2169,-1.1915,-1.1608,-1.1026,-0.9924,-0.9125,-0.831,-0.7569,-0.7527,-0.7444,-0.7503,-0.7692,-0.7934,-0.8023,-0.8033,-0.8209,-0.8215,-0.7346,-0.6335,-0.549,-0.3786,0.0176,0.2501,-1.9599,-1.965,-1.9638,-1.9559,-1.9476,-1.9532,-1.9419,-1.9248,-1.9261,-1.9248,-1.9152,-1.9101,-1.9069,-1.9018,-1.8949,-1.8931,-1.8896,-1.8807,-1.8715,-1.8658,-1.862,-1.8563,-1.8485,-1.8487,-1.8467,-1.8426,-1.8408,-1.8328,-1.8284,-1.8205,-1.818,-1.8151,-1.8091,-1.8048,-1.7971,-1.7825,-1.767,-1.7466,-1.704,-1.656,-1.5981,-1.5043,-1.3929,-1.3521,-1.3027,-1.2848,-1.2906,-1.2922,-1.3308,-1.3768,-1.3897,-1.3935,-1.4154,-1.4182,-1.4143,-1.4276,-1.4821,-1.518,-1.5354,-1.5796,-1.6318,-1.6522,-1.6523,-1.6596,-1.6744,-1.6763,-1.6763,-1.67,-1.6476,-1.6171,-1.6164,-1.6164,-1.5969,-1.539,-1.4887,-1.4117,-1.3245,-1.3057,-1.3012,-1.2742,-1.263,-1.2588,-1.2467,-1.2246,-1.2266,-1.2316,-1.2092,-1.2046,-1.1999,-1.1999,-1.1978,-1.19,-1.165,-1.138,-1.1123,-1.0361,-0.9114,-0.8415,-0.7858,-0.7175,-0.6792,-0.667,-0.6564,-0.6816,-0.7073,-0.7136,-0.7198,-0.7395,-0.7004,-0.59,-0.4744,-0.3616,-0.1824,0.1052,0.2783,-1.9335,-1.9442,-1.938,-1.9365,-1.935,-1.9365,-1.9274,-1.9186,-1.9168,-1.9119,-1.9052,-1.9052,-1.8984,-1.8913,-1.8878,-1.8878,-1.8806,-1.8696,-1.8582,-1.8485,-1.8485,-1.8426,-1.8307,-1.8246,-1.8246,-1.8266,-1.8266,-1.8222,-1.8172,-1.813,-1.8091,-1.807,-1.8027,-1.7961,-1.7849,-1.7574,-1.7384,-1.7254,-1.6952,-1.6424,-1.5743,-1.4929,-1.3935,-1.2848,-1.276,-1.2784,-1.2875,-1.2971,-1.3308,-1.4108,-1.4235,-1.4593,-1.4913,-1.4892,-1.4847,-1.4826,-1.536,-1.5604,-1.571,-1.633,-1.6788,-1.6757,-1.6638,-1.6523,-1.6409,-1.6371,-1.6371,-1.6371,-1.6289,-1.6316,-1.6538,-1.6391,-1.6009,-1.5472,-1.4995,-1.4142,-1.3117,-1.3066,-1.2899,-1.2334,-1.2077,-1.2009,-1.203,-1.1924,-1.2024,-1.203,-1.1794,-1.1592,-1.152,-1.1432,-1.1328,-1.1179,-1.0866,-1.0607,-1.0334,-0.9863,-0.8596,-0.7762,-0.7292,-0.6657,-0.607,-0.575,-0.5672,-0.5937,-0.6142,-0.6036,-0.5791,-0.5546,-0.4991,-0.4097,-0.2628,-0.0941,0.0556,0.1989,0.3435,-1.9216,-1.9248,-1.9232,-1.9198,-1.9146,-1.9146,-1.9117,-1.9053,-1.9035,-1.8983,-1.893,-1.8914,-1.8914,-1.8878,-1.8843,-1.8752,-1.8622,-1.8506,-1.8408,-1.8328,-1.8307,-1.8246,-1.8117,-1.7949,-1.7927,-1.8095,-1.8095,-1.8031,-1.8027,-1.8027,-1.7961,-1.7983,-1.79,-1.7833,-1.7676,-1.7502,-1.7183,-1.7027,-1.6738,-1.6253,-1.5562,-1.479,-1.391,-1.2718,-1.2873,-1.3059,-1.3168,-1.3434,-1.3991,-1.4901,-1.5352,-1.5653,-1.5661,-1.5152,-1.4782,-1.4861,-1.5173,-1.5464,-1.5474,-1.5871,-1.6212,-1.6246,-1.6219,-1.6219,-1.6207,-1.6194,-1.6123,-1.6095,-1.6052,-1.6024,-1.6026,-1.5968,-1.5767,-1.5373,-1.5081,-1.4602,-1.37,-1.3104,-1.2535,-1.1641,-1.1454,-1.1415,-1.149,-1.1475,-1.1386,-1.1281,-1.1001,-1.0763,-1.061,-1.0489,-1.0368,-1.0207,-1.002,-0.9754,-0.9484,-0.9007,-0.8208,-0.724,-0.6604,-0.5943,-0.537,-0.4854,-0.4749,-0.4554,-0.447,-0.433,-0.405,-0.3724,-0.3008,-0.2157,-0.0207,0.188,0.2905,0.3984,0.5835,-1.9152,-1.9135,-1.9153,-1.9119,-1.9084,-1.9067,-1.9035,-1.8984,-1.8948,-1.8931,-1.8914,-1.8896,-1.8843,-1.8752,-1.8715,-1.8547,-1.8333,-1.827,-1.8125,-1.7997,-1.7915,-1.7888,-1.7811,-1.7612,-1.7549,-1.7572,-1.7549,-1.7658,-1.7789,-1.7704,-1.7635,-1.7472,-1.7384,-1.7313,-1.7223,-1.6937,-1.68,-1.6628,-1.637,-1.5902,-1.5206,-1.4449,-1.365,-1.335,-1.3227,-1.3424,-1.3518,-1.363,-1.4203,-1.4952,-1.5323,-1.5668,-1.5744,-1.5537,-1.5056,-1.5154,-1.5293,-1.5354,-1.5302,-1.5634,-1.5767,-1.5797,-1.5797,-1.5797,-1.5841,-1.5812,-1.5797,-1.5653,-1.5477,-1.5359,-1.5328,-1.5314,-1.5193,-1.5027,-1.4783,-1.4228,-1.3517,-1.2867,-1.1998,-1.1109,-1.1072,-1.1099,-1.1071,-1.0977,-1.0763,-1.0532,-1.0247,-0.9983,-0.9727,-0.961,-0.9482,-0.9183,-0.8935,-0.8453,-0.8133,-0.7681,-0.7282,-0.649,-0.5737,-0.5104,-0.431,-0.3618,-0.2958,-0.2507,-0.247,-0.2342,-0.2198,-0.1829,-0.1015,-0.0043,0.1924,0.3696,0.4746,0.608,0.7678,-1.9067,-1.9052,-1.907,-1.907,-1.9053,-1.9001,-1.8966,-1.8966,-1.8931,-1.8896,-1.8861,-1.8806,-1.8696,-1.8565,-1.843,-1.8232,-1.7941,-1.7975,-1.78,-1.7641,-1.7595,-1.7519,-1.7384,-1.7264,-1.7216,-1.7191,-1.7002,-1.7076,-1.7361,-1.7337,-1.7183,-1.7068,-1.6866,-1.6805,-1.6767,-1.6575,-1.6355,-1.6181,-1.5968,-1.5469,-1.4673,-1.4023,-1.3591,-1.3557,-1.3642,-1.3794,-1.3882,-1.4135,-1.4498,-1.4935,-1.5131,-1.5201,-1.562,-1.5433,-1.527,-1.5419,-1.5536,-1.5521,-1.5418,-1.5344,-1.5403,-1.5463,-1.5463,-1.5463,-1.5389,-1.5374,-1.5285,-1.5074,-1.4996,-1.4887,-1.4918,-1.4839,-1.4732,-1.4515,-1.4141,-1.3605,-1.3097,-1.2532,-1.1851,-1.1258,-1.0965,-1.0646,-1.0491,-1.0335,-1.011,-0.9778,-0.9518,-0.9215,-0.8973,-0.8772,-0.8585,-0.8203,-0.7749,-0.7106,-0.6635,-0.6111,-0.577,-0.5287,-0.4569,-0.392,-0.2993,-0.21,-0.1508,-0.094,-0.0137,-0.0025,0.0,0.0317,0.1363,0.2616,0.422,0.5331,0.6052,0.7192,0.8694,-1.8966,-1.8913,-1.8913,-1.8913,-1.8913,-1.8913,-1.8896,-1.8896,-1.8896,-1.8878,-1.8769,-1.8581,-1.8445,-1.8328,-1.8057,-1.7883,-1.7794,-1.7681,-1.7509,-1.7361,-1.7337,-1.7288,-1.7167,-1.6901,-1.6917,-1.6866,-1.667,-1.6722,-1.6901,-1.6892,-1.6841,-1.6763,-1.6712,-1.6738,-1.6565,-1.6349,-1.6285,-1.6145,-1.5926,-1.5298,-1.4383,-1.3855,-1.3515,-1.3439,-1.3768,-1.4167,-1.4225,-1.4544,-1.4994,-1.5067,-1.4945,-1.4805,-1.4752,-1.4456,-1.4259,-1.4342,-1.4658,-1.5088,-1.498,-1.5025,-1.5086,-1.5208,-1.5193,-1.5163,-1.4982,-1.4831,-1.4786,-1.5118,-1.489,-1.4672,-1.456,-1.4669,-1.4452,-1.4117,-1.3729,-1.3348,-1.2926,-1.2304,-1.1623,-1.1042,-1.0653,-1.0097,-0.974,-0.9569,-0.9408,-0.9101,-0.8761,-0.8473,-0.8114,-0.7809,-0.7531,-0.7104,-0.6627,-0.6005,-0.525,-0.4703,-0.4199,-0.3891,-0.3203,-0.2557,-0.1713,-0.0826,-0.019,0.0459,0.1363,0.2311,0.2578,0.3093,0.396,0.4837,0.5891,0.654,0.7102,0.8359,0.9604,-1.8547,-1.8567,-1.8679,-1.8734,-1.8734,-1.8843,-1.8878,-1.8861,-1.877,-1.8677,-1.8563,-1.8368,-1.8205,-1.7992,-1.7772,-1.7572,-1.7415,-1.732,-1.715,-1.6993,-1.6942,-1.6892,-1.6738,-1.6623,-1.6596,-1.649,-1.6367,-1.6313,-1.6421,-1.6474,-1.6463,-1.6301,-1.6274,-1.6191,-1.6231,-1.6077,-1.5966,-1.5839,-1.5667,-1.5286,-1.4717,-1.437,-1.4097,-1.3772,-1.4112,-1.427,-1.4412,-1.4536,-1.4746,-1.47,-1.4497,-1.4388,-1.4246,-1.4084,-1.3934,-1.3835,-1.4065,-1.4369,-1.4543,-1.4714,-1.4839,-1.4871,-1.4794,-1.4543,-1.4292,-1.4057,-1.3946,-1.4006,-1.3842,-1.3789,-1.3769,-1.3735,-1.3589,-1.334,-1.3157,-1.2847,-1.2449,-1.2047,-1.1444,-1.09,-1.0278,-0.9709,-0.9155,-0.8904,-0.8716,-0.8407,-0.8023,-0.7598,-0.7091,-0.6537,-0.6227,-0.5891,-0.5415,-0.4878,-0.4066,-0.3368,-0.2687,-0.2202,-0.1343,-0.0757,-0.0263,0.0425,0.1069,0.1873,0.2769,0.3749,0.4714,0.5152,0.5375,0.6293,0.7333,0.7766,0.8193,0.8914,1.002,-1.8035,-1.81,-1.8353,-1.8489,-1.8489,-1.8639,-1.8659,-1.8658,-1.8471,-1.8353,-1.8191,-1.8001,-1.7738,-1.7526,-1.7361,-1.7175,-1.696,-1.696,-1.6799,-1.6633,-1.6517,-1.649,-1.6425,-1.6316,-1.6207,-1.6067,-1.5868,-1.5811,-1.5811,-1.5883,-1.5854,-1.5856,-1.5926,-1.5784,-1.5697,-1.5653,-1.5595,-1.5389,-1.5255,-1.4984,-1.4651,-1.4648,-1.4414,-1.4264,-1.4254,-1.43,-1.43,-1.4332,-1.4319,-1.4241,-1.4098,-1.3967,-1.3822,-1.3622,-1.3501,-1.3446,-1.3568,-1.3735,-1.4013,-1.4254,-1.4479,-1.4415,-1.4241,-1.3881,-1.3715,-1.3365,-1.3251,-1.3353,-1.316,-1.2988,-1.2791,-1.2814,-1.2766,-1.2614,-1.2366,-1.2079,-1.1813,-1.148,-1.1111,-1.057,-0.9974,-0.9303,-0.8787,-0.8338,-0.7999,-0.7733,-0.7299,-0.6768,-0.6129,-0.5473,-0.513,-0.4872,-0.4278,-0.3731,-0.2957,-0.2145,-0.1427,-0.0664,0.0166,0.0796,0.1092,0.1718,0.2466,0.3297,0.4092,0.4896,0.5678,0.6172,0.6661,0.7377,0.8051,0.8729,0.93,0.988,1.0223,-1.7443,-1.7515,-1.7936,-1.8132,-1.8132,-1.8107,-1.8086,-1.8111,-1.801,-1.7885,-1.7687,-1.7358,-1.7052,-1.6815,-1.6815,-1.6738,-1.6649,-1.6649,-1.6543,-1.6463,-1.6398,-1.6316,-1.6179,-1.6026,-1.587,-1.5696,-1.5477,-1.524,-1.5104,-1.5209,-1.5418,-1.577,-1.5654,-1.5551,-1.5433,-1.5299,-1.5149,-1.4935,-1.4766,-1.4501,-1.4292,-1.4227,-1.4144,-1.3914,-1.4059,-1.4287,-1.43,-1.4203,-1.4124,-1.3967,-1.3702,-1.3454,-1.3285,-1.3079,-1.2931,-1.2896,-1.3035,-1.3195,-1.3353,-1.3669,-1.3769,-1.3669,-1.3467,-1.3251,-1.3216,-1.2931,-1.2861,-1.2871,-1.2603,-1.2496,-1.2389,-1.2306,-1.2126,-1.1982,-1.1763,-1.1542,-1.1282,-1.1008,-1.0623,-1.0221,-0.957,-0.8812,-0.8134,-0.7629,-0.7087,-0.6762,-0.6237,-0.5683,-0.5179,-0.4587,-0.4237,-0.3884,-0.322,-0.2603,-0.1857,-0.1099,-0.0366,0.0299,0.1064,0.1694,0.2189,0.2922,0.3612,0.4242,0.4941,0.5776,0.6477,0.6798,0.724,0.8037,0.8701,0.9292,0.9673,1.0034,1.0261,-1.7346,-1.7371,-1.7519,-1.7704,-1.7805,-1.7898,-1.7885,-1.7815,-1.7743,-1.7499,-1.7191,-1.691,-1.6712,-1.6607,-1.6581,-1.6543,-1.649,-1.6463,-1.6382,-1.6262,-1.6166,-1.6083,-1.5942,-1.5726,-1.5507,-1.5404,-1.5165,-1.5043,-1.5013,-1.4842,-1.4966,-1.5209,-1.5224,-1.5133,-1.5011,-1.4859,-1.4704,-1.461,-1.442,-1.4208,-1.3901,-1.3848,-1.3749,-1.3459,-1.3459,-1.3628,-1.3594,-1.356,-1.3527,-1.3412,-1.3091,-1.2871,-1.2696,-1.2496,-1.2389,-1.233,-1.2496,-1.2567,-1.2696,-1.3113,-1.3501,-1.316,-1.2859,-1.2555,-1.2496,-1.197,-1.1726,-1.1715,-1.1836,-1.1726,-1.1505,-1.1431,-1.1356,-1.1282,-1.1094,-1.0829,-1.0591,-1.0196,-0.9808,-0.9221,-0.869,-0.8087,-0.7446,-0.6827,-0.6284,-0.5766,-0.5196,-0.4607,-0.4098,-0.3616,-0.3232,-0.2744,-0.2115,-0.1518,-0.0798,-0.0067,0.0701,0.1333,0.1966,0.2491,0.3082,0.3829,0.4483,0.5111,0.5605,0.6182,0.6725,0.72,0.7762,0.835,0.9039,0.9699,1.0008,1.0224,1.0349,-1.7273,-1.7273,-1.7207,-1.7297,-1.7496,-1.7568,-1.7535,-1.7459,-1.7327,-1.7117,-1.6738,-1.657,-1.6506,-1.6506,-1.6479,-1.6452,-1.6344,-1.6316,-1.625,-1.6111,-1.6013,-1.5827,-1.5639,-1.5389,-1.5165,-1.5074,-1.4814,-1.4658,-1.4627,-1.461,-1.4515,-1.4452,-1.4483,-1.4497,-1.4606,-1.4356,-1.4214,-1.4195,-1.4078,-1.3927,-1.3615,-1.3547,-1.3493,-1.3232,-1.3267,-1.3232,-1.3267,-1.3232,-1.3047,-1.2826,-1.2532,-1.2246,-1.2102,-1.1993,-1.1945,-1.1957,-1.1932,-1.1932,-1.2138,-1.2413,-1.2801,-1.2366,-1.2151,-1.1777,-1.1446,-1.1132,-1.118,-1.1057,-1.0992,-1.0802,-1.0649,-1.0514,-1.0389,-1.0234,-0.967,-0.9394,-0.9297,-0.905,-0.8666,-0.8206,-0.7706,-0.7176,-0.6161,-0.5476,-0.4996,-0.454,-0.4161,-0.3538,-0.2903,-0.2449,-0.209,-0.1561,-0.0931,-0.0366,0.02,0.0967,0.17,0.2159,0.2758,0.3249,0.3871,0.4552,0.503,0.5376,0.5867,0.6441,0.7032,0.7589,0.8096,0.8568,0.9251,0.9905,1.0173,1.0338,1.0474,-1.7199,-1.7174,-1.6924,-1.6984,-1.724,-1.7018,-1.6935,-1.6935,-1.6763,-1.6596,-1.6452,-1.6277,-1.6222,-1.6207,-1.6207,-1.6123,-1.6139,-1.6139,-1.6055,-1.5885,-1.5697,-1.558,-1.5315,-1.4998,-1.4721,-1.4564,-1.4342,-1.4163,-1.4084,-1.4046,-1.3894,-1.3815,-1.3868,-1.3947,-1.4222,-1.3848,-1.3615,-1.3547,-1.3493,-1.3391,-1.3357,-1.3207,-1.3082,-1.3047,-1.3025,-1.2943,-1.2908,-1.2838,-1.2662,-1.2354,-1.2138,-1.1836,-1.1579,-1.1516,-1.1516,-1.1516,-1.1516,-1.1516,-1.1505,-1.1553,-1.1542,-1.1494,-1.1394,-1.1169,-1.1057,-1.0916,-1.0774,-1.0582,-1.0649,-1.0331,-0.9981,-0.9619,-0.9421,-0.9133,-0.8561,-0.8269,-0.8253,-0.7952,-0.7597,-0.7314,-0.6848,-0.6198,-0.5017,-0.4057,-0.3617,-0.3239,-0.3048,-0.252,-0.1809,-0.13,-0.0935,-0.05,0.0067,0.0467,0.1033,0.1968,0.2669,0.3093,0.3514,0.4006,0.4456,0.4998,0.5383,0.5665,0.6275,0.699,0.7511,0.8039,0.8428,0.88,0.9396,0.9931,1.0224,1.0462,1.0572,-1.6924,-1.6924,-1.6753,-1.6727,-1.6805,-1.6738,-1.6659,-1.657,-1.6425,-1.6289,-1.625,-1.6083,-1.5998,-1.597,-1.5841,-1.574,-1.574,-1.5624,-1.5536,-1.5477,-1.5255,-1.5013,-1.4752,-1.4533,-1.4324,-1.4163,-1.3947,-1.3861,-1.3894,-1.3741,-1.3661,-1.3615,-1.348,-1.3628,-1.3695,-1.3527,-1.3459,-1.3378,-1.3126,-1.2849,-1.2849,-1.2638,-1.2508,-1.2508,-1.2544,-1.2508,-1.2473,-1.2401,-1.2174,-1.1884,-1.1689,-1.1319,-1.1132,-1.1105,-1.1105,-1.1105,-1.1067,-1.0916,-1.0687,-1.0572,-1.0697,-1.0764,-1.0725,-1.0572,-1.0505,-1.0244,-1.0166,-1.001,-0.9873,-0.9527,-0.9288,-0.8869,-0.8626,-0.8285,-0.7874,-0.7694,-0.7473,-0.7009,-0.6596,-0.6392,-0.6052,-0.4976,-0.3825,-0.2985,-0.2465,-0.1888,-0.1594,-0.1325,-0.0755,-0.0202,0.0235,0.0534,0.0968,0.1303,0.184,0.2636,0.3145,0.3469,0.4031,0.4648,0.5131,0.5508,0.606,0.6518,0.7029,0.753,0.8021,0.8456,0.8701,0.9069,0.9581,1.0021,1.0336,1.0523,1.0645,-1.647,-1.6485,-1.6367,-1.6285,-1.6313,-1.6463,-1.6409,-1.6234,-1.6039,-1.5955,-1.5942,-1.5827,-1.5755,-1.5697,-1.561,-1.5448,-1.5418,-1.5344,-1.5134,-1.5059,-1.4783,-1.4564,-1.4342,-1.4149,-1.4078,-1.3914,-1.3874,-1.3788,-1.3728,-1.3648,-1.348,-1.331,-1.3242,-1.3069,-1.3069,-1.3035,-1.3138,-1.2988,-1.2673,-1.2461,-1.2389,-1.2246,-1.2138,-1.2138,-1.2113,-1.2077,-1.1993,-1.1847,-1.1653,-1.1431,-1.1132,-1.0802,-1.0725,-1.0697,-1.0621,-1.0534,-1.0408,-1.0215,-1.0,-0.9843,-0.9991,-1.0147,-1.004,-0.9804,-0.9646,-0.9328,-0.9257,-0.9105,-0.8903,-0.8724,-0.8521,-0.8144,-0.7716,-0.7377,-0.6868,-0.6645,-0.621,-0.5706,-0.5234,-0.511,-0.4765,-0.3683,-0.2804,-0.2057,-0.1362,-0.0741,-0.0159,0.0075,0.025,0.0705,0.1183,0.1486,0.1876,0.2283,0.2622,0.3147,0.359,0.3861,0.4493,0.5248,0.5578,0.5921,0.6648,0.7255,0.7451,0.7802,0.8439,0.8839,0.9054,0.9339,0.9738,1.0122,1.0422,1.0559,1.0621,-1.5922,-1.5879,-1.5767,-1.571,-1.5767,-1.612,-1.6151,-1.5856,-1.5639,-1.5507,-1.5507,-1.5507,-1.5448,-1.5448,-1.5418,-1.5299,-1.5165,-1.5134,-1.4907,-1.4658,-1.447,-1.4278,-1.413,-1.4,-1.3894,-1.3841,-1.3754,-1.3708,-1.3615,-1.3446,-1.3207,-1.2896,-1.2756,-1.2579,-1.2508,-1.2496,-1.2638,-1.2532,-1.2282,-1.2102,-1.2029,-1.1968,-1.1859,-1.1822,-1.1811,-1.1737,-1.1653,-1.1542,-1.1271,-1.1046,-1.0829,-1.0572,-1.039,-1.0283,-0.9991,-0.9746,-0.9619,-0.9549,-0.9496,-0.9337,-0.9223,-0.9331,-0.9125,-0.8806,-0.8651,-0.8602,-0.8651,-0.8561,-0.8398,-0.8054,-0.7758,-0.7294,-0.6826,-0.6277,-0.5599,-0.5168,-0.4687,-0.4212,-0.373,-0.347,-0.3161,-0.2457,-0.183,-0.1103,-0.061,0.0129,0.0668,0.0987,0.1179,0.1403,0.1832,0.2187,0.2646,0.3246,0.3626,0.4014,0.4271,0.466,0.5131,0.576,0.6032,0.6458,0.715,0.7623,0.7673,0.8016,0.8572,0.9042,0.9402,0.9694,1.0013,1.0136,1.044,1.0424,1.0485,-1.5739,-1.5739,-1.5609,-1.5566,-1.5566,-1.5536,-1.5551,-1.558,-1.5507,-1.5448,-1.5359,-1.5165,-1.5013,-1.4876,-1.4718,-1.4669,-1.456,-1.4465,-1.431,-1.4195,-1.4144,-1.3993,-1.3894,-1.3861,-1.3762,-1.3695,-1.3661,-1.3581,-1.3446,-1.3276,-1.2965,-1.2673,-1.2354,-1.2174,-1.2041,-1.1968,-1.2066,-1.2066,-1.1811,-1.1712,-1.1601,-1.1463,-1.1389,-1.1303,-1.1303,-1.118,-1.1067,-1.0905,-1.0591,-1.0273,-1.038,-1.0157,-0.9417,-0.9607,-0.9588,-0.9248,-0.911,-0.899,-0.896,-0.9006,-0.8893,-0.8422,-0.8156,-0.8204,-0.8162,-0.816,-0.8118,-0.7889,-0.7775,-0.7469,-0.7123,-0.6691,-0.6171,-0.5533,-0.4907,-0.4434,-0.3953,-0.347,-0.2987,-0.2406,-0.2097,-0.1697,-0.1028,-0.0669,-0.0176,0.0746,0.1439,0.181,0.2164,0.2371,0.2494,0.2895,0.3483,0.4082,0.4555,0.495,0.518,0.5497,0.5964,0.6424,0.6844,0.7271,0.7774,0.8099,0.8344,0.8496,0.8684,0.9161,0.9694,0.9992,1.0297,1.0323,1.0392,1.056,1.0792,-1.5344,-1.5315,-1.5269,-1.5224,-1.5179,-1.5011,-1.4996,-1.5104,-1.5104,-1.5059,-1.4951,-1.4766,-1.4578,-1.4483,-1.4369,-1.4287,-1.4195,-1.413,-1.4032,-1.396,-1.3841,-1.3841,-1.3808,-1.3741,-1.3674,-1.3594,-1.348,-1.3378,-1.3173,-1.2861,-1.2508,-1.2126,-1.192,-1.1785,-1.1612,-1.1426,-1.1426,-1.1463,-1.1389,-1.1314,-1.1164,-1.1023,-1.086,-1.0736,-1.0746,-1.0621,-1.0467,-1.0302,-0.9981,-0.9707,-0.9892,-0.9585,-0.9003,-0.9168,-0.9266,-0.8952,-0.8672,-0.8542,-0.8414,-0.8194,-0.8003,-0.7668,-0.7249,-0.7096,-0.7117,-0.7072,-0.7054,-0.7014,-0.6943,-0.6842,-0.6488,-0.6089,-0.5523,-0.496,-0.4409,-0.3917,-0.3429,-0.2987,-0.2361,-0.1649,-0.1248,-0.0937,-0.058,-0.0223,0.0357,0.1375,0.2209,0.2857,0.3135,0.3337,0.3396,0.3544,0.4262,0.4969,0.5392,0.585,0.6087,0.6435,0.6923,0.7361,0.7705,0.7952,0.8323,0.8742,0.9156,0.9274,0.9381,0.9642,1.0062,1.0397,1.0753,1.096,1.1114,1.132,1.1548,-1.4808,-1.4808,-1.4763,-1.4808,-1.4732,-1.4578,-1.4501,-1.447,-1.4501,-1.447,-1.4452,-1.4351,-1.4287,-1.4222,-1.4189,-1.4124,-1.4013,-1.3947,-1.3848,-1.3775,-1.3708,-1.3674,-1.3607,-1.3687,-1.3425,-1.3357,-1.3254,-1.3035,-1.272,-1.2401,-1.1993,-1.1516,-1.1479,-1.1351,-1.1109,-1.0937,-1.0899,-1.086,-1.0822,-1.0746,-1.086,-1.0833,-1.0746,-1.0621,-1.0505,-1.0341,-1.0186,-0.9952,-0.9677,-0.9417,-0.9238,-0.9037,-0.8939,-0.8727,-0.8789,-0.858,-0.8197,-0.7928,-0.7756,-0.7506,-0.7224,-0.6906,-0.6514,-0.6283,-0.6231,-0.622,-0.6241,-0.6167,-0.6108,-0.5901,-0.5559,-0.5324,-0.4861,-0.4387,-0.3865,-0.3347,-0.2812,-0.2233,-0.1428,-0.0892,-0.067,-0.0357,-0.0045,0.0313,0.1068,0.2049,0.2893,0.3642,0.4152,0.4375,0.443,0.4432,0.4968,0.5674,0.6157,0.6554,0.6951,0.7342,0.7768,0.8067,0.8237,0.8511,0.8834,0.9249,0.968,1.0005,1.0192,1.0301,1.0463,1.097,1.1314,1.1615,1.1848,1.2089,1.2323,-1.4808,-1.4777,-1.4641,-1.4529,-1.4415,-1.4383,-1.4337,-1.4351,-1.4163,-1.4117,-1.4117,-1.4098,-1.4013,-1.3974,-1.3974,-1.3894,-1.3861,-1.3828,-1.3708,-1.356,-1.3493,-1.3391,-1.3185,-1.3173,-1.3,-1.2791,-1.2685,-1.2544,-1.2222,-1.192,-1.1653,-1.1479,-1.1266,-1.0995,-1.0843,-1.0669,-1.0515,-1.0409,-1.0196,-1.0351,-1.0631,-1.039,-1.0196,-1.003,-0.9825,-0.9607,-0.9457,-0.9315,-0.8984,-0.8757,-0.8838,-0.8822,-0.8746,-0.8364,-0.8196,-0.8125,-0.7676,-0.7351,-0.7102,-0.6894,-0.6667,-0.6532,-0.6228,-0.5848,-0.5608,-0.5581,-0.5453,-0.5335,-0.5199,-0.4961,-0.4727,-0.4529,-0.4267,-0.3802,-0.3251,-0.2763,-0.2207,-0.1391,-0.0583,-0.0313,-0.0089,0.0223,0.0536,0.1115,0.1868,0.2664,0.3548,0.4343,0.5077,0.5444,0.5567,0.5597,0.5756,0.6295,0.6798,0.716,0.7492,0.7795,0.8161,0.8442,0.8756,0.9262,0.9702,0.9854,1.0144,1.0484,1.0631,1.048,1.0772,1.1382,1.1875,1.2157,1.2685,1.3037,1.3174,-1.4418,-1.4641,-1.4497,-1.4369,-1.43,-1.4208,-1.4144,-1.4144,-1.398,-1.3927,-1.3927,-1.3914,-1.3861,-1.3775,-1.3775,-1.3741,-1.3741,-1.3674,-1.356,-1.3425,-1.3207,-1.3116,-1.2931,-1.2743,-1.2603,-1.2425,-1.2138,-1.1932,-1.1712,-1.1527,-1.1341,-1.1228,-1.0957,-1.0805,-1.0669,-1.0467,-1.0273,-1.0049,-0.9716,-0.9834,-1.0205,-0.9892,-0.9646,-0.9439,-0.9297,-0.9082,-0.9011,-0.8939,-0.868,-0.8341,-0.8253,-0.8247,-0.8187,-0.8041,-0.7888,-0.7679,-0.7318,-0.6726,-0.6555,-0.6302,-0.613,-0.5919,-0.5668,-0.5169,-0.486,-0.4774,-0.4422,-0.4275,-0.4435,-0.4253,-0.4209,-0.4053,-0.3843,-0.3497,-0.2761,-0.2161,-0.1409,-0.0601,-0.0046,0.0224,0.0538,0.0983,0.1385,0.2053,0.276,0.3413,0.4299,0.4947,0.5685,0.6204,0.638,0.655,0.6592,0.6839,0.7252,0.7609,0.7914,0.8238,0.8503,0.8989,0.9469,1.0116,1.0613,1.0547,1.0604,1.0949,1.0998,1.0945,1.1194,1.1768,1.2241,1.2697,1.3251,1.3615,1.3611,-1.4012,-1.4379,-1.4305,-1.4268,-1.4203,-1.4046,-1.3967,-1.3947,-1.3828,-1.3775,-1.3741,-1.3741,-1.3754,-1.3754,-1.3674,-1.3674,-1.3607,-1.3391,-1.3323,-1.3138,-1.2931,-1.272,-1.2567,-1.2484,-1.221,-1.1957,-1.1675,-1.1426,-1.1223,-1.1099,-1.0937,-1.0833,-1.0718,-1.0603,-1.0438,-1.0264,-1.0069,-0.9725,-0.9448,-0.9315,-0.9292,-0.922,-0.9148,-0.9108,-0.9028,-0.8922,-0.8898,-0.8715,-0.8474,-0.822,-0.7882,-0.7791,-0.7741,-0.7695,-0.7586,-0.7355,-0.6691,-0.6226,-0.5995,-0.5612,-0.5374,-0.5062,-0.4802,-0.4535,-0.4274,-0.3968,-0.3614,-0.3503,-0.3614,-0.362,-0.3623,-0.3573,-0.3356,-0.2892,-0.2146,-0.1495,-0.0682,0.0096,0.0422,0.0687,0.1141,0.1594,0.2211,0.2887,0.3585,0.428,0.4918,0.5556,0.6112,0.6459,0.6719,0.693,0.7098,0.7384,0.7641,0.7882,0.8113,0.8569,0.8907,0.9509,1.0049,1.0428,1.0725,1.096,1.11,1.1341,1.1592,1.1685,1.1951,1.2069,1.2436,1.2805,1.3094,1.3446,1.3648,-1.4247,-1.4084,-1.4065,-1.3993,-1.3921,-1.3828,-1.3841,-1.3841,-1.3788,-1.3687,-1.3493,-1.3472,-1.3472,-1.3459,-1.3185,-1.3104,-1.3173,-1.3035,-1.2861,-1.265,-1.2496,-1.2282,-1.2066,-1.1957,-1.1649,-1.1389,-1.1212,-1.1033,-1.0909,-1.0708,-1.0544,-1.0505,-1.0254,-1.0137,-1.0098,-0.9843,-0.9549,-0.9248,-0.893,-0.87,-0.868,-0.8672,-0.8789,-0.8733,-0.8666,-0.857,-0.8409,-0.8246,-0.8108,-0.8004,-0.7847,-0.7619,-0.7512,-0.7384,-0.7281,-0.6817,-0.61,-0.5609,-0.5285,-0.5014,-0.4743,-0.4467,-0.4301,-0.4239,-0.3914,-0.3589,-0.3242,-0.2968,-0.3028,-0.2916,-0.2918,-0.2918,-0.2747,-0.1922,-0.1141,-0.0663,0.0,0.0498,0.0888,0.1221,0.1604,0.2108,0.2719,0.3444,0.4225,0.4924,0.5624,0.6267,0.6753,0.6934,0.7054,0.7321,0.7572,0.7558,0.7682,0.7889,0.817,0.8716,0.9217,0.9734,1.0166,1.039,1.0687,1.1067,1.1367,1.1608,1.1884,1.1968,1.2066,1.2115,1.2532,1.2849,1.3069,1.3335,1.3599]},{"header":{"parameterUnit":"m.s-1","parameterCategory":1,"la1":31.0,"la2":29.5877,"lo1":-88.7671,"lo2":-86.6584,"dy":0.0162,"dx":0.0185,"nx":115,"ny":88,"refTime":"2025-11-07T00:00:00:Z","depth":0,"parameterNumber":3,"parameterNumberName":"V-component_of_WINDS"},"data":[0.0,0.0,0.0,0.0,0.0,0.0,0.0,0.0,0.0,0.0,0.0,0.0,0.0,0.0,0.0,0.0,0.0,0.0,0.0,0.0,0.0,0.0,0.0,0.0,0.0,0.0,0.0,0.0,0.0,0.0,0.0,0.0,0.0,0.0,0.0,0.0,0.0,0.0,0.0,0.0,0.0,0.0,0.0,0.0,0.0,0.0,0.0,0.0,0.0,0.0,0.0,0.0,0.0,0.0,0.0,0.0,0.0,0.0,0.0,0.0,0.0,0.0,0.0,0.0,0.0,0.0,0.0,0.0,0.0,0.0,0.0,0.0,0.0,0.0,0.0,0.0,0.0,0.0,0.0,0.0,0.0,0.0,0.0,0.0,0.0,0.0,0.0,0.0,0.0,0.0,0.0,0.0,0.0,0.0,0.0,0.0,0.0,0.0,0.0,0.0,0.0,0.0,0.0,0.0,0.0,0.0,0.0,0.0,0.0,0.0,0.0,0.0,0.0,0.0,0.0,0.0,0.0,0.0,0.0,0.0,0.0,0.0,0.0,0.0,0.0,0.0,0.0,0.0,0.0,0.0,0.0,0.0,0.0,0.0,0.0,0.0,0.0,0.0,0.0,0.0,0.0,0.0,0.0,0.0,0.0,0.0,0.0,0.0,0.0,0.0,0.0,0.0,0.0,0.0,0.0,0.0,0.0,0.0,0.0,0.0,0.0,0.0,0.0,0.0,0.0,0.0,0.0,0.0,0.0,0.0,0.0,0.0,0.0,0.0,0.0,0.0,0.0,0.0,0.0,0.0,0.0,0.0,0.0,0.0,0.0,0.0,0.0,0.0,0.0,0.0,0.0,0.0,0.0,0.0,0.0,0.0,0.0,0.0,0.0,0.0,0.0,0.0,0.0,0.0,0.0,0.0,0.0,0.0,0.0,0.0,0.0,0.0,0.0,0.0,0.0,0.0,0.0,0.0,0.0,0.0,0.0,0.0,0.0,0.0,0.0,0.0,0.0,0.0,0.0,0.0,0.0,0.0,0.0,0.0,0.0,0.0,0.0,0.0,0.0,0.0,0.0,0.0,0.0,0.0,0.0,0.0,0.0,0.0,0.0,0.0,0.0,0.0,0.0,0.0,0.0,0.0,0.0,0.0,0.0,0.0,0.0,0.0,0.0,0.0,0.0,0.0,0.0,0.0,0.0,0.0,0.0,0.0,0.0,0.0,0.0,0.0,0.0,0.0,0.0,0.0,0.0,0.0,0.0,0.0,0.0,0.0,0.0,0.0,0.0,0.0,0.0,0.0,0.0,0.0,0.0,0.0,0.0,0.0,0.0,0.0,0.0,0.0,0.0,0.0,0.0,0.0,0.0,0.0,0.0,0.0,0.0,0.0,0.0,0.0,0.0,0.0,0.0,0.0,0.0,0.0,0.0,0.0,0.0,0.0,0.0,0.0,0.0,0.0,0.0,0.0,0.0,0.0,0.0,0.0,0.0,0.0,0.0,0.0,0.0,0.0,0.0,0.0,0.0,0.0,0.0,0.0,0.0,0.0,0.0,0.0,0.0,0.0,0.0,0.0,0.0,0.0,0.0,0.0,0.0,0.0,0.0,0.0,0.0,0.0,0.0,0.0,0.0,0.0,0.0,0.0,0.0,0.0,0.0,0.0,0.0,0.0,0.0,0.0,0.0,0.0,0.0,0.0,0.0,0.0,0.0,0.0,0.0,0.0,0.0,0.0,0.0,0.0,0.0,0.0,0.0,0.0,0.0,0.0,0.0,0.0,0.0,0.0,0.0,0.0,0.0,0.0,0.0,0.0,0.0,0.0,0.0,0.0,0.0,0.0,0.0,0.0,0.0,0.0,0.0,0.0,0.0,0.0,0.0,0.0,0.0,0.0,0.0,0.0,0.0,0.0,0.0,0.0,0.0,0.0,0.0,0.0,0.0,0.0,0.0,0.0,0.0,0.0,0.0,0.0,0.0,0.0,0.0,0.0,0.0,0.0,0.0,0.0,0.0,0.0,0.0,0.0,0.0,0.0,0.0,0.0,0.0,0.0,0.0,0.0,0.0,0.0,0.0,0.0,0.0,0.0,0.0,0.0,0.0,0.0,0.0,0.0,0.0,0.0,0.0,0.0,0.0,0.0,0.0,0.0,0.0,0.0,0.0,0.0,0.0,0.0,0.0,0.0,0.0,0.0,0.0,0.0,0.0,0.0,0.0,0.0,0.0,0.0,0.0,0.0,0.0,0.0,0.0,0.0,0.0,0.0,0.0,0.0,0.0,0.0,0.0,0.0,0.0,0.0,0.0,0.0,0.0,0.0,0.0,0.0,0.0,0.0,0.0,0.0,0.0,0.0,0.0,0.0,0.0,0.0,0.0,0.0,0.0,0.0,0.0,0.0,0.0,0.0,0.0,0.0,0.0,0.0,0.0,0.0,0.0,0.0,0.0,0.0,0.0,0.0,0.0,0.0,0.0,0.0,0.0,0.0,0.0,0.0,0.0,0.0,0.0,0.0,0.0,0.0,0.0,0.0,0.0,0.0,0.0,0.0,0.0,0.0,0.0,0.0,0.0,0.0,0.0,0.0,0.0,0.0,0.0,0.0,0.0,0.0,0.0,0.0,0.0,0.0,0.0,0.0,0.0,0.0,0.0,0.0,0.0,0.0,0.0,0.0,0.0,0.0,0.0,0.0,0.0,0.0,0.0,0.0,0.0,0.0,0.0,0.0,0.0,0.0,0.0,0.0,0.0,0.0,0.0,0.0,0.0,0.0,0.0,0.0,0.0,0.0,0.0,0.0,0.0,0.0,0.0,0.0,0.0,0.0,0.0,0.0,0.0,0.0,0.0,0.0,0.0,0.0,0.0,0.0,0.0,0.0,0.0,0.0,0.0,0.0,0.0,0.0,0.0,0.0,0.0,0.0,0.0,0.0,0.0,0.0,0.0,0.0,0.0,0.0,0.0,0.0,0.0,0.0,0.0,0.0,0.0,0.0,0.0,0.0,0.0,0.0,0.0,0.0,0.0,0.0,0.0,0.0,0.0,0.0,0.0,0.0,0.0,0.0,0.0,0.0,0.0,0.0,0.0,0.0,0.0,0.0,0.0,0.0,0.0,0.0,0.0,0.0,0.0,0.0,0.0,0.0,0.0,0.0,0.0,0.0,0.0,0.0,0.0,0.0,0.0,0.0,0.0,0.0,0.0,0.0,0.0,0.0,0.0,0.0,0.0,0.0,0.0,0.0,0.0,0.0,0.0,0.0,0.0,0.0,0.0,0.0,0.0,0.0,0.0,0.0,0.0,0.0,0.0,0.0,0.0,0.0,0.0,0.0,0.0,0.0,0.0,0.0,0.0,0.0,0.0,0.0,0.0,0.0,0.0,0.0,0.0,0.0,0.0,0.0,0.0,0.0,0.0,0.0,0.0,0.0,0.0,0.0,0.0,0.0,0.0,0.0,0.0,0.0,0.0,0.0,0.0,0.0,0.0,0.0,0.0,0.0,0.0,0.0,0.0,0.0,0.0,0.0,0.0,0.0,0.0,0.0,0.0,0.0,0.0,0.0,0.0,0.0,0.0,0.0,0.0,0.0,0.0,0.0,0.0,0.0,0.0,0.0,0.0,0.0,0.0,0.0,0.0,0.0,0.0,0.0,0.0,0.0,0.0,0.0,0.0,0.0,0.0,0.0,0.0,0.0,0.0,0.0,0.0,0.0,0.0,0.0,0.0,0.0,0.0,0.0,0.0,0.0,0.0,0.0,0.0,0.0,0.0,0.0,0.0,0.0,0.0,0.0,0.0,0.0,0.0,0.0,0.0,0.0,0.0,0.0,0.0,0.0,0.0,0.0,0.0,0.0,0.0,0.0,0.0,0.0,0.0,0.0,0.0,0.0,0.0,0.0,0.0,0.0,0.0,0.0,0.0,0.0,0.0,0.0,0.0,0.0,0.0,0.0,0.0,0.0,0.0,0.0,0.0,0.0,0.0,0.0,0.0,0.0,0.0,0.0,0.0,0.0,0.0,0.0,0.0,0.0,0.0,0.0,0.0,0.0,0.0,0.0,0.0,0.0,0.0,0.0,0.0,0.0,0.0,0.0,0.0,0.0,0.0,0.0,0.0,0.0,0.0,0.0,0.0,0.0,0.0,0.0,0.0,0.0,0.0,0.0,0.0,0.0,0.0,0.0,0.0,0.0,0.0,0.0,0.0,0.0,0.0,0.0,0.0,0.0,0.0,0.0,0.0,0.0,0.0,0.0,0.0,0.0,0.0,0.0,0.0,0.0,0.0,0.0,-0.5057,0.0,0.0,0.0,0.0,0.0,0.0,0.0,0.0,0.0,0.0,0.0,0.0,0.0,0.0,0.0,0.0,0.0,0.0,0.0,0.0,0.0,0.0,0.0,0.0,0.0,0.0,0.0,0.0,0.0,0.0,0.0,0.0,0.0,0.0,0.0,0.0,0.0,0.0,0.0,0.0,0.0,0.0,0.0,0.0,0.0,0.0,0.0,0.0,0.0,0.0,0.0,0.0,0.0,0.0,0.0,0.0,0.0,0.0,0.0,0.0,0.0,0.0,0.0,0.0,0.0,0.0,0.0,0.0,0.0,0.0,0.0,0.0,0.0,0.0,0.0,0.0,0.0,0.0,0.0,0.0,0.0,0.0,0.0,0.0,0.0,0.0,0.0,0.0,0.0,0.0,0.0,0.0,0.0,0.0,0.0,0.0,0.0,0.0,0.0,0.0,0.0,0.0,0.0,0.0,0.0,0.0,0.0,0.0,0.0,0.0,-0.5212,-0.5505,-0.5363,-0.5247,-0.5313,0.0,0.0,0.0,0.0,0.0,0.0,0.0,0.0,0.0,0.0,0.0,0.0,0.0,0.0,0.0,0.0,0.0,0.0,0.0,0.0,0.0,0.0,0.0,0.0,0.0,0.0,0.0,0.0,0.0,0.0,0.0,0.0,0.0,0.0,0.0,0.0,0.0,0.0,0.0,0.0,0.0,0.0,0.0,0.0,0.0,0.0,0.0,0.0,0.0,0.0,0.0,0.0,0.0,0.0,0.0,0.0,0.0,0.0,0.0,0.0,0.0,0.0,0.0,0.0,0.0,0.0,0.0,0.0,0.0,0.0,0.0,0.0,0.0,0.0,0.0,0.0,0.0,0.0,0.0,0.0,0.0,0.0,0.0,0.0,0.0,0.0,0.0,0.0,0.0,0.0,0.0,0.0,0.0,0.0,0.0,0.0,0.0,0.0,0.0,0.0,0.0,0.0,0.0,0.0,0.0,0.0,0.0,0.0,0.0,0.0,0.0,0.0,-0.5534,-0.5522,-0.5609,0.0,0.0,0.0,0.0,0.0,0.0,0.0,0.0,0.0,0.0,0.0,0.0,0.0,0.0,0.0,0.0,0.0,0.0,0.0,0.0,0.0,0.0,0.0,0.0,0.0,0.0,0.0,0.0,0.0,0.0,0.0,0.0,0.0,0.0,0.0,0.0,0.0,0.0,0.0,0.0,0.0,0.0,0.0,0.0,0.0,0.0,0.0,0.0,0.0,0.0,0.0,0.0,0.0,0.0,0.0,0.0,0.0,0.0,0.0,0.0,0.0,0.0,0.0,0.0,0.0,0.0,0.0,0.0,0.0,0.0,0.0,0.0,0.0,0.0,0.0,0.0,0.0,0.0,0.0,0.0,0.0,0.0,0.0,0.0,0.0,0.0,0.0,0.0,0.0,0.0,0.0,0.0,0.0,0.0,0.0,0.0,0.0,0.0,0.0,0.0,0.0,0.0,0.0,0.0,0.0,0.0,0.0,0.0,0.0,0.0,-0.587,-0.6059,-0.618,0.0,-0.5959,0.0,0.0,0.0,0.0,0.0,0.0,0.0,0.0,0.0,0.0,0.0,0.0,0.0,0.0,0.0,0.0,0.0,0.0,0.0,0.0,0.0,0.0,0.0,0.0,0.0,0.0,0.0,0.0,0.0,0.0,0.0,0.0,0.0,0.0,0.0,0.0,0.0,0.0,0.0,0.0,0.0,0.0,0.0,0.0,0.0,0.0,0.0,0.0,0.0,0.0,0.0,0.0,0.0,0.0,0.0,0.0,0.0,0.0,0.0,0.0,0.0,0.0,0.0,0.0,0.0,0.0,0.0,0.0,0.0,0.0,0.0,0.0,0.0,0.0,0.0,0.0,0.0,0.0,0.0,0.0,0.0,0.0,0.0,0.0,0.0,0.0,0.0,0.0,0.0,0.0,0.0,0.0,0.0,0.0,0.0,0.0,0.0,0.0,0.0,0.0,0.0,0.0,0.0,0.0,0.0,0.0,0.0,0.0,0.0,0.0,0.0,-0.6337,-0.6506,-0.6427,0.0,0.0,0.0,0.0,0.0,0.0,0.0,0.0,0.0,0.0,0.0,0.0,0.0,0.0,0.0,0.0,0.0,0.0,0.0,0.0,0.0,0.0,0.0,0.0,0.0,0.0,0.0,0.0,0.0,0.0,0.0,0.0,0.0,0.0,0.0,0.0,0.0,0.0,0.0,0.0,0.0,0.0,0.0,0.0,0.0,0.0,0.0,0.0,0.0,0.0,0.0,0.0,0.0,0.0,0.0,0.0,0.0,0.0,0.0,0.0,0.0,0.0,0.0,0.0,0.0,0.0,0.0,0.0,0.0,0.0,0.0,0.0,0.0,0.0,0.0,0.0,0.0,0.0,0.0,0.0,0.0,0.0,0.0,0.0,0.0,0.0,0.0,0.0,0.0,0.0,0.0,0.0,0.0,0.0,0.0,0.0,0.0,0.0,0.0,0.0,0.0,0.0,0.0,0.0,0.0,0.0,0.0,0.0,0.0,0.0,-0.6868,0.0,-0.6761,-0.689,-0.6717,-0.6253,0.0,0.0,0.0,0.0,0.0,0.0,0.0,0.0,0.0,0.0,0.0,0.0,0.0,0.0,0.0,0.0,0.0,0.0,0.0,0.0,0.0,0.0,0.0,0.0,0.0,0.0,0.0,0.0,0.0,0.0,0.0,0.0,0.0,0.0,0.0,0.0,0.0,0.0,0.0,0.0,0.0,0.0,0.0,0.0,0.0,0.0,0.0,0.0,0.0,0.0,0.0,0.0,0.0,0.0,0.0,0.0,0.0,0.0,0.0,0.0,0.0,0.0,0.0,0.0,0.0,0.0,0.0,0.0,0.0,0.0,0.0,0.0,0.0,0.0,0.0,0.0,0.0,0.0,0.0,0.0,0.0,0.0,0.0,0.0,0.0,0.0,0.0,0.0,0.0,0.0,0.0,0.0,0.0,0.0,0.0,0.0,0.0,0.0,0.0,0.0,0.0,0.0,0.0,0.0,0.0,0.0,0.0,0.0,0.0,-0.7197,-0.7186,-0.7435,-0.7493,-0.7265,0.0,0.0,0.0,0.0,0.0,0.0,0.0,0.0,0.0,0.0,0.0,0.0,0.0,0.0,0.0,0.0,0.0,0.0,0.0,0.0,0.0,0.0,0.0,0.0,0.0,0.0,0.0,0.0,0.0,0.0,0.0,0.0,0.0,0.0,0.0,0.0,0.0,0.0,0.0,0.0,0.0,0.0,0.0,0.0,0.0,0.0,0.0,0.0,0.0,0.0,0.0,0.0,0.0,0.0,0.0,0.0,0.0,0.0,0.0,0.0,0.0,0.0,0.0,0.0,0.0,0.0,0.0,0.0,0.0,0.0,0.0,0.0,0.0,0.0,0.0,0.0,0.0,0.0,0.0,0.0,0.0,0.0,0.0,0.0,0.0,0.0,0.0,0.0,0.0,0.0,0.0,0.0,0.0,0.0,0.0,0.0,0.0,0.0,0.0,0.0,0.0,0.0,0.0,0.0,0.0,0.0,0.0,0.0,0.0,-0.7485,-0.7386,-0.7468,-0.7692,-0.7736,-0.7398,0.0,0.0,0.0,0.0,0.0,0.0,0.0,0.0,0.0,0.0,0.0,0.0,0.0,0.0,0.0,0.0,0.0,0.0,0.0,0.0,0.0,0.0,0.0,0.0,0.0,0.0,0.0,0.0,0.0,0.0,0.0,0.0,0.0,0.0,0.0,0.0,0.0,0.0,0.0,0.0,0.0,0.0,0.0,0.0,0.0,0.0,0.0,0.0,0.0,0.0,0.0,0.0,0.0,0.0,0.0,0.0,0.0,0.0,0.0,0.0,0.0,0.0,0.0,0.0,0.0,0.0,0.0,0.0,0.0,0.0,0.0,0.0,0.0,0.0,0.0,0.0,0.0,0.0,0.0,0.0,0.0,0.0,0.0,0.0,0.0,0.0,0.0,0.0,0.0,0.0,0.0,0.0,0.0,0.0,0.0,0.0,0.0,0.0,0.0,0.0,0.0,0.0,0.0,0.0,0.0,0.0,0.0,0.0,0.0,-0.7609,0.0,-0.7752,0.0,-0.7979,-0.7539,0.0,0.0,0.0,0.0,0.0,0.0,0.0,0.0,0.0,0.0,0.0,0.0,0.0,0.0,0.0,0.0,0.0,0.0,0.0,0.0,0.0,0.0,0.0,0.0,0.0,0.0,0.0,0.0,0.0,0.0,0.0,0.0,0.0,0.0,0.0,0.0,0.0,0.0,0.0,0.0,0.0,0.0,0.0,0.0,0.0,0.0,0.0,0.0,0.0,0.0,0.0,0.0,0.0,0.0,0.0,0.0,0.0,0.0,0.0,0.0,0.0,0.0,0.0,0.0,0.0,0.0,0.0,0.0,0.0,0.0,0.0,0.0,0.0,0.0,0.0,0.0,0.0,0.0,0.0,0.0,0.0,0.0,0.0,0.0,0.0,0.0,0.0,0.0,0.0,0.0,0.0,0.0,0.0,0.0,0.0,0.0,0.0,0.0,0.0,0.0,0.0,0.0,0.0,0.0,0.0,0.0,0.0,0.0,0.0,-0.7909,-0.7923,-0.8004,-0.8287,-0.828,-0.7794,0.0,0.0,0.0,0.0,0.0,0.0,0.0,0.0,0.0,0.0,0.0,0.0,0.0,0.0,0.0,0.0,0.0,0.0,0.0,0.0,0.0,0.0,0.0,0.0,0.0,0.0,0.0,0.0,0.0,0.0,0.0,0.0,0.0,0.0,0.0,0.0,0.0,0.0,0.0,0.0,0.0,0.0,0.0,0.0,0.0,0.0,0.0,0.0,0.0,0.0,0.0,0.0,0.0,0.0,0.0,0.0,0.0,0.0,0.0,0.0,0.0,0.0,0.0,0.0,0.0,0.0,0.0,0.0,0.0,0.0,0.0,0.0,0.0,0.0,0.0,0.0,0.0,0.0,0.0,0.0,0.0,0.0,0.0,0.0,0.0,0.0,0.0,0.0,0.0,0.0,0.0,0.0,0.0,0.0,0.0,0.0,0.0,0.0,0.0,0.0,0.0,0.0,0.0,0.0,0.0,0.0,0.0,0.0,0.0,-0.7916,-0.7929,-0.8017,-0.8294,-0.8294,-0.7801,0.0,0.0,0.0,0.0,0.0,0.0,0.0,0.0,0.0,0.0,0.0,0.0,0.0,0.0,0.0,0.0,0.0,0.0,0.0,0.0,0.0,0.0,0.0,0.0,0.0,0.0,0.0,0.0,0.0,0.0,0.0,0.0,0.0,0.0,0.0,0.0,0.0,0.0,0.0,0.0,0.0,0.0,0.0,0.0,0.0,0.0,0.0,0.0,0.0,0.0,0.0,0.0,0.0,0.0,0.0,0.0,0.0,0.0,0.0,0.0,0.0,0.0,0.0,0.0,0.0,0.0,0.0,0.0,0.0,0.0,0.0,0.0,0.0,0.0,0.0,0.0,0.0,0.0,0.0,0.0,0.0,0.0,0.0,0.0,0.0,0.0,0.0,0.0,0.0,0.0,0.0,0.0,0.0,0.0,0.0,0.0,0.0,0.0,0.0,0.0,0.0,0.0,0.0,0.0,0.0,0.0,0.0,0.0,0.0,-0.8076,-0.8096,-0.8139,-0.82,-0.8294,-0.7801,-0.6701,0.0,0.0,0.0,0.0,0.0,0.0,0.0,0.0,0.0,0.0,0.0,0.0,0.0,0.0,0.0,0.0,0.0,0.0,0.0,0.0,0.0,0.0,0.0,0.0,0.0,0.0,0.0,0.0,0.0,0.0,0.0,0.0,0.0,0.0,0.0,0.0,0.0,0.0,0.0,0.0,0.0,0.0,0.0,0.0,0.0,0.0,0.0,0.0,0.0,0.0,0.0,0.0,0.0,0.0,0.0,0.0,0.0,0.0,0.0,0.0,0.0,0.0,0.0,0.0,0.0,0.0,0.0,0.0,0.0,0.0,0.0,0.0,0.0,0.0,0.0,0.0,0.0,0.0,0.0,0.0,0.0,0.0,0.0,0.0,0.0,0.0,0.0,0.0,0.0,0.0,0.0,0.0,0.0,0.0,0.0,0.0,0.0,0.0,0.0,0.0,0.0,0.0,0.0,0.0,0.0,0.0,0.0,0.0,-0.837,-0.839,-0.8313,-0.8181,-0.8275,-0.7771,0.0,0.0,0.0,0.0,0.0,0.0,0.0,0.0,0.0,0.0,0.0,0.0,0.0,0.0,0.0,0.0,0.0,0.0,0.0,0.0,0.0,0.0,0.0,0.0,0.0,0.0,0.0,0.0,0.0,0.0,0.0,0.0,0.0,0.0,0.0,0.0,0.0,0.0,0.0,0.0,0.0,0.0,0.0,0.0,0.0,0.0,0.0,0.0,0.0,0.0,0.0,0.0,0.0,0.0,0.0,0.0,0.0,0.0,0.0,0.0,0.0,0.0,0.0,0.0,0.0,0.0,0.0,0.0,0.0,0.0,0.0,0.0,0.0,0.0,0.0,0.0,0.0,0.0,0.0,0.0,0.0,0.0,0.0,0.0,0.0,0.0,0.0,0.0,0.0,0.0,0.0,0.0,0.0,0.0,0.0,0.0,0.0,0.0,0.0,0.0,0.0,0.0,0.0,0.0,0.0,0.0,0.0,0.0,0.0,-0.825,-0.8461,-0.8637,-0.8769,-0.8484,-0.787,0.0,0.0,0.0,0.0,0.0,0.0,0.0,0.0,0.0,0.0,0.0,0.0,0.0,0.0,0.0,0.0,0.0,0.0,0.0,0.0,0.0,0.0,0.0,0.0,0.0,0.0,0.0,0.0,0.0,0.0,0.0,0.0,0.0,0.0,0.0,0.0,0.0,0.0,0.0,0.0,0.0,0.0,0.0,0.0,0.0,0.0,0.0,0.0,0.0,0.0,0.0,0.0,0.0,0.0,0.0,0.0,0.0,0.0,0.0,0.0,0.0,0.0,0.0,0.0,0.0,0.0,0.0,0.0,0.0,0.0,0.0,0.0,0.0,0.0,0.0,0.0,0.0,0.0,0.0,0.0,0.0,0.0,0.0,0.0,0.0,0.0,0.0,0.0,0.0,0.0,0.0,0.0,0.0,0.0,0.0,0.0,0.0,0.0,0.0,0.0,0.0,0.0,0.0,0.0,0.0,0.0,0.0,0.0,-0.7873,-0.837,-0.8541,-0.8798,-0.9275,-0.865,-0.786,0.0,0.0,0.0,0.0,0.0,0.0,0.0,0.0,0.0,0.0,0.0,0.0,0.0,0.0,0.0,0.0,0.0,0.0,0.0,0.0,0.0,0.0,0.0,0.0,0.0,0.0,0.0,0.0,0.0,0.0,0.0,0.0,0.0,0.0,0.0,0.0,0.0,0.0,0.0,0.0,0.0,0.0,0.0,0.0,0.0,0.0,0.0,0.0,0.0,0.0,0.0,0.0,0.0,0.0,0.0,0.0,0.0,0.0,0.0,0.0,0.0,0.0,0.0,0.0,0.0,0.0,0.0,0.0,0.0,0.0,0.0,0.0,0.0,0.0,0.0,0.0,0.0,0.0,0.0,0.0,0.0,0.0,0.0,0.0,0.0,0.0,0.0,0.0,0.0,0.0,0.0,0.0,0.0,0.0,0.0,0.0,0.0,0.0,0.0,0.0,0.0,0.0,0.0,0.0,0.0,0.0,0.0,0.0,-0.7852,-0.856,-0.8573,-0.8943,-0.9579,-0.8772,-0.7867,0.0,0.0,0.0,0.0,0.0,0.0,0.0,0.0,0.0,0.0,0.0,0.0,0.0,0.0,0.0,0.0,0.0,0.0,0.0,0.0,0.0,0.0,0.0,0.0,0.0,0.0,0.0,0.0,0.0,0.0,0.0,0.0,0.0,0.0,0.0,0.0,0.0,0.0,0.0,0.0,0.0,0.0,0.0,0.0,0.0,0.0,0.0,0.0,0.0,0.0,0.0,0.0,0.0,0.0,0.0,0.0,0.0,0.0,0.0,0.0,0.0,0.0,0.0,0.0,0.0,0.0,0.0,0.0,0.0,0.0,0.0,0.0,0.0,0.0,0.0,0.0,0.0,0.0,0.0,0.0,0.0,0.0,0.0,0.0,0.0,0.0,0.0,0.0,0.0,0.0,0.0,0.0,0.0,0.0,0.0,0.0,0.0,0.0,0.0,0.0,0.0,0.0,0.0,0.0,0.0,0.0,0.0,0.0,-0.771,-0.8402,-0.8474,-0.8695,-0.9263,-0.8662,-0.7965,0.0,0.0,0.0,0.0,0.0,0.0,0.0,0.0,0.0,0.0,0.0,0.0,0.0,0.0,0.0,0.0,0.0,0.0,0.0,0.0,0.0,0.0,0.0,0.0,0.0,0.0,0.0,0.0,0.0,0.0,0.0,0.0,0.0,0.0,0.0,0.0,0.0,0.0,0.0,0.0,0.0,0.0,0.0,0.0,0.0,0.0,0.0,0.0,-1.2811,0.0,0.0,0.0,0.0,0.0,0.0,0.0,0.0,0.0,0.0,0.0,0.0,0.0,0.0,0.0,0.0,0.0,0.0,0.0,0.0,0.0,0.0,0.0,0.0,0.0,0.0,0.0,0.0,0.0,0.0,0.0,0.0,0.0,0.0,0.0,0.0,0.0,0.0,0.0,0.0,0.0,0.0,0.0,0.0,0.0,0.0,0.0,0.0,0.0,0.0,0.0,0.0,0.0,0.0,0.0,0.0,0.0,0.0,0.0,-0.7617,-0.8349,-0.8368,-0.867,-0.9137,-0.8627,-0.8,0.0,0.0,0.0,0.0,0.0,0.0,0.0,0.0,0.0,0.0,0.0,0.0,0.0,0.0,0.0,0.0,0.0,0.0,0.0,0.0,0.0,0.0,0.0,0.0,0.0,0.0,0.0,0.0,0.0,0.0,0.0,0.0,0.0,0.0,0.0,0.0,0.0,0.0,0.0,0.0,0.0,0.0,0.0,0.0,0.0,0.0,0.0,0.0,0.0,0.0,0.0,0.0,0.0,0.0,0.0,0.0,0.0,0.0,0.0,0.0,0.0,0.0,0.0,0.0,0.0,0.0,0.0,0.0,0.0,0.0,0.0,0.0,0.0,0.0,0.0,0.0,0.0,0.0,0.0,0.0,0.0,0.0,0.0,0.0,0.0,0.0,0.0,0.0,0.0,0.0,0.0,0.0,0.0,0.0,0.0,0.0,0.0,0.0,0.0,0.0,0.0,0.0,0.0,0.0,0.0,0.0,0.0,-0.6811,-0.7604,-0.8343,-0.8368,-0.865,-0.9097,-0.8607,-0.8,0.0,0.0,0.0,0.0,0.0,0.0,0.0,0.0,0.0,0.0,0.0,0.0,0.0,0.0,0.0,0.0,0.0,0.0,0.0,0.0,0.0,0.0,0.0,0.0,0.0,0.0,0.0,0.0,0.0,0.0,0.0,0.0,0.0,0.0,0.0,0.0,0.0,0.0,0.0,-0.8822,-0.8917,0.0,0.0,0.0,0.0,0.0,0.0,0.0,0.0,-1.3754,0.0,0.0,0.0,0.0,0.0,0.0,0.0,0.0,0.0,0.0,0.0,0.0,0.0,0.0,0.0,0.0,0.0,0.0,0.0,0.0,0.0,0.0,0.0,0.0,0.0,0.0,0.0,0.0,0.0,0.0,0.0,0.0,0.0,0.0,0.0,0.0,0.0,0.0,0.0,0.0,0.0,0.0,0.0,0.0,0.0,0.0,0.0,0.0,0.0,0.0,0.0,0.0,0.0,0.0,0.0,0.0,-0.6301,-0.6908,-0.761,-0.8349,-0.8368,-0.8559,-0.8858,-0.8497,-0.8046,-0.7496,0.0,0.0,0.0,0.0,0.0,0.0,0.0,0.0,0.0,0.0,0.0,0.0,0.0,0.0,0.0,0.0,0.0,0.0,0.0,0.0,0.0,0.0,0.0,0.0,0.0,0.0,0.0,0.0,0.0,0.0,0.0,0.0,0.0,0.0,0.0,0.0,0.0,0.0,0.0,-0.8949,-0.9495,0.0,0.0,0.0,0.0,0.0,0.0,0.0,0.0,-1.4199,0.0,0.0,0.0,0.0,0.0,0.0,0.0,0.0,0.0,0.0,0.0,0.0,0.0,0.0,0.0,0.0,0.0,0.0,0.0,0.0,0.0,0.0,0.0,0.0,0.0,0.0,0.0,0.0,0.0,0.0,0.0,0.0,0.0,0.0,0.0,0.0,0.0,0.0,0.0,0.0,0.0,0.0,0.0,0.0,0.0,0.0,0.0,0.0,0.0,0.0,0.0,0.0,0.0,0.0,0.0,-0.641,-0.6933,-0.7604,-0.8343,-0.8368,-0.8533,-0.8791,-0.8469,-0.8046,0.0,0.0,0.0,0.0,0.0,0.0,0.0,0.0,0.0,0.0,0.0,0.0,0.0,0.0,0.0,0.0,0.0,0.0,0.0,0.0,0.0,0.0,0.0,0.0,0.0,0.0,0.0,0.0,0.0,0.0,0.0,0.0,0.0,0.0,0.0,0.0,0.0,0.0,0.0,0.0,-0.9222,-0.9767,-1.0308,0.0,0.0,0.0,0.0,0.0,0.0,-1.4472,-1.477,0.0,0.0,0.0,0.0,0.0,0.0,0.0,0.0,0.0,0.0,0.0,0.0,0.0,0.0,0.0,0.0,0.0,0.0,0.0,0.0,0.0,0.0,0.0,0.0,0.0,0.0,0.0,0.0,0.0,0.0,0.0,0.0,0.0,0.0,0.0,0.0,0.0,0.0,0.0,0.0,0.0,0.0,0.0,0.0,0.0,0.0,0.0,0.0,0.0,0.0,0.0,0.0,0.0,0.0,0.0,-0.6325,-0.6902,-0.7536,-0.826,-0.8343,-0.8508,-0.8711,-0.8442,-0.8011,0.0,0.0,0.0,0.0,0.0,0.0,0.0,0.0,0.0,0.0,0.0,0.0,0.0,0.0,0.0,0.0,0.0,0.0,0.0,0.0,0.0,0.0,0.0,0.0,0.0,0.0,0.0,0.0,0.0,0.0,0.0,0.0,0.0,0.0,0.0,0.0,0.0,0.0,0.0,0.0,0.0,-0.9982,-1.0326,-1.0867,0.0,0.0,0.0,0.0,-1.3766,-1.4752,0.0,0.0,0.0,0.0,0.0,0.0,0.0,0.0,0.0,0.0,0.0,0.0,0.0,0.0,0.0,0.0,0.0,0.0,0.0,0.0,0.0,0.0,0.0,0.0,0.0,0.0,0.0,0.0,0.0,0.0,0.0,0.0,0.0,0.0,0.0,0.0,0.0,0.0,0.0,0.0,0.0,0.0,0.0,0.0,0.0,0.0,0.0,0.0,0.0,0.0,0.0,0.0,0.0,0.0,0.0,0.0,-0.6058,-0.6811,-0.745,-0.7999,-0.8293,-0.8417,-0.843,-0.8338,-0.7919,0.0,0.0,0.0,0.0,0.0,0.0,0.0,0.0,0.0,0.0,0.0,0.0,0.0,0.0,0.0,0.0,0.0,0.0,0.0,0.0,0.0,0.0,0.0,0.0,0.0,0.0,0.0,0.0,0.0,0.0,0.0,0.0,0.0,0.0,0.0,0.0,0.0,0.0,0.0,0.0,0.0,-1.0108,-1.0184,-1.0938,-1.1634,0.0,0.0,0.0,-1.417,-1.4979,0.0,0.0,0.0,0.0,0.0,0.0,0.0,0.0,0.0,0.0,0.0,0.0,0.0,0.0,0.0,0.0,0.0,0.0,0.0,0.0,0.0,0.0,0.0,0.0,0.0,0.0,0.0,0.0,0.0,0.0,0.0,0.0,0.0,0.0,0.0,0.0,0.0,0.0,0.0,0.0,0.0,0.0,0.0,0.0,0.0,0.0,0.0,0.0,0.0,0.0,0.0,0.0,0.0,0.0,0.0,0.0,-0.6003,-0.6641,-0.7204,-0.7707,-0.784,-0.7996,-0.8123,-0.7884,-0.7539,0.0,0.0,0.0,0.0,0.0,0.0,0.0,0.0,0.0,0.0,0.0,0.0,0.0,0.0,0.0,0.0,0.0,0.0,0.0,0.0,0.0,0.0,0.0,0.0,0.0,0.0,0.0,0.0,0.0,0.0,0.0,0.0,0.0,0.0,0.0,0.0,0.0,0.0,0.0,0.0,0.0,0.0,-1.0318,-1.0829,0.0,0.0,0.0,-1.3694,-1.4259,0.0,0.0,0.0,0.0,0.0,0.0,0.0,0.0,0.0,0.0,0.0,0.0,0.0,0.0,0.0,0.0,0.0,0.0,0.0,0.0,0.0,0.0,0.0,0.0,0.0,0.0,0.0,0.0,0.0,0.0,0.0,0.0,0.0,0.0,0.0,0.0,0.0,0.0,0.0,0.0,0.0,0.0,0.0,0.0,0.0,0.0,0.0,0.0,0.0,0.0,0.0,0.0,0.0,0.0,0.0,0.0,0.0,-0.59,-0.6495,-0.6988,-0.7386,-0.7503,-0.7646,-0.7809,-0.7439,0.0,0.0,0.0,0.0,0.0,0.0,0.0,0.0,0.0,0.0,0.0,0.0,0.0,0.0,0.0,0.0,0.0,0.0,0.0,0.0,0.0,0.0,0.0,0.0,0.0,0.0,0.0,0.0,0.0,0.0,0.0,0.0,0.0,0.0,0.0,0.0,0.0,0.0,0.0,0.0,0.0,0.0,-1.0312,-1.0302,-1.0572,-1.0878,0.0,0.0,-1.35,-1.3826,-1.4995,-1.5656,0.0,0.0,0.0,0.0,0.0,0.0,0.0,0.0,0.0,0.0,0.0,0.0,0.0,0.0,0.0,0.0,0.0,0.0,0.0,0.0,0.0,0.0,0.0,0.0,0.0,0.0,0.0,0.0,0.0,0.0,0.0,0.0,0.0,0.0,0.0,0.0,0.0,0.0,0.0,0.0,0.0,0.0,0.0,0.0,0.0,0.0,0.0,0.0,0.0,0.0,0.0,0.0,0.0,0.0,0.0,-0.5651,-0.6477,-0.698,-0.7115,-0.7489,-0.7636,-0.7508,-0.733,-0.7017,0.0,0.0,0.0,0.0,0.0,0.0,0.0,0.0,0.0,0.0,0.0,0.0,0.0,0.0,0.0,0.0,0.0,0.0,0.0,0.0,0.0,0.0,0.0,0.0,0.0,0.0,0.0,0.0,0.0,0.0,0.0,0.0,0.0,0.0,0.0,0.0,0.0,0.0,0.0,0.0,0.0,-1.0049,-1.0127,-1.0312,-1.0534,0.0,0.0,-1.1973,-1.2639,-1.3903,-1.4599,-1.4085,0.0,0.0,0.0,0.0,0.0,0.0,0.0,0.0,0.0,0.0,0.0,0.0,0.0,0.0,0.0,0.0,0.0,0.0,0.0,0.0,0.0,0.0,0.0,0.0,0.0,0.0,0.0,0.0,0.0,0.0,0.0,0.0,0.0,0.0,0.0,0.0,0.0,0.0,0.0,0.0,0.0,0.0,0.0,0.0,0.0,0.0,0.0,0.0,0.0,0.0,0.0,0.0,0.0,-0.5438,-0.5596,-0.6145,-0.6556,-0.6867,-0.7057,-0.7183,-0.7194,-0.6854,-0.6615,0.0,0.0,0.0,0.0,0.0,0.0,0.0,0.0,0.0,0.0,0.0,0.0,0.0,0.0,0.0,0.0,0.0,0.0,0.0,0.0,0.0,0.0,0.0,0.0,0.0,0.0,0.0,0.0,-0.8784,-0.8745,-0.8684,0.0,0.0,0.0,0.0,0.0,0.0,0.0,0.0,0.0,0.0,-0.9872,-1.0019,-1.0157,0.0,0.0,-1.1847,-1.2833,-1.2794,-1.4029,-1.4852,-1.4327,-1.4493,0.0,0.0,0.0,0.0,0.0,0.0,0.0,0.0,0.0,0.0,0.0,0.0,0.0,0.0,0.0,0.0,0.0,0.0,0.0,0.0,0.0,0.0,0.0,0.0,0.0,0.0,0.0,0.0,0.0,0.0,0.0,0.0,0.0,0.0,0.0,0.0,0.0,0.0,0.0,0.0,0.0,0.0,0.0,0.0,0.0,0.0,0.0,0.0,0.0,0.0,0.0,0.0,-0.5335,-0.5596,-0.5948,-0.63,-0.6702,-0.6836,-0.691,-0.6846,-0.6528,-0.6332,0.0,0.0,0.0,0.0,0.0,0.0,0.0,0.0,0.0,0.0,0.0,0.0,0.0,0.0,0.0,0.0,0.0,0.0,0.0,0.0,0.0,0.0,0.0,0.0,0.0,0.0,0.0,0.0,-0.8495,-0.8428,-0.8287,0.0,0.0,0.0,0.0,0.0,0.0,0.0,0.0,0.0,0.0,-0.9723,-0.9872,-0.998,-1.0166,-1.038,-1.189,-1.2997,-1.2946,-1.4043,-1.4816,-1.4549,0.0,0.0,0.0,0.0,0.0,0.0,0.0,0.0,0.0,0.0,0.0,0.0,0.0,0.0,0.0,0.0,0.0,0.0,0.0,0.0,0.0,0.0,0.0,0.0,0.0,0.0,0.0,0.0,0.0,0.0,0.0,0.0,0.0,0.0,0.0,0.0,0.0,0.0,0.0,0.0,0.0,0.0,0.0,0.0,0.0,0.0,0.0,0.0,0.0,0.0,0.0,0.0,0.0,0.0,-0.5596,-0.5935,-0.6288,-0.6696,-0.6829,-0.677,-0.6607,-0.6388,-0.6206,-0.6012,0.0,0.0,0.0,0.0,0.0,0.0,0.0,0.0,0.0,0.0,0.0,0.0,0.0,0.0,0.0,0.0,0.0,0.0,0.0,0.0,0.0,0.0,0.0,0.0,0.0,0.0,-0.8187,-0.8336,-0.8298,0.0,0.0,0.0,0.0,0.0,0.0,0.0,0.0,0.0,0.0,-0.9426,-0.9563,-0.9683,-0.9872,-1.0098,-1.0361,-1.1134,-1.1983,-1.2873,-1.3733,-1.4342,0.0,0.0,0.0,0.0,0.0,0.0,0.0,0.0,0.0,0.0,0.0,0.0,0.0,0.0,0.0,0.0,0.0,0.0,0.0,0.0,0.0,0.0,0.0,0.0,0.0,0.0,0.0,-0.3437,-0.3431,0.0,0.0,0.0,0.0,0.0,0.0,0.0,0.0,0.0,0.0,0.0,-0.3963,-0.4115,0.0,0.0,0.0,0.0,0.0,0.0,0.0,0.0,0.0,0.0,0.0,0.0,-0.5159,-0.5578,-0.5763,-0.6026,-0.641,-0.6504,-0.6481,-0.6344,-0.6163,-0.604,-0.5923,0.0,0.0,0.0,0.0,0.0,0.0,0.0,0.0,0.0,0.0,0.0,0.0,0.0,0.0,0.0,0.0,0.0,0.0,0.0,0.0,0.0,0.0,0.0,0.0,0.0,-0.7715,0.0,0.0,0.0,0.0,0.0,0.0,0.0,0.0,0.0,0.0,0.0,-0.8889,-0.9274,-0.9219,-0.9266,-0.9524,-0.9753,-1.0026,0.0,0.0,0.0,0.0,0.0,0.0,0.0,0.0,0.0,0.0,0.0,0.0,0.0,0.0,-1.6453,-1.5469,-1.4511,-1.3974,-1.4278,0.0,0.0,0.0,0.0,0.0,0.0,0.0,0.0,0.0,0.0,0.0,0.0,0.0,0.0,0.0,0.0,-0.339,0.0,0.0,0.0,0.0,0.0,0.0,0.0,0.0,-0.3588,-0.366,-0.3709,-0.381,-0.3939,0.0,-0.4233,-0.4327,0.0,0.0,0.0,0.0,0.0,0.0,0.0,0.0,-0.4952,-0.5365,-0.5505,-0.5739,-0.6156,-0.6214,-0.6155,-0.6012,-0.5889,-0.5755,-0.5664,-0.5845,-0.6121,0.0,0.0,0.0,0.0,0.0,0.0,0.0,0.0,0.0,0.0,0.0,0.0,0.0,0.0,0.0,0.0,0.0,0.0,0.0,0.0,0.0,0.0,0.0,-0.7263,0.0,0.0,0.0,0.0,0.0,0.0,0.0,0.0,0.0,-0.8733,-0.8635,-0.8692,-0.9195,-0.9139,-0.9105,-0.9386,0.0,0.0,0.0,0.0,0.0,0.0,0.0,-1.5159,-1.5176,-1.5567,-1.5944,-1.6088,-1.6468,-1.6704,-1.6611,0.0,0.0,-1.6617,-1.5622,-1.5012,-1.5327,-1.4681,-1.4265,-1.5056,-1.5389,-1.5694,0.0,0.0,0.0,0.0,0.0,0.0,0.0,0.0,-0.2559,-0.2696,0.0,-0.3229,0.0,0.0,0.0,0.0,0.0,0.0,0.0,0.0,-0.3523,-0.3585,-0.3635,-0.3732,-0.3778,-0.3813,-0.4228,-0.4167,-0.3721,-0.3874,0.0,0.0,0.0,0.0,0.0,0.0,-0.4736,-0.5027,-0.5197,-0.5495,-0.5887,-0.5887,-0.5819,-0.5705,-0.5503,-0.5356,-0.5254,-0.5672,-0.5831,-0.5755,-0.6449,0.0,0.0,0.0,0.0,0.0,0.0,0.0,0.0,0.0,0.0,0.0,0.0,0.0,0.0,0.0,0.0,0.0,0.0,0.0,0.0,-0.6801,0.0,0.0,0.0,0.0,0.0,0.0,0.0,0.0,0.0,0.0,-0.8829,-0.8697,-0.8642,-0.9136,0.0,0.0,0.0,0.0,-0.9881,-1.0351,-1.1025,-1.1983,-1.3272,-1.4292,-1.5055,-1.5443,0.0,0.0,-1.7076,-1.7076,-1.6983,-1.6925,-1.6957,-1.71,-1.6925,-1.6686,-1.6399,-1.5973,-1.5838,-1.5814,-1.5878,-1.6089,-1.6245,-0.1296,0.0,0.0,0.0,0.0,-0.1851,-0.1839,-0.175,-0.1915,-0.198,-0.206,-0.2696,0.0,0.0,0.0,0.0,0.0,0.0,-0.3503,-0.3531,-0.3569,-0.3585,-0.3583,-0.3547,-0.3537,-0.3498,-0.3491,-0.3363,-0.3225,-0.3203,-0.3471,-0.3975,0.0,0.0,0.0,0.0,-0.4748,-0.5249,-0.5066,-0.5211,-0.5745,-0.563,-0.5533,-0.5482,-0.549,-0.5494,-0.5578,-0.5736,-0.5883,-0.5989,-0.6303,0.0,0.0,0.0,0.0,0.0,0.0,0.0,0.0,0.0,0.0,0.0,0.0,0.0,0.0,0.0,0.0,0.0,0.0,0.0,-0.6611,-0.6575,-0.6793,0.0,0.0,0.0,0.0,0.0,0.0,0.0,0.0,0.0,-0.8479,-0.8319,-0.8318,0.0,0.0,-0.8846,-0.9047,-0.9368,-0.9796,-1.0378,0.0,0.0,0.0,-1.4282,-1.5145,-1.5397,-1.578,-1.5818,-1.5314,-1.538,-1.5342,-1.4976,-1.5304,-1.575,-1.6042,-1.6295,-1.6573,-1.6904,-1.6704,-1.6609,-1.693,-1.7314,-1.7449,-0.0525,-0.0956,-0.1308,-0.1356,-0.1234,-0.1187,-0.1052,-0.1028,-0.12,-0.1344,-0.1398,-0.2078,-0.2412,-0.2525,-0.3261,0.0,0.0,0.0,-0.3515,-0.3585,-0.3585,-0.3585,-0.3574,-0.346,-0.34,-0.339,-0.3306,-0.3186,-0.3,-0.3152,-0.3353,-0.3606,0.0,0.0,-0.4393,-0.4479,-0.4748,-0.5153,-0.5032,-0.5054,-0.535,-0.536,-0.532,-0.5361,-0.541,-0.5467,-0.5575,-0.5662,-0.578,-0.5928,-0.6083,-0.6299,0.0,0.0,0.0,0.0,0.0,0.0,0.0,0.0,0.0,0.0,0.0,-0.7166,0.0,0.0,0.0,0.0,-0.662,-0.6602,-0.665,-0.6783,0.0,0.0,0.0,0.0,0.0,0.0,0.0,-0.8068,-0.7941,-0.7945,-0.8104,-0.7997,-0.8116,-0.8676,-0.8672,-0.8724,-0.9056,0.0,-0.9689,-1.024,-1.0952,-1.1757,-1.2717,-1.385,-1.4753,-1.5096,-1.5215,-1.5069,-1.4488,-1.4714,-1.4832,-1.441,-1.4723,-1.5234,-1.5374,-1.594,-1.6542,-1.7037,-1.6837,-1.6863,-1.7732,-1.8198,-1.8327,0.0069,0.0,-0.0573,-0.0746,-0.0624,-0.0449,-0.0251,-0.006,-0.0609,-0.0775,-0.0733,-0.1401,-0.2015,-0.2575,-0.3249,0.0,0.0,-0.3585,-0.3585,-0.353,-0.353,-0.3585,-0.358,-0.3449,-0.3387,-0.3379,-0.3526,-0.3401,-0.3028,-0.3411,-0.348,-0.3211,-0.3634,-0.4008,-0.4314,-0.4573,-0.4761,-0.485,-0.4962,-0.4963,-0.4869,-0.5055,-0.5169,-0.5277,-0.5309,-0.5334,-0.5383,-0.5428,-0.5522,-0.5634,-0.5828,-0.5959,-0.6068,0.0,0.0,0.0,0.0,0.0,0.0,0.0,0.0,0.0,0.0,0.0,0.0,0.0,0.0,0.0,-0.6445,0.0,-0.6893,-0.728,0.0,0.0,0.0,-0.8426,-0.8692,-0.8364,-0.8231,-0.8369,0.0,0.0,0.0,0.0,-0.7933,-0.859,-0.8548,-0.8635,-0.9056,-0.9328,-0.9567,-0.9881,-1.0443,-1.1199,-1.2105,-1.3259,-1.4214,-1.4709,-1.4778,-1.4535,-1.4149,-1.453,-1.485,-1.4225,-1.4689,-1.499,-1.4803,-1.5488,-1.6302,-1.6496,-1.6544,-1.6834,-1.7949,-1.8487,-1.8643,0.0489,0.0415,0.0268,0.0066,-0.0198,-0.0133,-0.0065,0.0,-0.0124,-0.0181,-0.0233,-0.085,-0.1679,-0.2683,-0.3302,-0.353,-0.3471,-0.3416,-0.336,-0.3246,-0.3246,-0.319,-0.3236,-0.3104,-0.3118,-0.3102,-0.3116,-0.3044,-0.2908,-0.306,-0.3043,-0.2998,-0.3315,-0.363,-0.3881,-0.4374,-0.4609,-0.4503,-0.4459,-0.4507,-0.4654,-0.4657,-0.4845,-0.5207,-0.5347,-0.5301,-0.5105,-0.5126,-0.5146,-0.5237,-0.5219,-0.5435,-0.5866,-0.6021,0.0,0.0,0.0,0.0,0.0,0.0,0.0,0.0,0.0,-0.6695,-0.6643,0.0,-0.6872,0.0,-0.6665,-0.6859,-0.7262,-0.7861,0.0,0.0,-0.8914,-0.918,-0.8751,-0.8157,-0.7687,-0.7397,-0.711,-0.6857,-0.6593,-0.712,-0.759,-0.7727,-0.8051,-0.8365,-0.8602,-0.8903,-0.9136,-0.9484,-1.0036,-1.0738,-1.161,-1.3062,-1.4204,-1.4666,-1.4327,-1.3775,-1.3037,-1.2941,-1.2826,-1.227,-1.2682,-1.3251,-1.3722,-1.4221,-1.5029,-1.5976,-1.6564,-1.693,-1.7319,-1.7806,-1.8093,0.0637,0.0629,0.0545,0.0405,0.0202,0.0202,0.0199,0.0193,0.0188,0.0243,0.0176,-0.0398,-0.1064,-0.1676,-0.2293,-0.2685,-0.2854,-0.2854,-0.2965,-0.3077,-0.3132,-0.3132,-0.3125,-0.3021,-0.2973,-0.2921,-0.28,-0.2735,-0.2732,-0.2773,-0.2773,-0.2729,-0.2951,-0.3137,-0.3278,-0.4045,-0.4383,-0.4242,-0.4155,-0.4199,-0.4398,-0.4332,-0.4482,-0.4832,-0.4934,-0.4928,-0.4916,-0.4934,-0.501,-0.505,-0.5028,-0.5239,-0.5585,-0.5773,-0.5952,0.0,0.0,0.0,0.0,0.0,0.0,0.0,0.0,0.0,0.0,0.0,-0.709,0.0,0.0,0.0,-0.8067,-0.8383,-0.8579,-0.8635,-0.8699,-0.8614,-0.8283,-0.7561,-0.698,-0.6699,-0.6459,-0.6199,-0.5987,-0.6422,-0.6824,-0.6936,-0.7121,-0.7569,-0.8325,-0.8773,-0.9105,-0.9266,-0.9912,-1.0889,-1.1993,-1.2617,-1.3162,-1.3667,-1.3435,-1.291,-1.2102,-1.2085,-1.209,-1.1866,-1.2201,-1.2877,-1.37,-1.4573,-1.5364,-1.586,-1.6507,-1.7096,-1.7731,-1.8361,-1.8751,0.0647,0.0632,0.0614,0.0539,0.0607,0.0538,0.053,0.0518,0.0501,0.0484,0.0467,-0.0114,-0.0393,-0.0449,-0.1064,-0.1566,-0.2071,-0.2128,-0.2462,-0.2963,-0.3019,-0.3077,-0.3072,-0.2962,-0.2913,-0.277,-0.2654,-0.2548,-0.2504,-0.2637,-0.2637,-0.2504,-0.2593,-0.264,-0.2729,-0.3612,-0.4019,-0.3904,-0.3897,-0.3914,-0.4011,-0.4019,-0.4113,-0.4334,-0.435,-0.4468,-0.4662,-0.4744,-0.4808,-0.4878,-0.4928,-0.5074,-0.5295,-0.5585,-0.5795,0.0,-0.6455,0.0,0.0,0.0,0.0,0.0,0.0,0.0,0.0,-0.6926,-0.7427,-0.8459,-0.8237,-0.8276,-0.8876,-0.8806,-0.8627,-0.8577,-0.7945,-0.7559,-0.751,-0.6743,-0.6203,-0.613,-0.5848,-0.5566,-0.5413,-0.5567,-0.5843,-0.6174,-0.6194,-0.6593,-0.7822,-0.852,-0.8882,-0.9079,-0.9954,-1.1058,-1.2292,-1.21,-1.189,-1.2514,-1.2529,-1.2063,-1.1384,-1.1755,-1.2169,-1.2266,-1.2554,-1.3142,-1.4156,-1.5034,-1.5633,-1.5823,-1.5879,-1.6362,-1.7814,-1.8636,-1.9402,0.109,0.1081,0.103,0.1009,0.1007,0.092,0.0724,0.0466,0.0506,0.0479,0.0396,-0.0169,-0.0393,-0.0449,-0.1064,-0.1286,-0.1342,-0.179,-0.2015,-0.2069,-0.2575,-0.28,-0.2792,-0.2678,-0.264,-0.2611,-0.2579,-0.2481,-0.2504,-0.2504,-0.2504,-0.2504,-0.2413,-0.2413,0.0,0.0,0.0,0.0,-0.3259,-0.3356,-0.3611,-0.3577,-0.3694,-0.4069,-0.4113,0.0,-0.4075,-0.4077,-0.4156,-0.425,-0.4271,0.0,0.0,0.0,0.0,0.0,0.0,0.0,0.0,0.0,0.0,0.0,-0.6229,-0.6341,-0.6637,-0.7482,-0.8265,-0.8822,-0.8686,-0.8606,-0.8748,-0.8561,-0.8295,-0.7903,-0.7757,-0.7419,-0.6805,-0.6141,-0.5625,-0.5252,-0.4923,-0.459,-0.4446,-0.4785,-0.5137,-0.5378,-0.5584,-0.5882,-0.6477,-0.7248,-0.7874,-0.8488,-0.9588,-1.0618,-1.1386,-1.1857,-1.2042,-1.2208,-1.2035,-1.1763,-1.1451,-1.1938,-1.2375,-1.2239,-1.2758,-1.3361,-1.3822,-1.2744,-1.2783,-1.5031,-1.3925,-1.32,-1.5668,-1.6587,-1.6706,0.1113,0.0,0.1052,0.1033,0.0,0.1018,0.0892,0.0709,0.0739,0.0705,0.0617,0.0336,0.028,0.0224,-0.0056,-0.0336,-0.0559,-0.1174,-0.1566,-0.1846,-0.241,-0.2691,-0.2689,-0.2649,-0.2611,-0.2465,-0.2374,-0.2328,-0.2333,-0.2284,-0.2284,-0.233,-0.2326,-0.2326,-0.2375,-0.237,-0.2637,-0.3043,-0.2979,-0.301,-0.3155,-0.3124,-0.3224,-0.3509,0.0,0.0,0.0,0.0,0.0,0.0,0.0,0.0,0.0,0.0,0.0,-0.5138,-0.5645,-0.5918,-0.5819,-0.6122,-0.6224,-0.5974,-0.6135,-0.6412,-0.6768,-0.7589,-0.8252,-0.8781,-0.875,-0.8668,-0.8538,-0.8095,-0.7623,-0.7241,-0.6836,-0.6361,-0.5797,-0.5247,-0.4765,-0.4359,-0.4061,-0.3762,-0.3552,-0.3792,-0.4164,-0.4453,-0.4316,-0.4497,-0.545,-0.6318,-0.7198,-0.7952,-0.8659,-0.9894,-1.1548,-1.1723,-1.2201,-1.2953,-1.2887,-1.2406,-1.2044,-1.2265,-1.25,-1.2629,-1.3038,-1.3412,-1.3718,-1.3143,-1.3067,-1.4034,-1.3472,-1.2806,-1.4041,-1.4909,-1.5507,0.1062,0.1038,0.1003,0.0988,0.0988,0.0982,0.0977,0.1031,0.0,0.0,0.0,0.0948,0.0948,0.1009,0.0954,0.0673,0.0112,-0.0503,-0.1118,-0.1734,-0.2352,-0.2635,-0.2635,-0.2617,-0.2473,-0.227,-0.21,-0.2021,-0.2068,-0.193,-0.193,-0.2064,-0.2103,-0.215,-0.2109,-0.215,-0.2326,-0.2687,-0.2779,-0.2808,-0.2772,-0.2751,-0.2812,-0.29,-0.2843,-0.2929,-0.3196,-0.3298,-0.3401,-0.3467,-0.3499,-0.3642,-0.3939,-0.4043,-0.4206,-0.4528,-0.5176,-0.5482,-0.5257,-0.5794,-0.5967,-0.5556,-0.5936,-0.642,-0.7004,-0.7444,-0.7878,-0.8351,-0.8349,-0.8294,-0.8092,-0.7375,-0.6761,-0.6465,-0.575,-0.5183,-0.4823,-0.4396,-0.3971,-0.3552,-0.3256,-0.3039,-0.2812,-0.2784,-0.2958,-0.3341,-0.2941,-0.2762,-0.4026,-0.5094,-0.6054,-0.6597,-0.6831,-0.8246,-1.1155,-1.1216,-1.1486,-1.286,-1.2601,-1.201,-1.1335,-1.1404,-1.1858,-1.2112,-1.2707,-1.3225,-1.3684,-1.3449,-1.3728,-1.3351,-1.2895,-1.265,-1.2579,-1.327,-1.4005,0.1072,0.1065,0.1011,0.0988,0.0986,0.096,0.0993,0.1081,0.0962,0.0958,0.1064,0.1087,0.1147,0.1234,0.1234,0.101,0.0561,0.0,-0.0672,0.0,-0.2015,-0.224,-0.2237,-0.2226,-0.2047,-0.1715,-0.161,-0.1548,-0.153,-0.1524,-0.1479,-0.1524,-0.1523,-0.1657,-0.1839,-0.1614,-0.1657,-0.1971,-0.2326,-0.2541,-0.256,-0.254,-0.255,-0.2588,-0.2558,-0.2631,-0.2852,-0.2885,-0.2911,-0.3003,-0.3105,-0.3245,-0.3398,-0.351,-0.3759,-0.4144,-0.4346,-0.4674,-0.5244,-0.5392,-0.5508,-0.5662,-0.5738,-0.621,-0.7141,-0.7307,-0.739,-0.7475,-0.7202,-0.6985,-0.6898,-0.6233,-0.5642,-0.5346,-0.4923,-0.4435,-0.3977,-0.3768,-0.3534,-0.3125,-0.2604,-0.2304,-0.2236,-0.1826,-0.172,-0.2065,-0.1809,-0.1364,-0.1451,-0.2812,-0.3836,-0.3855,-0.3887,-0.571,-0.8917,-0.9188,-0.8987,-0.9701,-0.9362,-0.8344,-0.6296,-0.7939,-0.9606,-0.9843,-1.1372,-1.2529,-1.3244,-1.1176,-1.0856,-1.1778,-1.0711,-0.9483,-1.1056,-1.131,-1.1144,0.1009,0.1039,0.101,0.1056,0.1055,0.1098,0.1138,0.1232,0.1155,0.1158,0.1176,0.1214,0.1272,0.129,0.129,0.1066,0.0673,0.028,-0.028,-0.1064,-0.1454,-0.1734,-0.1952,-0.1892,-0.1777,-0.1613,-0.1408,-0.1353,-0.1394,-0.121,-0.121,-0.1389,-0.1389,-0.1435,-0.1569,-0.1435,-0.1389,-0.1524,-0.1837,-0.2085,-0.2221,-0.2253,-0.2261,-0.24,-0.2381,-0.244,-0.2531,-0.2634,-0.2636,-0.2593,-0.2729,-0.2797,-0.2871,-0.2913,-0.3093,-0.3446,-0.373,-0.4049,-0.4346,-0.4561,-0.4792,-0.5058,-0.4952,-0.5178,-0.582,-0.6331,-0.6531,-0.6452,-0.6459,-0.6337,-0.6081,-0.5413,-0.4885,-0.4586,-0.409,-0.3667,-0.3388,-0.3225,-0.3045,-0.2698,-0.2187,-0.1806,-0.17,-0.112,-0.0836,-0.117,-0.0851,-0.0141,0.0959,0.0234,-0.0942,-0.1831,-0.2323,-0.3801,-0.6604,-0.6419,-0.6394,-0.7456,-0.8407,-0.8228,-0.7135,-0.906,-1.0603,-1.1197,-1.1141,-1.1025,-1.1979,-1.0099,-0.9507,-1.0366,-1.0201,-0.9676,-1.033,-1.0334,-1.0289,0.1077,0.1021,0.1126,0.1122,0.1121,0.128,0.1337,0.1398,0.1353,0.1407,0.1384,0.1387,0.1393,0.1403,0.1403,0.1178,0.0785,0.0728,0.0168,-0.0673,-0.0727,-0.1006,-0.1338,-0.1353,-0.1254,-0.1159,-0.0873,-0.0838,-0.0899,-0.0716,-0.0716,-0.094,-0.0895,-0.0895,-0.1074,-0.0851,-0.0895,-0.112,-0.1165,-0.1389,-0.1835,-0.185,-0.1963,-0.2101,-0.2156,-0.2146,-0.2087,-0.2335,-0.2386,-0.2157,-0.2294,-0.2443,-0.2457,-0.2426,-0.2507,-0.2805,-0.3023,-0.3221,-0.329,-0.3611,-0.3897,-0.4113,-0.3957,-0.3935,-0.4275,-0.4844,-0.5319,-0.5366,-0.5553,-0.5522,-0.5084,-0.4601,-0.4185,-0.389,-0.3389,-0.2962,-0.2797,-0.2597,-0.2379,-0.2066,-0.1613,-0.1208,-0.0937,-0.0434,-0.0033,0.0101,0.0311,0.1131,0.2392,0.2519,0.1525,0.0453,-0.0376,-0.161,-0.3872,-0.374,-0.3828,-0.5183,-0.6398,-0.6372,-0.654,-0.8313,-1.0474,-1.0215,-0.9711,-0.9582,-1.0551,-0.9813,-0.9199,-1.0024,-1.0006,-1.007,-1.0095,-1.0159,-1.0155,0.1392,0.1347,0.1306,0.129,0.1284,0.1413,0.1526,0.156,0.1625,0.1654,0.166,0.1553,0.1584,0.1736,0.174,0.1515,0.1122,0.1343,0.0952,0.0056,0.0168,0.0112,-0.0167,-0.0216,-0.0104,0.0151,0.0387,0.0418,0.0401,0.0312,0.0268,0.0268,0.0672,0.0492,0.0,0.0537,0.0358,-0.0716,-0.0089,-0.0313,-0.1295,-0.1418,-0.148,-0.146,-0.165,-0.161,-0.1365,-0.1837,-0.1995,-0.1713,-0.1941,-0.2183,-0.2273,-0.2195,-0.2241,-0.2384,-0.2145,-0.2013,-0.2249,-0.2652,-0.2846,-0.2716,-0.2734,-0.2781,-0.2895,-0.2985,-0.342,-0.4056,-0.4138,-0.4052,-0.3785,-0.3501,-0.3296,-0.3141,-0.2766,-0.2457,-0.2095,-0.1709,-0.1321,-0.1089,-0.0708,-0.0336,-0.0067,0.0435,0.1101,0.1767,0.1883,0.2262,0.308,0.3042,0.2834,0.2832,0.3029,0.1438,-0.1385,-0.1527,-0.1178,-0.1783,-0.1624,-0.1379,-0.0937,-0.1412,-0.229,-0.6867,-0.6582,-0.7679,-0.9603,-1.0478,-0.9627,-0.9495,-0.9753,-1.0025,-1.0025,-1.0044,-1.0065,0.1416,0.1316,0.1412,0.1498,0.1578,0.1608,0.1593,0.1584,0.1702,0.1741,0.1874,0.1886,0.1863,0.1745,0.1944,0.1793,0.1456,0.2015,0.1734,0.084,0.1174,0.1107,0.0758,0.068,0.07,0.0661,0.0924,0.1032,0.0954,0.086,0.086,0.0904,0.1075,0.1001,0.0801,0.1205,0.116,0.0714,0.0937,0.0838,0.0302,-0.0509,-0.0945,-0.1023,-0.1135,-0.1125,-0.1066,-0.1356,-0.1391,-0.1204,-0.1389,-0.15,-0.1466,-0.143,-0.1484,-0.1598,-0.1474,-0.1379,-0.1401,-0.1578,-0.1723,-0.1887,-0.196,-0.2092,-0.2421,-0.236,-0.2422,-0.2656,-0.3086,-0.3275,-0.2995,-0.2697,-0.2429,-0.2199,-0.1826,-0.1492,-0.1317,-0.1106,-0.0822,-0.047,-0.0067,0.0268,0.0636,0.127,0.2034,0.2801,0.2999,0.3159,0.3527,0.3524,0.3462,0.3401,0.3594,0.3062,0.1159,0.1315,0.1623,0.1286,0.0083,-0.0157,0.0181,-0.1321,-0.3559,-0.4611,-0.4033,-0.4424,-0.6082,-0.6678,-0.6561,-0.7617,-0.9482,-1.0006,-1.0016,-1.0065,-1.0147,0.1484,0.1441,0.1644,0.1786,0.1916,0.1877,0.1843,0.182,0.185,0.1936,0.2057,0.2197,0.2103,0.1936,0.2186,0.2164,0.191,0.2496,0.2382,0.1748,0.2161,0.2088,0.1645,0.1636,0.1515,0.1396,0.1647,0.17,0.1557,0.162,0.161,0.1543,0.161,0.1625,0.1586,0.1809,0.185,0.1635,0.1766,0.1782,0.1442,0.061,-0.004,-0.0269,-0.0383,-0.0383,-0.0345,-0.0581,-0.0615,-0.0447,-0.0704,-0.0816,-0.0744,-0.0818,-0.083,-0.0778,-0.0704,-0.0587,-0.0351,-0.0347,-0.0459,-0.0763,-0.0804,-0.1027,-0.1336,-0.1295,-0.1168,-0.1108,-0.1646,-0.1898,-0.2055,-0.1814,-0.1526,-0.1167,-0.0718,-0.0435,-0.0301,-0.0167,0.0134,0.04,0.0768,0.1033,0.1499,0.2101,0.2805,0.3462,0.3543,0.3567,0.3663,0.3759,0.3661,0.3369,0.3608,0.3655,0.3412,0.3324,0.3627,0.3358,0.1721,0.0654,0.0123,-0.1598,-0.3781,-0.2886,-0.1456,-0.2195,-0.5308,-0.5392,-0.4972,-0.6551,-0.8163,-0.9286,-0.8879,-0.9525,-1.0103,0.1764,0.1706,0.1906,0.2173,0.2432,0.2225,0.2196,0.2194,0.2188,0.215,0.2215,0.2376,0.2358,0.2225,0.256,0.2537,0.2368,0.2817,0.2857,0.2522,0.3035,0.3075,0.2658,0.2713,0.265,0.2452,0.2766,0.2814,0.2648,0.2686,0.2571,0.2289,0.2571,0.2559,0.2295,0.2654,0.2475,0.1861,0.227,0.2366,0.2066,0.1946,0.1579,0.1018,0.0727,0.0763,0.095,0.0531,0.0387,0.0699,0.0077,-0.031,-0.031,-0.058,-0.0464,0.0,0.0272,0.0584,0.0889,0.0933,0.0909,0.094,0.087,0.0874,0.0405,0.0471,0.0504,0.0399,0.0406,0.0137,-0.0549,-0.0649,-0.0472,0.0,0.0402,0.0701,0.0969,0.1235,0.1605,0.1733,0.1804,0.2103,0.286,0.3068,0.3467,0.3856,0.379,0.3609,0.3739,0.3635,0.3489,0.3454,0.3625,0.3897,0.3936,0.3924,0.4095,0.3882,0.3429,0.3385,0.343,0.2729,0.0254,-0.1367,-0.0548,-0.1676,-0.5122,-0.6606,-0.6456,-0.705,-0.7398,-0.7907,-0.8618,-0.9303,-0.9867,0.1981,0.2106,0.2181,0.2255,0.2272,0.2209,0.2176,0.2158,0.218,0.2294,0.2419,0.2636,0.271,0.2708,0.3021,0.2995,0.2777,0.3157,0.3251,0.3235,0.3416,0.3391,0.3175,0.3169,0.3153,0.3097,0.3398,0.3552,0.3587,0.3602,0.3451,0.3205,0.3303,0.3275,0.3117,0.3313,0.3271,0.3004,0.3407,0.3488,0.315,0.3339,0.3227,0.2717,0.1989,0.165,0.1686,0.1506,0.1413,0.1522,0.1238,0.1096,0.1096,0.099,0.0988,0.1096,0.1201,0.1346,0.1452,0.1467,0.1484,0.1482,0.1421,0.1335,0.1173,0.1304,0.1537,0.1674,0.1852,0.1785,0.1668,0.1121,0.0832,0.1198,0.153,0.1762,0.1894,0.2065,0.2233,0.2465,0.2702,0.313,0.349,0.3756,0.4081,0.4567,0.4344,0.4152,0.4189,0.4042,0.3785,0.3664,0.3665,0.3733,0.3857,0.3969,0.4044,0.3915,0.3652,0.3384,0.331,0.3209,0.1198,0.0439,0.0841,0.0542,-0.2263,-0.4111,-0.4758,-0.7675,-0.7948,-0.7935,-0.8959,-0.9487,-0.99,0.2228,0.2419,0.239,0.2409,0.2472,0.2437,0.2388,0.2384,0.244,0.2568,0.2728,0.2931,0.3047,0.3095,0.3313,0.3334,0.3163,0.3381,0.3479,0.3556,0.3683,0.3648,0.3579,0.3563,0.3585,0.3625,0.3799,0.402,0.4229,0.4077,0.3922,0.3755,0.372,0.3688,0.3638,0.3668,0.3737,0.3917,0.4139,0.415,0.4071,0.4207,0.4226,0.3909,0.3249,0.279,0.2629,0.2629,0.2629,0.2563,0.2458,0.2326,0.223,0.2326,0.2323,0.2225,0.2326,0.2356,0.2365,0.2395,0.2402,0.2308,0.2233,0.2137,0.2112,0.2361,0.2665,0.3028,0.3267,0.3521,0.351,0.3056,0.2636,0.2537,0.2652,0.2783,0.282,0.2947,0.3143,0.3408,0.3774,0.4108,0.4307,0.4398,0.4686,0.5163,0.486,0.4622,0.4685,0.4446,0.4214,0.408,0.3928,0.3965,0.4046,0.4193,0.407,0.3881,0.3851,0.3541,0.3336,0.3177,0.2794,0.2298,0.2139,0.2177,0.1112,-0.0934,-0.3881,-0.7342,-0.807,-0.7759,-0.8679,-0.9535,-0.9922,0.2422,0.2652,0.2552,0.2715,0.2916,0.2877,0.2912,0.2948,0.2951,0.3001,0.3102,0.3318,0.325,0.3263,0.3358,0.3401,0.34,0.3531,0.356,0.3475,0.3819,0.3907,0.3775,0.3865,0.3989,0.4139,0.4134,0.4299,0.4602,0.4242,0.406,0.4088,0.3947,0.3926,0.3907,0.3886,0.4,0.4297,0.432,0.4442,0.4724,0.4657,0.461,0.4602,0.4499,0.4253,0.3923,0.3923,0.3858,0.3858,0.3575,0.3241,0.3045,0.3176,0.3306,0.3338,0.3566,0.3727,0.3764,0.3797,0.3677,0.349,0.3519,0.3586,0.3673,0.3889,0.4238,0.4739,0.4963,0.5083,0.5003,0.4923,0.4547,0.378,0.37,0.3737,0.3806,0.4097,0.4419,0.4477,0.4712,0.5099,0.5176,0.5106,0.5163,0.538,0.5197,0.4982,0.5096,0.484,0.46,0.4592,0.4517,0.4456,0.4433,0.4387,0.4156,0.3952,0.3966,0.3844,0.37,0.3521,0.291,0.2431,0.2578,0.2541,0.0776,-0.1146,-0.2397,-0.5094,-0.5905,-0.7647,-0.8671,-0.9529,-0.99,0.2823,0.2911,0.2968,0.2968,0.3002,0.3057,0.3129,0.317,0.317,0.317,0.3223,0.326,0.3302,0.3369,0.3494,0.3574,0.3622,0.3715,0.3747,0.3691,0.3858,0.3925,0.3878,0.3916,0.4088,0.4447,0.4784,0.499,0.5146,0.5107,0.5095,0.4979,0.4887,0.4778,0.4703,0.463,0.4655,0.4706,0.5125,0.5262,0.5179,0.5603,0.5682,0.533,0.5375,0.528,0.4953,0.4564,0.4339,0.4371,0.4231,0.413,0.4097,0.4226,0.4285,0.4194,0.4296,0.4328,0.4296,0.436,0.4398,0.4312,0.4403,0.468,0.5043,0.5347,0.5812,0.6442,0.665,0.6632,0.6481,0.6397,0.5792,0.4561,0.4558,0.4602,0.4596,0.466,0.4654,0.4616,0.4947,0.5214,0.534,0.5365,0.5648,0.582,0.5539,0.5348,0.5576,0.5412,0.5316,0.5432,0.5241,0.507,0.5022,0.4914,0.4683,0.4409,0.4312,0.413,0.3999,0.3853,0.32,0.2893,0.304,0.2369,0.0565,-0.091,-0.203,-0.4017,-0.611,-0.7578,-0.8805,-0.9501,-0.9913,0.3078,0.3078,0.317,0.3123,0.3078,0.317,0.3258,0.3306,0.335,0.3394,0.3439,0.348,0.3527,0.3575,0.3667,0.388,0.4132,0.4268,0.4351,0.4308,0.4012,0.406,0.4244,0.439,0.4783,0.5236,0.5487,0.5736,0.6117,0.6094,0.6002,0.5913,0.5797,0.5742,0.5691,0.5632,0.5596,0.5689,0.6175,0.627,0.6142,0.6455,0.6521,0.6224,0.6164,0.5995,0.5679,0.5307,0.5093,0.4909,0.4884,0.4884,0.4915,0.5004,0.5042,0.5023,0.5049,0.5042,0.5011,0.5169,0.5176,0.5119,0.5332,0.5684,0.6069,0.6441,0.7009,0.7609,0.7606,0.7437,0.7198,0.707,0.65,0.555,0.5379,0.5358,0.5285,0.5176,0.5169,0.5201,0.5467,0.5624,0.5718,0.5811,0.6036,0.6152,0.5951,0.5812,0.6043,0.6025,0.6048,0.6073,0.5997,0.5808,0.5637,0.5462,0.5209,0.4969,0.4738,0.4456,0.4203,0.4203,0.3819,0.3678,0.3737,0.339,0.1834,0.0268,-0.1122,-0.3648,-0.5661,-0.7096,-0.8155,-0.9411,-0.997,0.3214,0.3214,0.3214,0.3262,0.3303,0.3262,0.348,0.3707,0.3711,0.384,0.3968,0.4052,0.4052,0.4008,0.4144,0.4399,0.4783,0.5,0.5216,0.5216,0.4792,0.4578,0.4941,0.5247,0.5769,0.6398,0.6162,0.6452,0.7062,0.6868,0.6738,0.6758,0.6625,0.6639,0.6788,0.6741,0.6745,0.695,0.7212,0.7284,0.719,0.7126,0.7024,0.7024,0.6792,0.6517,0.6229,0.6213,0.6006,0.5585,0.546,0.546,0.5498,0.5529,0.5561,0.5631,0.578,0.5811,0.5943,0.6029,0.6122,0.5963,0.6302,0.6731,0.6954,0.7347,0.7834,0.8375,0.8157,0.7826,0.7551,0.7439,0.71,0.6582,0.6193,0.5963,0.58,0.5585,0.5617,0.6005,0.6207,0.6261,0.6307,0.6368,0.639,0.6421,0.6419,0.6507,0.6568,0.6648,0.6631,0.6666,0.6713,0.6614,0.6477,0.6093,0.5831,0.5618,0.5291,0.487,0.4507,0.4446,0.4244,0.4163,0.4142,0.3832,0.3109,0.1476,0.0106,-0.1539,-0.3594,-0.576,-0.7542,-0.885,-0.9715,0.335,0.335,0.3442,0.3704,0.3921,0.37,0.4092,0.4748,0.4443,0.453,0.4836,0.4918,0.4957,0.5082,0.513,0.5298,0.5513,0.5685,0.5739,0.5819,0.569,0.5604,0.5819,0.5967,0.6264,0.6611,0.6759,0.6925,0.7291,0.7419,0.7509,0.7648,0.7587,0.7625,0.7691,0.7681,0.7648,0.763,0.7628,0.7658,0.7583,0.7565,0.7399,0.7197,0.7224,0.7097,0.6811,0.6798,0.6474,0.578,0.5787,0.5787,0.585,0.5874,0.5928,0.5959,0.6098,0.6191,0.623,0.6423,0.6614,0.6828,0.7148,0.7501,0.8208,0.8374,0.8776,0.9177,0.9089,0.887,0.8853,0.8671,0.8304,0.7695,0.6993,0.6393,0.6057,0.5897,0.599,0.6337,0.6452,0.6604,0.6777,0.6889,0.6948,0.6978,0.7038,0.7157,0.717,0.7269,0.7272,0.7454,0.7534,0.7437,0.7239,0.6799,0.6498,0.6255,0.5866,0.5349,0.4991,0.4706,0.4366,0.4019,0.4236,0.4078,0.3536,0.2461,0.1309,0.0411,-0.1886,-0.423,-0.6675,-0.8365,-0.9055,0.4008,0.384,0.3968,0.4188,0.4403,0.418,0.457,0.5221,0.514,0.5178,0.548,0.5524,0.5561,0.5728,0.5819,0.6027,0.6289,0.6459,0.6628,0.6803,0.6803,0.6713,0.6628,0.6634,0.6983,0.7524,0.7401,0.7709,0.815,0.826,0.8315,0.8389,0.8398,0.8472,0.8642,0.8618,0.8573,0.8566,0.8592,0.8628,0.8514,0.8325,0.8257,0.8014,0.7931,0.7598,0.7324,0.7157,0.6829,0.6474,0.639,0.6421,0.6452,0.6474,0.6504,0.6443,0.6667,0.6838,0.6848,0.706,0.7451,0.7836,0.8139,0.8721,0.9333,0.9655,1.0077,1.0147,0.9934,0.9696,0.9383,0.9198,0.8812,0.8306,0.7825,0.7246,0.6562,0.6466,0.6557,0.6747,0.6846,0.6918,0.7118,0.7237,0.7266,0.7296,0.7296,0.7443,0.7589,0.7744,0.7917,0.806,0.8287,0.8279,0.8148,0.7796,0.7338,0.708,0.6533,0.5986,0.5561,0.5184,0.4953,0.4699,0.456,0.4361,0.3968,0.3674,0.3234,0.1863,-0.0418,-0.2008,-0.3924,-0.6588,-0.7436,0.4884,0.4491,0.4622,0.4705,0.4787,0.4744,0.514,0.5658,0.5658,0.5793,0.6002,0.6007,0.6167,0.6167,0.6459,0.6664,0.7105,0.7182,0.753,0.7746,0.7829,0.7655,0.7356,0.7349,0.7933,0.8617,0.8211,0.8532,0.8981,0.9021,0.9009,0.9016,0.9056,0.9217,0.9368,0.9439,0.9492,0.9507,0.9706,0.9715,0.944,0.9077,0.8832,0.8813,0.8329,0.7989,0.7734,0.7491,0.7303,0.7253,0.7166,0.7068,0.7136,0.7166,0.7127,0.711,0.7351,0.7584,0.7626,0.7981,0.8486,0.8847,0.9436,1.0047,1.0324,1.073,1.0966,1.0867,1.0626,1.0176,0.9773,0.9327,0.9228,0.9121,0.9052,0.8493,0.7687,0.7294,0.7237,0.7334,0.7334,0.7364,0.7393,0.7423,0.7501,0.8096,0.8029,0.8181,0.8294,0.8389,0.8445,0.8445,0.8761,0.9112,0.8975,0.8833,0.8342,0.7922,0.7263,0.6701,0.6242,0.594,0.5837,0.5642,0.5367,0.5181,0.4972,0.4743,0.4516,0.3361,0.1117,0.0925,0.046,-0.2894,-0.4747,0.5178,0.5135,0.513,0.5475,0.5819,0.5561,0.599,0.6901,0.6556,0.6641,0.6985,0.7098,0.7147,0.728,0.7398,0.7648,0.7724,0.7807,0.8028,0.8242,0.8365,0.8447,0.8357,0.8267,0.852,0.8922,0.8872,0.8977,0.9255,0.9327,0.9337,0.9515,0.9545,0.9664,0.9744,0.9785,0.9942,1.0089,1.0256,1.0187,0.9874,0.9294,0.8909,0.8838,0.8437,0.8199,0.813,0.8033,0.8028,0.789,0.7564,0.734,0.7349,0.74,0.7439,0.7572,0.7959,0.8252,0.8342,0.8842,0.9391,0.9899,1.0138,1.0433,1.0936,1.1159,1.1282,1.1143,1.0876,1.073,1.0623,1.0677,1.0556,1.0507,1.0387,1.0017,0.9307,0.8448,0.813,0.8181,0.8266,0.8417,0.869,0.8651,0.8734,0.8887,0.8942,0.9023,0.905,0.905,0.9012,0.8985,0.9295,0.9649,0.9654,0.9585,0.9376,0.8967,0.8346,0.7976,0.7527,0.6881,0.6845,0.6512,0.6088,0.5937,0.589,0.5433,0.5134,0.3865,0.3005,0.2904,0.2153,-0.0413,-0.1004,0.6039,0.5867,0.591,0.6167,0.6422,0.6252,0.6592,0.7245,0.7154,0.7245,0.7496,0.7572,0.7704,0.7829,0.7995,0.8036,0.8118,0.8275,0.848,0.8651,0.8732,0.8854,0.9016,0.8967,0.9007,0.9136,0.9128,0.9288,0.9417,0.9527,0.9616,0.9753,0.9823,0.9902,0.9961,0.9982,1.0253,1.0598,1.0803,1.0754,1.0428,0.9863,0.9176,0.8907,0.8663,0.8544,0.8421,0.8432,0.8519,0.852,0.8309,0.8168,0.8296,0.8479,0.8582,0.8663,0.9082,0.9394,0.9594,0.9919,1.0446,1.0884,1.0989,1.13,1.167,1.1847,1.1847,1.1802,1.1644,1.1535,1.1477,1.1477,1.1549,1.1544,1.1527,1.1179,1.0488,0.9574,0.886,0.8839,0.8761,0.8855,0.9058,0.9354,0.9328,0.9197,0.9363,0.9454,0.9544,0.9544,0.9571,0.9636,0.9907,1.0157,1.0237,1.0271,1.0347,1.0073,0.9747,0.9609,0.9478,0.8693,0.7928,0.7503,0.7042,0.6921,0.6801,0.6288,0.6143,0.5977,0.5555,0.4977,0.4487,0.3762,0.3796,0.6894,0.6647,0.6768,0.681,0.6852,0.681,0.7063,0.7461,0.7454,0.7579,0.7746,0.7746,0.7912,0.8028,0.816,0.8258,0.8373,0.857,0.8814,0.9016,0.9016,0.9136,0.9328,0.9448,0.9448,0.9408,0.9408,0.9536,0.9713,0.9793,0.9823,0.9862,0.9941,1.0059,1.0099,1.0146,1.0394,1.0939,1.1542,1.1447,1.1023,1.0551,0.9894,0.9164,0.9186,0.9119,0.9057,0.9125,0.9189,0.9294,0.9422,0.9659,0.9918,0.995,1.0156,1.0048,1.0409,1.0675,1.0797,1.1171,1.1538,1.1788,1.1923,1.2115,1.2365,1.2449,1.2449,1.2449,1.233,1.2295,1.2126,1.2129,1.2118,1.2143,1.2361,1.2132,1.1554,1.0771,1.0169,0.9464,0.9478,0.9595,0.9569,0.9699,0.9607,0.9569,0.9766,0.9945,1.0058,1.0158,1.0245,1.0379,1.0678,1.0936,1.1033,1.1197,1.1253,1.1136,1.0913,1.097,1.095,1.0009,0.9077,0.8479,0.8113,0.7973,0.779,0.7461,0.7541,0.804,0.7688,0.6692,0.7068,0.7978,0.7899,0.7328,0.7245,0.7286,0.7321,0.7349,0.7349,0.753,0.7795,0.7787,0.7863,0.7938,0.8077,0.8126,0.8209,0.8291,0.8447,0.8683,0.8926,0.9128,0.9288,0.9328,0.9448,0.9734,1.0,1.004,0.9774,0.9774,0.9892,0.9941,0.9941,1.0059,1.0019,1.0127,1.0244,1.036,1.0309,1.0685,1.1431,1.2217,1.2248,1.141,1.0845,1.0293,0.954,0.9789,0.9931,1.0013,1.0308,1.0447,1.0146,1.09,1.1583,1.1801,1.111,1.069,1.0747,1.1279,1.1706,1.182,1.2234,1.2496,1.2579,1.2615,1.2615,1.2662,1.2709,1.2768,1.2803,1.2826,1.2861,1.292,1.2931,1.3113,1.3246,1.3343,1.3322,1.2887,1.2381,1.1587,1.0713,1.0542,1.0323,1.021,1.0197,1.0297,1.0383,1.0623,1.081,1.0987,1.1102,1.1216,1.1336,1.1476,1.1728,1.1923,1.2117,1.2227,1.2169,1.2038,1.2052,1.1783,1.0966,1.0242,1.0052,0.9423,0.8927,0.8736,0.8667,0.8673,0.8983,0.8611,0.8225,0.8811,0.9385,0.9159,0.7496,0.7538,0.7545,0.7579,0.7614,0.7655,0.7787,0.7912,0.7946,0.7987,0.8077,0.8167,0.8291,0.8447,0.8529,0.8797,0.9191,0.9359,0.9637,0.9873,0.9981,1.0069,1.0283,1.0582,1.0649,1.0611,1.0649,1.0505,1.0322,1.0428,1.0544,1.0812,1.0916,1.1029,1.1025,1.0999,1.1278,1.197,1.2675,1.2763,1.188,1.139,1.0858,1.0763,1.0759,1.0919,1.0898,1.1038,1.1197,1.1216,1.16,1.2241,1.2523,1.247,1.1976,1.1947,1.2274,1.2601,1.2726,1.306,1.3113,1.3138,1.3138,1.3138,1.3116,1.3151,1.3138,1.331,1.3514,1.3648,1.3741,1.3728,1.3861,1.4013,1.4214,1.4166,1.3936,1.3799,1.298,1.1913,1.1218,1.0859,1.0691,1.0787,1.1001,1.1196,1.1431,1.1637,1.1852,1.1921,1.1974,1.2131,1.2242,1.2533,1.2766,1.2975,1.3136,1.3089,1.3116,1.3125,1.2975,1.2311,1.2205,1.2186,1.1376,1.0143,1.0455,1.0645,1.0302,0.9961,1.0012,1.0086,1.0415,1.0585,1.0282,0.7655,0.7746,0.7753,0.7753,0.7795,0.787,0.7953,0.7953,0.7987,0.8118,0.825,0.8373,0.857,0.8805,0.9039,0.939,0.9894,0.9913,1.0225,1.0495,1.0572,1.0736,1.0916,1.1105,1.118,1.1217,1.1468,1.1356,1.0954,1.0992,1.1266,1.1404,1.17,1.1822,1.174,1.1606,1.2047,1.2472,1.2931,1.2922,1.2532,1.203,1.1814,1.1942,1.1963,1.1938,1.1804,1.2019,1.2165,1.2312,1.2473,1.2755,1.3107,1.3535,1.3689,1.3522,1.3387,1.3433,1.3581,1.3635,1.3628,1.356,1.356,1.356,1.3615,1.3602,1.3702,1.3934,1.4046,1.4189,1.4157,1.4268,1.4351,1.4515,1.4772,1.4978,1.4804,1.4545,1.4124,1.3065,1.1966,1.1517,1.15,1.1378,1.1579,1.1809,1.202,1.2229,1.2408,1.2527,1.2609,1.2814,1.3025,1.3365,1.3605,1.3806,1.393,1.3954,1.4061,1.4134,1.408,1.3846,1.3765,1.3444,1.2558,1.1602,1.2109,1.2105,1.1305,1.1002,1.1517,1.1629,1.1382,1.1235,1.1028,0.7904,0.7979,0.7979,0.7979,0.7979,0.7979,0.807,0.8167,0.8167,0.8258,0.8455,0.8862,0.9096,0.9288,0.9804,1.0118,1.0273,1.0467,1.0677,1.0954,1.0992,1.1067,1.1255,1.1616,1.1627,1.17,1.1945,1.1872,1.1616,1.1664,1.1737,1.1847,1.192,1.1884,1.209,1.2153,1.2271,1.2614,1.3012,1.3124,1.2894,1.2312,1.2223,1.2423,1.2671,1.2812,1.2865,1.3153,1.3441,1.3507,1.3815,1.4049,1.4246,1.4519,1.4766,1.4658,1.4342,1.3947,1.4092,1.4072,1.4007,1.3874,1.3861,1.3894,1.4032,1.4136,1.4154,1.3914,1.413,1.4356,1.4497,1.4415,1.4578,1.4876,1.5181,1.5492,1.5542,1.5469,1.5011,1.4521,1.3513,1.2807,1.2467,1.2303,1.2205,1.2412,1.263,1.2801,1.2986,1.3126,1.3243,1.3432,1.3587,1.3894,1.4135,1.4367,1.4522,1.4648,1.4754,1.488,1.4745,1.4547,1.4491,1.4035,1.325,1.2622,1.2531,1.2293,1.1835,1.1822,1.2012,1.1984,1.182,1.1719,1.1548,0.8797,0.8707,0.8513,0.839,0.839,0.8193,0.816,0.825,0.8406,0.861,0.8854,0.9208,0.9527,0.9922,1.0312,1.0611,1.0829,1.0981,1.1244,1.1516,1.159,1.1664,1.1884,1.2077,1.2113,1.2258,1.2389,1.2461,1.2318,1.2246,1.2294,1.2508,1.2544,1.265,1.2567,1.2731,1.2871,1.3057,1.3263,1.3465,1.3485,1.3342,1.332,1.3712,1.3868,1.3901,1.3979,1.416,1.4365,1.4383,1.456,1.4641,1.4752,1.4907,1.5074,1.5165,1.4951,1.4686,1.4543,1.4397,1.4268,1.4235,1.4287,1.4543,1.4735,1.4878,1.4956,1.4954,1.5106,1.518,1.5225,1.5255,1.5359,1.555,1.568,1.5935,1.6223,1.6281,1.6044,1.5567,1.5095,1.4395,1.3638,1.3077,1.2921,1.3008,1.3157,1.3294,1.355,1.3782,1.3904,1.4049,1.4198,1.437,1.454,1.4737,1.4857,1.4956,1.4979,1.5079,1.5076,1.4974,1.4825,1.4725,1.4245,1.3635,1.3041,1.2832,1.2741,1.2554,1.2387,1.219,1.1977,1.1722,1.1476,0.9843,0.9725,0.9151,0.8918,0.8918,0.8692,0.8602,0.8651,0.891,0.9151,0.9469,0.9825,1.0293,1.0687,1.0954,1.1207,1.1494,1.1494,1.1763,1.2029,1.2222,1.2258,1.2377,1.252,1.2662,1.2838,1.3022,1.3091,1.3091,1.3035,1.3069,1.3129,1.3012,1.3185,1.3288,1.331,1.3378,1.3615,1.3735,1.3973,1.421,1.4269,1.4477,1.4707,1.4825,1.4808,1.4808,1.4777,1.4763,1.4811,1.4921,1.5043,1.515,1.533,1.5463,1.5536,1.5404,1.5255,1.5027,1.4825,1.4606,1.4669,1.4811,1.5149,1.5299,1.558,1.5652,1.5565,1.5754,1.5896,1.608,1.6037,1.605,1.6145,1.6336,1.6549,1.6716,1.6781,1.6629,1.6121,1.5808,1.5873,1.5066,1.4084,1.3717,1.3667,1.3727,1.3801,1.4011,1.4259,1.4386,1.4455,1.456,1.469,1.4865,1.5023,1.5167,1.52,1.5214,1.5194,1.5136,1.5078,1.4935,1.4873,1.4756,1.422,1.3376,1.3543,1.3657,1.3038,1.2517,1.2294,1.2066,1.1775,1.1505,1.1006,1.0891,0.9942,0.954,0.954,0.9628,0.9667,0.9579,0.9728,0.9914,1.0263,1.0847,1.1394,1.1774,1.1774,1.1884,1.2041,1.2041,1.2186,1.2294,1.2413,1.252,1.2697,1.292,1.3082,1.3229,1.3454,1.3722,1.3901,1.3815,1.3581,1.3232,1.3369,1.3459,1.3594,1.3715,1.3881,1.4111,1.4259,1.4501,1.4735,1.4797,1.4904,1.5118,1.5011,1.4794,1.4808,1.4902,1.4949,1.5043,1.5285,1.5477,1.5623,1.5796,1.5968,1.5996,1.5883,1.5725,1.5565,1.5315,1.5225,1.5315,1.5492,1.5652,1.5681,1.5968,1.6024,1.5966,1.6203,1.6285,1.6367,1.6405,1.6538,1.6644,1.6799,1.6952,1.7126,1.728,1.7084,1.6598,1.6576,1.6837,1.6677,1.5728,1.4775,1.4669,1.4091,1.4156,1.4327,1.4548,1.4654,1.4751,1.483,1.4951,1.5121,1.5234,1.5249,1.5212,1.5217,1.516,1.5096,1.5031,1.4901,1.4673,1.4452,1.4118,1.3811,1.3634,1.3404,1.2988,1.26,1.222,1.1946,1.1696,1.1497,1.1158,1.112,1.0736,1.0428,1.0176,0.9972,0.9914,1.0079,1.0244,1.0619,1.1111,1.1568,1.192,1.2066,1.2102,1.2186,1.2258,1.2294,1.2401,1.2591,1.2745,1.285,1.3025,1.3254,1.348,1.3568,1.3835,1.3967,1.4,1.4208,1.4078,1.3815,1.3828,1.3927,1.4059,1.4163,1.4324,1.442,1.461,1.4842,1.5104,1.5179,1.5269,1.5551,1.5551,1.5403,1.5433,1.5463,1.5492,1.5566,1.5811,1.5966,1.6105,1.6285,1.6367,1.6436,1.6285,1.6231,1.6105,1.5767,1.5463,1.5754,1.595,1.6142,1.6212,1.6628,1.6825,1.6809,1.6747,1.6825,1.6977,1.7027,1.7076,1.7126,1.7248,1.7415,1.7539,1.7749,1.7877,1.7527,1.7818,1.8164,1.7866,1.7442,1.6479,1.563,1.4984,1.4501,1.4653,1.4779,1.4887,1.4985,1.5047,1.508,1.5233,1.5273,1.5296,1.5235,1.5186,1.5089,1.4979,1.4806,1.4662,1.4434,1.4229,1.3966,1.3713,1.347,1.3177,1.2858,1.2384,1.1924,1.1718,1.1556,1.1444,1.1271,1.1271,1.1335,1.1126,1.0774,1.0504,1.0484,1.0647,1.0933,1.133,1.1884,1.215,1.2269,1.2269,1.2305,1.2341,1.2484,1.252,1.2639,1.2815,1.2967,1.3163,1.3357,1.3615,1.3835,1.3934,1.4181,1.4342,1.4374,1.442,1.4515,1.4578,1.4547,1.456,1.4479,1.4672,1.4783,1.4828,1.4966,1.5133,1.5389,1.5448,1.5522,1.577,1.5741,1.577,1.5741,1.577,1.5898,1.6052,1.6258,1.6474,1.6581,1.6659,1.667,1.6686,1.6727,1.6727,1.6554,1.6324,1.6022,1.6336,1.6496,1.6741,1.6969,1.7224,1.7216,1.7272,1.7337,1.7455,1.7549,1.7585,1.7636,1.7726,1.7996,1.8142,1.8148,1.8251,1.8479,1.8539,1.8836,1.894,1.8822,1.834,1.7281,1.6233,1.5263,1.4878,1.4935,1.5036,1.511,1.5174,1.5225,1.5249,1.5292,1.5262,1.5218,1.512,1.5062,1.4964,1.4835,1.4661,1.4504,1.4379,1.4165,1.3892,1.358,1.3277,1.302,1.2762,1.2276,1.1805,1.1601,1.1481,1.133,1.1384,1.1421,1.1686,1.1564,1.125,1.1479,1.1531,1.1531,1.1847,1.2113,1.2341,1.2603,1.2674,1.2662,1.2662,1.2768,1.278,1.278,1.2885,1.3094,1.3288,1.3425,1.3669,1.3986,1.4278,1.4438,1.4658,1.4859,1.4907,1.4996,1.5163,1.5209,1.5134,1.5088,1.4856,1.5179,1.5389,1.5448,1.5522,1.561,1.5639,1.574,1.587,1.5898,1.5942,1.5983,1.6011,1.6067,1.6207,1.6394,1.6554,1.6747,1.6926,1.6993,1.6993,1.6993,1.6993,1.6993,1.6977,1.6968,1.6952,1.696,1.7052,1.7199,1.7272,1.7384,1.7496,1.7612,1.7549,1.7715,1.7915,1.809,1.8194,1.8318,1.8571,1.8681,1.8646,1.8734,1.8922,1.9054,1.9206,1.9364,1.9401,1.9085,1.798,1.686,1.5683,1.5262,1.5284,1.5238,1.5284,1.5265,1.5293,1.5286,1.5258,1.5205,1.5138,1.5037,1.4924,1.482,1.469,1.4515,1.4398,1.4289,1.4011,1.3646,1.3344,1.3055,1.2855,1.2626,1.219,1.1783,1.1556,1.1368,1.1239,1.1686,1.1686,1.1895,1.1932,1.1822,1.1884,1.1993,1.215,1.2377,1.2556,1.2639,1.285,1.2955,1.299,1.3116,1.3207,1.3207,1.3344,1.3446,1.3514,1.3735,1.4,1.4246,1.447,1.4704,1.4859,1.5088,1.5193,1.5163,1.5328,1.5374,1.5389,1.5507,1.5403,1.5344,1.5492,1.5551,1.5595,1.5782,1.6009,1.6009,1.6176,1.6301,1.6301,1.6274,1.6301,1.6328,1.6382,1.6528,1.6738,1.685,1.7101,1.7224,1.7264,1.7264,1.7264,1.7288,1.7384,1.7526,1.7595,1.7542,1.7479,1.7502,1.7595,1.7658,1.7833,1.7878,1.7966,1.7997,1.8205,1.8328,1.8491,1.8605,1.8717,1.8893,1.8925,1.8972,1.9127,1.9294,1.9383,1.9492,1.9774,1.9909,1.9677,1.8725,1.7967,1.6937,1.5941,1.5724,1.5467,1.5389,1.5303,1.5282,1.5277,1.5261,1.5342,1.5285,1.5175,1.4914,1.4631,1.4489,1.435,1.4105,1.3899,1.3648,1.3378,1.3089,1.2836,1.2719,1.2483,1.2045,1.1681,1.1429,1.1285,1.1169,1.2187,1.2198,1.2389,1.2496,1.2461,1.2294,1.2365,1.2627,1.2873,1.2978,1.3025,1.3163,1.322,1.3288,1.3391,1.3547,1.3581,1.3635,1.3868,1.3921,1.4214,1.4438,1.4658,1.4845,1.4966,1.5118,1.5208,1.5313,1.5314,1.5359,1.5507,1.5653,1.5711,1.5854,1.5854,1.5883,1.5797,1.5896,1.6148,1.6313,1.6367,1.6474,1.6554,1.6554,1.6596,1.6623,1.6659,1.6763,1.6876,1.7027,1.7224,1.7455,1.7502,1.7542,1.7589,1.7618,1.767,1.7783,1.7949,1.8035,1.7932,1.7844,1.7927,1.8057,1.8142,1.8307,1.8365,1.8463,1.8561,1.8603,1.8697,1.8843,1.898,1.9093,1.9261,1.9298,1.9401,1.9576,1.9707,1.976,1.9846,2.0115,2.0276,1.9992,1.9484,1.8853,1.8222,1.7265,1.6385,1.6156,1.5913,1.579,1.5846,1.599,1.5879,1.5644,1.5548,1.5342,1.5047,1.4717,1.4344,1.4206,1.3859,1.3573,1.3511,1.3312,1.2871,1.2623,1.2518,1.2282,1.1918,1.1593,1.1324,1.1224,1.1192,1.2894,1.2916,1.3113,1.3182,1.3113,1.2708,1.2733,1.3129,1.3357,1.348,1.348,1.348,1.3547,1.3547,1.3581,1.3715,1.3835,1.3868,1.4084,1.4342,1.4533,1.4721,1.489,1.5013,1.5163,1.5238,1.5343,1.5358,1.5389,1.5536,1.574,1.5996,1.6108,1.6246,1.6301,1.6285,1.6176,1.6258,1.6448,1.6581,1.6633,1.6701,1.6779,1.6805,1.6789,1.6841,1.6876,1.6952,1.7109,1.7256,1.7415,1.7595,1.7726,1.7811,1.7932,1.8044,1.809,1.8149,1.8243,1.8325,1.86,1.8612,1.8605,1.8672,1.8658,1.8659,1.8658,1.8678,1.8752,1.886,1.8963,1.9125,1.9276,1.9462,1.9688,1.9805,1.9905,2.0031,2.0126,2.0192,2.0243,2.038,2.0406,2.0204,1.9971,1.9648,1.9129,1.8841,1.7989,1.7346,1.707,1.6614,1.6706,1.6898,1.6701,1.625,1.58,1.5608,1.5336,1.5007,1.4562,1.4335,1.4418,1.4262,1.3701,1.3275,1.2829,1.2503,1.2308,1.2079,1.2147,1.1711,1.1494,1.1376,1.1293,1.3148,1.3148,1.3331,1.3412,1.3412,1.3446,1.3459,1.3425,1.348,1.3547,1.3648,1.3835,1.4,1.4117,1.4337,1.4415,1.4497,1.4592,1.469,1.4828,1.4904,1.5072,1.5163,1.5193,1.5284,1.5344,1.5374,1.5418,1.5536,1.5682,1.594,1.6148,1.6394,1.6528,1.6649,1.6701,1.6607,1.6607,1.6789,1.6882,1.6959,1.7075,1.7125,1.7158,1.7158,1.7216,1.7288,1.7368,1.7539,1.7704,1.771,1.7861,1.8284,1.8163,1.8128,1.8348,1.8373,1.8432,1.8577,1.9096,1.9514,1.9722,1.9813,1.9327,1.9111,1.8878,1.8896,1.893,1.9124,1.933,1.9439,1.9571,1.9721,1.995,2.0053,2.0003,2.0103,2.0192,2.0289,2.0327,2.0381,2.0418,2.0462,2.0438,2.0214,2.0103,1.9948,1.9702,1.9372,1.8639,1.8031,1.7536,1.7509,1.7679,1.7301,1.6846,1.6306,1.5851,1.564,1.5414,1.5104,1.499,1.5175,1.4916,1.4307,1.353,1.2754,1.2609,1.2748,1.279,1.2773,1.2194,1.1746,1.1728,1.1675,1.3635,1.3669,1.3749,1.3828,1.3848,1.4059,1.4046,1.3901,1.3901,1.3921,1.4065,1.4259,1.4452,1.4547,1.4686,1.4794,1.4828,1.489,1.4982,1.5102,1.5238,1.5238,1.5268,1.5328,1.5388,1.5433,1.5507,1.5595,1.5769,1.6024,1.6301,1.6538,1.6712,1.6831,1.6975,1.71,1.71,1.7075,1.7125,1.7175,1.7273,1.7386,1.7465,1.7519,1.7536,1.7589,1.7681,1.7755,1.7915,1.8065,1.8031,1.8218,1.8665,1.8693,1.921,1.953,1.9827,1.9883,2.0065,2.0409,2.0715,2.0924,2.1053,2.0609,1.996,1.9562,1.9381,1.9271,1.9608,1.9871,1.9968,2.0073,2.0257,2.0462,2.0308,2.015,2.0219,2.0289,2.0332,2.0383,2.0411,2.0428,2.046,2.0467,2.0446,2.0305,2.0172,2.0012,1.9792,1.9422,1.8777,1.8233,1.8279,1.8383,1.7917,1.7485,1.7072,1.6547,1.6115,1.5876,1.5625,1.5523,1.5571,1.5295,1.4868,1.4145,1.346,1.3394,1.3474,1.3489,1.3458,1.3062,1.2673,1.2462,1.2438,1.43,1.43,1.4319,1.43,1.4351,1.4452,1.4501,1.4533,1.4501,1.4533,1.4578,1.4732,1.4794,1.4856,1.4887,1.4949,1.5027,1.5088,1.5179,1.5298,1.5358,1.5388,1.5448,1.5403,1.558,1.5639,1.5726,1.5883,1.6136,1.6382,1.6659,1.6993,1.7018,1.715,1.7354,1.7417,1.7441,1.7465,1.7489,1.7536,1.7465,1.7505,1.7536,1.7589,1.7658,1.7732,1.7822,1.7954,1.8103,1.8284,1.8528,1.8735,1.9279,1.9717,2.0457,2.0842,2.1079,2.1203,2.1308,2.1646,2.1906,2.207,2.2168,2.191,2.1376,2.0666,2.0415,2.0172,2.0455,2.0922,2.1116,2.1157,2.1268,2.1091,2.0856,2.055,2.0334,2.0386,2.0419,2.043,2.0458,2.0466,2.0469,2.0466,2.0382,2.0346,2.0263,2.0142,1.9963,1.9736,1.9383,1.8821,1.8869,1.8852,1.8535,1.8129,1.7876,1.7401,1.685,1.6449,1.6254,1.6091,1.5938,1.5701,1.5416,1.4973,1.4489,1.4243,1.4076,1.4232,1.416,1.3965,1.369,1.3426,1.3157,1.43,1.4332,1.4388,1.4529,1.4669,1.47,1.4718,1.4732,1.4859,1.4876,1.4876,1.4921,1.5027,1.5117,1.5117,1.5163,1.5193,1.5224,1.5358,1.5463,1.5522,1.561,1.5784,1.5769,1.5911,1.608,1.6163,1.6274,1.6517,1.6712,1.6876,1.7018,1.7183,1.7427,1.7522,1.7582,1.7675,1.776,1.7839,1.7749,1.7606,1.7726,1.7839,1.791,1.8001,1.8163,1.8263,1.838,1.8522,1.8673,1.9282,1.9932,2.073,2.1098,2.1352,2.1588,2.198,2.2131,2.2356,2.2727,2.3059,2.3159,2.3243,2.324,2.2918,2.218,2.1668,2.1396,2.1449,2.1926,2.2238,2.2259,2.2211,2.1839,2.1434,2.0991,2.0565,2.0539,2.0539,2.0505,2.0508,2.0487,2.0481,2.0419,2.0324,2.0235,2.0119,2.0003,1.9809,1.963,1.9575,1.9201,1.9276,1.923,1.8934,1.8653,1.8312,1.8142,1.7702,1.7309,1.691,1.6795,1.6636,1.6318,1.6,1.5616,1.5183,1.4692,1.4625,1.49,1.4862,1.4683,1.4722,1.4543,1.4127,1.4169,1.4388,1.456,1.4686,1.4808,1.4842,1.4904,1.4904,1.5058,1.5133,1.5133,1.5118,1.5193,1.5298,1.5298,1.5328,1.5328,1.5388,1.5463,1.558,1.574,1.5841,1.5968,1.6093,1.6203,1.634,1.6554,1.6727,1.6882,1.7009,1.7134,1.7208,1.7451,1.7545,1.7582,1.7681,1.7794,1.7944,1.8082,1.8018,1.7856,1.8031,1.8142,1.8229,1.8345,1.8518,1.8682,1.8847,1.9268,1.9651,2.03,2.1207,2.1898,2.2243,2.2588,2.2949,2.321,2.3266,2.3437,2.3728,2.4136,2.4189,2.4309,2.432,2.3886,2.3205,2.3017,2.2786,2.2815,2.3227,2.3275,2.3283,2.3279,2.3057,2.2487,2.1945,2.1497,2.1202,2.0937,2.0546,2.054,2.0465,2.0441,2.0385,2.0282,2.0123,2.0012,1.9842,1.9663,1.9526,1.949,1.9434,1.9419,1.9313,1.9016,1.8833,1.8644,1.8503,1.8339,1.7932,1.7439,1.7434,1.7319,1.6878,1.6565,1.6386,1.5927,1.5416,1.5478,1.5832,1.5668,1.5402,1.5447,1.5389,1.4919,1.4134,1.4568,1.4749,1.4839,1.4902,1.4996,1.5043,1.5088,1.5224,1.5298,1.5328,1.5328,1.5343,1.5343,1.5388,1.5388,1.5448,1.561,1.5668,1.5797,1.5968,1.6136,1.6231,1.627,1.6501,1.6686,1.6908,1.71,1.7281,1.7338,1.7417,1.7505,1.7576,1.7646,1.7721,1.7777,1.7888,1.81,1.8246,1.838,1.8435,1.8493,1.8551,1.857,1.8718,1.8812,1.9082,1.9573,2.0209,2.0735,2.1366,2.2311,2.2969,2.3334,2.3698,2.4057,2.4331,2.4515,2.4733,2.4803,2.5015,2.516,2.529,2.5081,2.4553,2.4366,2.4184,2.4161,2.4184,2.4223,2.4242,2.427,2.4261,2.3986,2.3359,2.2803,2.2333,2.1953,2.15,2.0985,2.0906,2.0837,2.0604,2.054,2.0331,2.0136,1.9909,1.97,1.9535,1.9444,1.9376,1.9301,1.924,1.9111,1.9031,1.8912,1.8771,1.8589,1.8364,1.817,1.7944,1.7704,1.7502,1.7287,1.7011,1.6734,1.6632,1.6231,1.6449,1.646,1.6134,1.5743,1.5605,1.5536,1.5359,1.4561,1.4907,1.4951,1.5072,1.5192,1.5224,1.5238,1.5238,1.5313,1.5403,1.5522,1.5566,1.5566,1.5551,1.5784,1.5826,1.5769,1.5883,1.6024,1.6191,1.6285,1.6448,1.6607,1.6686,1.6949,1.7125,1.7265,1.7403,1.7458,1.7559,1.7635,1.7658,1.785,1.7917,1.7939,1.8035,1.8149,1.8348,1.8722,1.898,1.961,1.9592,1.9175,1.9501,2.017,2.019,2.0427,2.0934,2.126,2.1696,2.2313,2.3277,2.3824,2.415,2.4385,2.458,2.4929,2.5043,2.5134,2.5209,2.5282,2.5332,2.5361,2.5331,2.5067,2.5136,2.5045,2.5079,2.5111,2.5105,2.5124,2.5124,2.5084,2.4417,2.3762,2.3369,2.2949,2.2827,2.26,2.2369,2.2247,2.1891,2.1371,2.1147,2.0766,2.0511,2.0107,1.9875,1.9612,1.9445,1.9381,1.9198,1.9101,1.9064,1.9014,1.893,1.8789,1.8585,1.8385,1.8117,1.7878,1.7726,1.7526,1.7288,1.7093,1.6811,1.6738,1.6701,1.6607,1.6523,1.6258,1.6009,1.5854,1.5683,1.5507]}]]